<?xml version="1.0" encoding="UTF-8" standalone="no" ?>
<gpx xmlns="http://www.topografix.com/GPX/1/1" xmlns:xsi="http://www.w3.org/2001/XMLSchema-instance" xsi:schemaLocation="http://www.topografix.com/GPX/1/1 http://www.topografix.com/GPX/1/1/gpx.xsd" version="1.1" creator="VisuGPX - https://www.visugpx.com">
  <metadata>
    <name>Albon d'Ardèche col des 4 vios 16km</name>
  </metadata>
  <trk>
    <name><![CDATA[Albon d'Ardèche col des 4 vios]]></name>
    <extensions>
      <line xmlns="http://www.topografix.com/GPX/gpx_style/0/2">
        <color>0000FF</color>
        <width>4</width>
      </line>
    </extensions>
    <trkseg>
      <trkpt lat="44.8211" lon="4.42823">
        <ele>637</ele>
        <time>2014-11-13T09:54:45Z</time>
        <extensions>
          <visugpx:TrkExtension xmlns:visugpx="https://www.visugpx.com/editgpx/">
            <visugpx:node>11</visugpx:node>
            </visugpx:TrkExtension>
        </extensions>
      </trkpt>
      <trkpt lat="44.82106" lon="4.42823">
        <ele>637</ele>
        <time>2014-11-13T09:54:50Z</time>
      </trkpt>
      <trkpt lat="44.82103" lon="4.42826">
        <ele>637</ele>
        <time>2014-11-13T09:54:55Z</time>
      </trkpt>
      <trkpt lat="44.821" lon="4.4283">
        <ele>637</ele>
        <time>2014-11-13T09:55:00Z</time>
      </trkpt>
      <trkpt lat="44.82097" lon="4.42834">
        <ele>635</ele>
        <time>2014-11-13T09:55:05Z</time>
      </trkpt>
      <trkpt lat="44.82093" lon="4.42839">
        <ele>635</ele>
        <time>2014-11-13T09:55:10Z</time>
      </trkpt>
      <trkpt lat="44.82091" lon="4.42845">
        <ele>635</ele>
        <time>2014-11-13T09:55:15Z</time>
      </trkpt>
      <trkpt lat="44.82091" lon="4.42853">
        <ele>635</ele>
        <time>2014-11-13T09:55:20Z</time>
      </trkpt>
      <trkpt lat="44.82093" lon="4.42861">
        <ele>635</ele>
        <time>2014-11-13T09:55:25Z</time>
      </trkpt>
      <trkpt lat="44.82095" lon="4.42866">
        <ele>635</ele>
        <time>2014-11-13T09:55:30Z</time>
      </trkpt>
      <trkpt lat="44.82097" lon="4.42872">
        <ele>635</ele>
        <time>2014-11-13T09:55:35Z</time>
      </trkpt>
      <trkpt lat="44.82098" lon="4.42879">
        <ele>634</ele>
        <time>2014-11-13T09:55:40Z</time>
      </trkpt>
      <trkpt lat="44.821" lon="4.42891">
        <ele>634</ele>
        <time>2014-11-13T09:55:45Z</time>
      </trkpt>
      <trkpt lat="44.82102" lon="4.42901">
        <ele>634</ele>
        <time>2014-11-13T09:55:50Z</time>
      </trkpt>
      <trkpt lat="44.82103" lon="4.4291">
        <ele>632</ele>
        <time>2014-11-13T09:55:55Z</time>
      </trkpt>
      <trkpt lat="44.82103" lon="4.42919">
        <ele>632</ele>
        <time>2014-11-13T09:56:00Z</time>
      </trkpt>
      <trkpt lat="44.82103" lon="4.42928">
        <ele>632</ele>
        <time>2014-11-13T09:56:05Z</time>
      </trkpt>
      <trkpt lat="44.82103" lon="4.42937">
        <ele>631</ele>
        <time>2014-11-13T09:56:10Z</time>
      </trkpt>
      <trkpt lat="44.82102" lon="4.42945">
        <ele>631</ele>
        <time>2014-11-13T09:56:15Z</time>
      </trkpt>
      <trkpt lat="44.82101" lon="4.42954">
        <ele>631</ele>
        <time>2014-11-13T09:56:20Z</time>
      </trkpt>
      <trkpt lat="44.82102" lon="4.4296">
        <ele>631</ele>
        <time>2014-11-13T09:56:25Z</time>
      </trkpt>
      <trkpt lat="44.82105" lon="4.4297">
        <ele>631</ele>
        <time>2014-11-13T09:56:30Z</time>
      </trkpt>
      <trkpt lat="44.82108" lon="4.4298">
        <ele>631</ele>
        <time>2014-11-13T09:56:35Z</time>
      </trkpt>
      <trkpt lat="44.8211" lon="4.42988">
        <ele>632</ele>
        <time>2014-11-13T09:56:40Z</time>
      </trkpt>
      <trkpt lat="44.82113" lon="4.42997">
        <ele>632</ele>
        <time>2014-11-13T09:56:45Z</time>
      </trkpt>
      <trkpt lat="44.82116" lon="4.43007">
        <ele>632</ele>
        <time>2014-11-13T09:56:50Z</time>
      </trkpt>
      <trkpt lat="44.82119" lon="4.43015">
        <ele>638</ele>
        <time>2014-11-13T09:56:55Z</time>
      </trkpt>
      <trkpt lat="44.82122" lon="4.43025">
        <ele>638</ele>
        <time>2014-11-13T09:57:00Z</time>
      </trkpt>
      <trkpt lat="44.82123" lon="4.43027">
        <ele>638</ele>
        <time>2014-11-13T09:57:05Z</time>
      </trkpt>
      <trkpt lat="44.82128" lon="4.43031">
        <ele>631</ele>
        <time>2014-11-13T09:57:10Z</time>
      </trkpt>
      <trkpt lat="44.82129" lon="4.43035">
        <ele>631</ele>
        <time>2014-11-13T09:57:15Z</time>
      </trkpt>
      <trkpt lat="44.82132" lon="4.4304">
        <ele>631</ele>
        <time>2014-11-13T09:57:20Z</time>
      </trkpt>
      <trkpt lat="44.82137" lon="4.43047">
        <ele>642</ele>
        <time>2014-11-13T09:57:25Z</time>
      </trkpt>
      <trkpt lat="44.82139" lon="4.43052">
        <ele>642</ele>
        <time>2014-11-13T09:57:30Z</time>
      </trkpt>
      <trkpt lat="44.82144" lon="4.43055">
        <ele>642</ele>
        <time>2014-11-13T09:57:35Z</time>
      </trkpt>
      <trkpt lat="44.82151" lon="4.43056">
        <ele>642</ele>
        <time>2014-11-13T09:57:40Z</time>
      </trkpt>
      <trkpt lat="44.8216" lon="4.43055">
        <ele>637</ele>
        <time>2014-11-13T09:57:45Z</time>
      </trkpt>
      <trkpt lat="44.82165" lon="4.43052">
        <ele>637</ele>
        <time>2014-11-13T09:57:50Z</time>
      </trkpt>
      <trkpt lat="44.82171" lon="4.4305">
        <ele>637</ele>
        <time>2014-11-13T09:57:55Z</time>
      </trkpt>
      <trkpt lat="44.82177" lon="4.43047">
        <ele>637</ele>
        <time>2014-11-13T09:58:00Z</time>
      </trkpt>
      <trkpt lat="44.82184" lon="4.43048">
        <ele>631</ele>
        <time>2014-11-13T09:58:05Z</time>
      </trkpt>
      <trkpt lat="44.82191" lon="4.43054">
        <ele>631</ele>
        <time>2014-11-13T09:58:10Z</time>
      </trkpt>
      <trkpt lat="44.82199" lon="4.43058">
        <ele>631</ele>
        <time>2014-11-13T09:58:15Z</time>
      </trkpt>
      <trkpt lat="44.82207" lon="4.43064">
        <ele>631</ele>
        <time>2014-11-13T09:58:20Z</time>
      </trkpt>
      <trkpt lat="44.82213" lon="4.43068">
        <ele>629</ele>
        <time>2014-11-13T09:58:25Z</time>
      </trkpt>
      <trkpt lat="44.82218" lon="4.4307">
        <ele>635</ele>
        <time>2014-11-13T09:58:30Z</time>
      </trkpt>
      <trkpt lat="44.82225" lon="4.43074">
        <ele>635</ele>
        <time>2014-11-13T09:58:35Z</time>
      </trkpt>
      <trkpt lat="44.82231" lon="4.43078">
        <ele>635</ele>
        <time>2014-11-13T09:58:40Z</time>
      </trkpt>
      <trkpt lat="44.82235" lon="4.43083">
        <ele>635</ele>
        <time>2014-11-13T09:58:45Z</time>
      </trkpt>
      <trkpt lat="44.82239" lon="4.43086">
        <ele>628</ele>
        <time>2014-11-13T09:58:50Z</time>
      </trkpt>
      <trkpt lat="44.82239" lon="4.43088">
        <ele>628</ele>
        <time>2014-11-13T09:59:00Z</time>
      </trkpt>
      <trkpt lat="44.82244" lon="4.43093">
        <ele>628</ele>
        <time>2014-11-13T09:59:05Z</time>
      </trkpt>
      <trkpt lat="44.82248" lon="4.43096">
        <ele>628</ele>
        <time>2014-11-13T09:59:10Z</time>
      </trkpt>
      <trkpt lat="44.82253" lon="4.43105">
        <ele>632</ele>
        <time>2014-11-13T09:59:15Z</time>
      </trkpt>
      <trkpt lat="44.82254" lon="4.43111">
        <ele>632</ele>
        <time>2014-11-13T09:59:20Z</time>
      </trkpt>
      <trkpt lat="44.82256" lon="4.4312">
        <ele>632</ele>
        <time>2014-11-13T09:59:25Z</time>
      </trkpt>
      <trkpt lat="44.82259" lon="4.43127">
        <ele>633</ele>
        <time>2014-11-13T09:59:30Z</time>
      </trkpt>
      <trkpt lat="44.82259" lon="4.43136">
        <ele>633</ele>
        <time>2014-11-13T09:59:35Z</time>
      </trkpt>
      <trkpt lat="44.82259" lon="4.43144">
        <ele>633</ele>
        <time>2014-11-13T09:59:40Z</time>
      </trkpt>
      <trkpt lat="44.82256" lon="4.43151">
        <ele>633</ele>
        <time>2014-11-13T09:59:45Z</time>
      </trkpt>
      <trkpt lat="44.82253" lon="4.43155">
        <ele>635</ele>
        <time>2014-11-13T09:59:50Z</time>
      </trkpt>
      <trkpt lat="44.82251" lon="4.4316">
        <ele>635</ele>
        <time>2014-11-13T09:59:55Z</time>
      </trkpt>
      <trkpt lat="44.8225" lon="4.43164">
        <ele>635</ele>
        <time>2014-11-13T10:00:00Z</time>
      </trkpt>
      <trkpt lat="44.82248" lon="4.43169">
        <ele>635</ele>
        <time>2014-11-13T10:00:05Z</time>
      </trkpt>
      <trkpt lat="44.82245" lon="4.43176">
        <ele>635</ele>
        <time>2014-11-13T10:00:10Z</time>
      </trkpt>
      <trkpt lat="44.82239" lon="4.43182">
        <ele>633</ele>
        <time>2014-11-13T10:00:15Z</time>
      </trkpt>
      <trkpt lat="44.82236" lon="4.43184">
        <ele>633</ele>
        <time>2014-11-13T10:00:20Z</time>
      </trkpt>
      <trkpt lat="44.82234" lon="4.43188">
        <ele>651</ele>
        <time>2014-11-13T10:00:25Z</time>
      </trkpt>
      <trkpt lat="44.82231" lon="4.43193">
        <ele>651</ele>
        <time>2014-11-13T10:00:30Z</time>
      </trkpt>
      <trkpt lat="44.82229" lon="4.43196">
        <ele>651</ele>
        <time>2014-11-13T10:00:35Z</time>
      </trkpt>
      <trkpt lat="44.82227" lon="4.432">
        <ele>651</ele>
        <time>2014-11-13T10:00:40Z</time>
      </trkpt>
      <trkpt lat="44.82225" lon="4.43204">
        <ele>651</ele>
        <time>2014-11-13T10:00:45Z</time>
      </trkpt>
      <trkpt lat="44.82222" lon="4.43208">
        <ele>651</ele>
        <time>2014-11-13T10:00:50Z</time>
      </trkpt>
      <trkpt lat="44.82219" lon="4.43211">
        <ele>646</ele>
        <time>2014-11-13T10:00:55Z</time>
      </trkpt>
      <trkpt lat="44.82216" lon="4.43216">
        <ele>646</ele>
        <time>2014-11-13T10:01:00Z</time>
      </trkpt>
      <trkpt lat="44.82212" lon="4.43221">
        <ele>646</ele>
        <time>2014-11-13T10:01:05Z</time>
      </trkpt>
      <trkpt lat="44.82209" lon="4.43224">
        <ele>646</ele>
        <time>2014-11-13T10:01:10Z</time>
      </trkpt>
      <trkpt lat="44.82206" lon="4.4323">
        <ele>661</ele>
        <time>2014-11-13T10:01:15Z</time>
      </trkpt>
      <trkpt lat="44.82203" lon="4.43235">
        <ele>661</ele>
        <time>2014-11-13T10:01:20Z</time>
      </trkpt>
      <trkpt lat="44.82202" lon="4.43241">
        <ele>658</ele>
        <time>2014-11-13T10:01:25Z</time>
      </trkpt>
      <trkpt lat="44.822" lon="4.43247">
        <ele>658</ele>
        <time>2014-11-13T10:01:30Z</time>
      </trkpt>
      <trkpt lat="44.82197" lon="4.43251">
        <ele>658</ele>
        <time>2014-11-13T10:01:35Z</time>
      </trkpt>
      <trkpt lat="44.82195" lon="4.43254">
        <ele>658</ele>
        <time>2014-11-13T10:01:40Z</time>
      </trkpt>
      <trkpt lat="44.82192" lon="4.43257">
        <ele>658</ele>
        <time>2014-11-13T10:01:45Z</time>
      </trkpt>
      <trkpt lat="44.82189" lon="4.43261">
        <ele>658</ele>
        <time>2014-11-13T10:01:50Z</time>
      </trkpt>
      <trkpt lat="44.82186" lon="4.43266">
        <ele>654</ele>
        <time>2014-11-13T10:01:55Z</time>
      </trkpt>
      <trkpt lat="44.82183" lon="4.43271">
        <ele>654</ele>
        <time>2014-11-13T10:02:00Z</time>
      </trkpt>
      <trkpt lat="44.82179" lon="4.43274">
        <ele>665</ele>
        <time>2014-11-13T10:02:05Z</time>
      </trkpt>
      <trkpt lat="44.82176" lon="4.43277">
        <ele>665</ele>
        <time>2014-11-13T10:02:10Z</time>
      </trkpt>
      <trkpt lat="44.82171" lon="4.43281">
        <ele>665</ele>
        <time>2014-11-13T10:02:15Z</time>
      </trkpt>
      <trkpt lat="44.82163" lon="4.43286">
        <ele>665</ele>
        <time>2014-11-13T10:02:20Z</time>
      </trkpt>
      <trkpt lat="44.82157" lon="4.43291">
        <ele>665</ele>
        <time>2014-11-13T10:02:25Z</time>
      </trkpt>
      <trkpt lat="44.82151" lon="4.43295">
        <ele>668</ele>
        <time>2014-11-13T10:02:30Z</time>
      </trkpt>
      <trkpt lat="44.82147" lon="4.43297">
        <ele>668</ele>
        <time>2014-11-13T10:02:35Z</time>
      </trkpt>
      <trkpt lat="44.82143" lon="4.433">
        <ele>668</ele>
        <time>2014-11-13T10:02:40Z</time>
      </trkpt>
      <trkpt lat="44.82139" lon="4.43303">
        <ele>668</ele>
        <time>2014-11-13T10:02:45Z</time>
      </trkpt>
      <trkpt lat="44.82136" lon="4.43304">
        <ele>668</ele>
        <time>2014-11-13T10:02:50Z</time>
      </trkpt>
      <trkpt lat="44.82133" lon="4.43306">
        <ele>668</ele>
        <time>2014-11-13T10:02:55Z</time>
      </trkpt>
      <trkpt lat="44.8213" lon="4.43307">
        <ele>668</ele>
        <time>2014-11-13T10:03:00Z</time>
      </trkpt>
      <trkpt lat="44.82127" lon="4.43308">
        <ele>668</ele>
        <time>2014-11-13T10:03:05Z</time>
      </trkpt>
      <trkpt lat="44.82124" lon="4.43311">
        <ele>680</ele>
        <time>2014-11-13T10:03:10Z</time>
      </trkpt>
      <trkpt lat="44.82122" lon="4.43313">
        <ele>680</ele>
        <time>2014-11-13T10:03:15Z</time>
      </trkpt>
      <trkpt lat="44.82121" lon="4.43316">
        <ele>680</ele>
        <time>2014-11-13T10:03:20Z</time>
      </trkpt>
      <trkpt lat="44.8212" lon="4.43319">
        <ele>680</ele>
        <time>2014-11-13T10:03:25Z</time>
      </trkpt>
      <trkpt lat="44.82119" lon="4.4332">
        <ele>679</ele>
        <time>2014-11-13T10:03:30Z</time>
      </trkpt>
      <trkpt lat="44.82119" lon="4.43322">
        <ele>679</ele>
        <time>2014-11-13T10:03:45Z</time>
      </trkpt>
      <trkpt lat="44.82118" lon="4.43332">
        <ele>679</ele>
        <time>2014-11-13T10:03:50Z</time>
      </trkpt>
      <trkpt lat="44.82117" lon="4.4334">
        <ele>679</ele>
        <time>2014-11-13T10:03:55Z</time>
      </trkpt>
      <trkpt lat="44.82116" lon="4.43345">
        <ele>679</ele>
        <time>2014-11-13T10:04:00Z</time>
      </trkpt>
      <trkpt lat="44.82114" lon="4.43349">
        <ele>678</ele>
        <time>2014-11-13T10:04:05Z</time>
      </trkpt>
      <trkpt lat="44.82114" lon="4.4335">
        <ele>678</ele>
        <time>2014-11-13T10:04:10Z</time>
      </trkpt>
      <trkpt lat="44.82115" lon="4.43351">
        <ele>678</ele>
        <time>2014-11-13T10:04:15Z</time>
      </trkpt>
      <trkpt lat="44.82112" lon="4.43351">
        <ele>678</ele>
        <time>2014-11-13T10:04:25Z</time>
      </trkpt>
      <trkpt lat="44.82105" lon="4.43348">
        <ele>678</ele>
        <time>2014-11-13T10:04:30Z</time>
      </trkpt>
      <trkpt lat="44.82101" lon="4.43346">
        <ele>679</ele>
        <time>2014-11-13T10:04:35Z</time>
      </trkpt>
      <trkpt lat="44.821" lon="4.43342">
        <ele>679</ele>
        <time>2014-11-13T10:04:40Z</time>
      </trkpt>
      <trkpt lat="44.82099" lon="4.43347">
        <ele>679</ele>
        <time>2014-11-13T10:04:45Z</time>
      </trkpt>
      <trkpt lat="44.82099" lon="4.43351">
        <ele>678</ele>
        <time>2014-11-13T10:04:50Z</time>
      </trkpt>
      <trkpt lat="44.821" lon="4.43357">
        <ele>678</ele>
        <time>2014-11-13T10:04:55Z</time>
      </trkpt>
      <trkpt lat="44.821" lon="4.43362">
        <ele>678</ele>
        <time>2014-11-13T10:05:00Z</time>
      </trkpt>
      <trkpt lat="44.82098" lon="4.43368">
        <ele>678</ele>
        <time>2014-11-13T10:05:05Z</time>
      </trkpt>
      <trkpt lat="44.82096" lon="4.43376">
        <ele>687</ele>
        <time>2014-11-13T10:05:10Z</time>
      </trkpt>
      <trkpt lat="44.82093" lon="4.43381">
        <ele>687</ele>
        <time>2014-11-13T10:05:15Z</time>
      </trkpt>
      <trkpt lat="44.82092" lon="4.43385">
        <ele>687</ele>
        <time>2014-11-13T10:05:20Z</time>
      </trkpt>
      <trkpt lat="44.8209" lon="4.43387">
        <ele>687</ele>
        <time>2014-11-13T10:05:25Z</time>
      </trkpt>
      <trkpt lat="44.82086" lon="4.43388">
        <ele>687</ele>
        <time>2014-11-13T10:05:30Z</time>
      </trkpt>
      <trkpt lat="44.82081" lon="4.43389">
        <ele>687</ele>
        <time>2014-11-13T10:05:35Z</time>
      </trkpt>
      <trkpt lat="44.82078" lon="4.43391">
        <ele>687</ele>
        <time>2014-11-13T10:05:40Z</time>
      </trkpt>
      <trkpt lat="44.82078" lon="4.43395">
        <ele>687</ele>
        <time>2014-11-13T10:05:45Z</time>
      </trkpt>
      <trkpt lat="44.82079" lon="4.43396">
        <ele>687</ele>
        <time>2014-11-13T10:05:50Z</time>
      </trkpt>
      <trkpt lat="44.82081" lon="4.43399">
        <ele>687</ele>
        <time>2014-11-13T10:05:55Z</time>
      </trkpt>
      <trkpt lat="44.82082" lon="4.43404">
        <ele>686</ele>
        <time>2014-11-13T10:06:00Z</time>
      </trkpt>
      <trkpt lat="44.82084" lon="4.43411">
        <ele>686</ele>
        <time>2014-11-13T10:06:05Z</time>
      </trkpt>
      <trkpt lat="44.82087" lon="4.43417">
        <ele>686</ele>
        <time>2014-11-13T10:06:10Z</time>
      </trkpt>
      <trkpt lat="44.82087" lon="4.43424">
        <ele>686</ele>
        <time>2014-11-13T10:06:15Z</time>
      </trkpt>
      <trkpt lat="44.82087" lon="4.43428">
        <ele>686</ele>
        <time>2014-11-13T10:06:20Z</time>
      </trkpt>
      <trkpt lat="44.82084" lon="4.43432">
        <ele>684</ele>
        <time>2014-11-13T10:06:25Z</time>
      </trkpt>
      <trkpt lat="44.8208" lon="4.43435">
        <ele>684</ele>
        <time>2014-11-13T10:06:30Z</time>
      </trkpt>
      <trkpt lat="44.82075" lon="4.43436">
        <ele>684</ele>
        <time>2014-11-13T10:06:35Z</time>
      </trkpt>
      <trkpt lat="44.8207" lon="4.43437">
        <ele>684</ele>
        <time>2014-11-13T10:06:40Z</time>
      </trkpt>
      <trkpt lat="44.82065" lon="4.43439">
        <ele>691</ele>
        <time>2014-11-13T10:06:45Z</time>
      </trkpt>
      <trkpt lat="44.8206" lon="4.4344">
        <ele>691</ele>
        <time>2014-11-13T10:06:50Z</time>
      </trkpt>
      <trkpt lat="44.82055" lon="4.43441">
        <ele>691</ele>
        <time>2014-11-13T10:06:55Z</time>
      </trkpt>
      <trkpt lat="44.82049" lon="4.43441">
        <ele>691</ele>
        <time>2014-11-13T10:07:00Z</time>
      </trkpt>
      <trkpt lat="44.82045" lon="4.4344">
        <ele>691</ele>
        <time>2014-11-13T10:07:05Z</time>
      </trkpt>
      <trkpt lat="44.82041" lon="4.4344">
        <ele>699</ele>
        <time>2014-11-13T10:07:10Z</time>
      </trkpt>
      <trkpt lat="44.82036" lon="4.43441">
        <ele>699</ele>
        <time>2014-11-13T10:07:15Z</time>
      </trkpt>
      <trkpt lat="44.82035" lon="4.43443">
        <ele>699</ele>
        <time>2014-11-13T10:07:20Z</time>
      </trkpt>
      <trkpt lat="44.82035" lon="4.43447">
        <ele>699</ele>
        <time>2014-11-13T10:07:25Z</time>
      </trkpt>
      <trkpt lat="44.82035" lon="4.43451">
        <ele>699</ele>
        <time>2014-11-13T10:07:30Z</time>
      </trkpt>
      <trkpt lat="44.82033" lon="4.43455">
        <ele>699</ele>
        <time>2014-11-13T10:07:35Z</time>
      </trkpt>
      <trkpt lat="44.82032" lon="4.4346">
        <ele>698</ele>
        <time>2014-11-13T10:07:40Z</time>
      </trkpt>
      <trkpt lat="44.82031" lon="4.43463">
        <ele>698</ele>
        <time>2014-11-13T10:07:45Z</time>
      </trkpt>
      <trkpt lat="44.82028" lon="4.43466">
        <ele>698</ele>
        <time>2014-11-13T10:07:50Z</time>
      </trkpt>
      <trkpt lat="44.82025" lon="4.43469">
        <ele>698</ele>
        <time>2014-11-13T10:07:55Z</time>
      </trkpt>
      <trkpt lat="44.82023" lon="4.43472">
        <ele>698</ele>
        <time>2014-11-13T10:08:00Z</time>
      </trkpt>
      <trkpt lat="44.82023" lon="4.43476">
        <ele>698</ele>
        <time>2014-11-13T10:08:05Z</time>
      </trkpt>
      <trkpt lat="44.82022" lon="4.43481">
        <ele>698</ele>
        <time>2014-11-13T10:08:10Z</time>
      </trkpt>
      <trkpt lat="44.82018" lon="4.43486">
        <ele>698</ele>
        <time>2014-11-13T10:08:15Z</time>
      </trkpt>
      <trkpt lat="44.82015" lon="4.43488">
        <ele>699</ele>
        <time>2014-11-13T10:08:20Z</time>
      </trkpt>
      <trkpt lat="44.82013" lon="4.43492">
        <ele>706</ele>
        <time>2014-11-13T10:08:25Z</time>
      </trkpt>
      <trkpt lat="44.82012" lon="4.43495">
        <ele>706</ele>
        <time>2014-11-13T10:08:30Z</time>
      </trkpt>
      <trkpt lat="44.82009" lon="4.43496">
        <ele>706</ele>
        <time>2014-11-13T10:08:35Z</time>
      </trkpt>
      <trkpt lat="44.82006" lon="4.43497">
        <ele>706</ele>
        <time>2014-11-13T10:08:40Z</time>
      </trkpt>
      <trkpt lat="44.82001" lon="4.43497">
        <ele>706</ele>
        <time>2014-11-13T10:08:45Z</time>
      </trkpt>
      <trkpt lat="44.81996" lon="4.43496">
        <ele>706</ele>
        <time>2014-11-13T10:08:50Z</time>
      </trkpt>
      <trkpt lat="44.81992" lon="4.43497">
        <ele>706</ele>
        <time>2014-11-13T10:08:55Z</time>
      </trkpt>
      <trkpt lat="44.81989" lon="4.43498">
        <ele>706</ele>
        <time>2014-11-13T10:09:00Z</time>
      </trkpt>
      <trkpt lat="44.81986" lon="4.435">
        <ele>714</ele>
        <time>2014-11-13T10:09:05Z</time>
      </trkpt>
      <trkpt lat="44.81983" lon="4.43502">
        <ele>714</ele>
        <time>2014-11-13T10:09:10Z</time>
      </trkpt>
      <trkpt lat="44.81981" lon="4.43506">
        <ele>714</ele>
        <time>2014-11-13T10:09:15Z</time>
      </trkpt>
      <trkpt lat="44.81979" lon="4.4351">
        <ele>714</ele>
        <time>2014-11-13T10:09:20Z</time>
      </trkpt>
      <trkpt lat="44.81976" lon="4.43513">
        <ele>714</ele>
        <time>2014-11-13T10:09:25Z</time>
      </trkpt>
      <trkpt lat="44.81972" lon="4.43516">
        <ele>708</ele>
        <time>2014-11-13T10:09:30Z</time>
      </trkpt>
      <trkpt lat="44.81969" lon="4.43517">
        <ele>708</ele>
        <time>2014-11-13T10:09:35Z</time>
      </trkpt>
      <trkpt lat="44.81966" lon="4.43519">
        <ele>708</ele>
        <time>2014-11-13T10:09:40Z</time>
      </trkpt>
      <trkpt lat="44.81963" lon="4.43521">
        <ele>708</ele>
        <time>2014-11-13T10:09:45Z</time>
      </trkpt>
      <trkpt lat="44.81959" lon="4.43524">
        <ele>708</ele>
        <time>2014-11-13T10:09:50Z</time>
      </trkpt>
      <trkpt lat="44.81956" lon="4.43522">
        <ele>718</ele>
        <time>2014-11-13T10:09:55Z</time>
      </trkpt>
      <trkpt lat="44.81953" lon="4.4352">
        <ele>718</ele>
        <time>2014-11-13T10:10:00Z</time>
      </trkpt>
      <trkpt lat="44.81952" lon="4.43519">
        <ele>718</ele>
        <time>2014-11-13T10:10:05Z</time>
      </trkpt>
      <trkpt lat="44.81951" lon="4.43519">
        <ele>718</ele>
        <time>2014-11-13T10:10:10Z</time>
      </trkpt>
      <trkpt lat="44.81952" lon="4.43519">
        <ele>718</ele>
        <time>2014-11-13T10:10:15Z</time>
      </trkpt>
      <trkpt lat="44.81953" lon="4.43518">
        <ele>718</ele>
        <time>2014-11-13T10:10:25Z</time>
      </trkpt>
      <trkpt lat="44.81954" lon="4.43519">
        <ele>718</ele>
        <time>2014-11-13T10:10:30Z</time>
      </trkpt>
      <trkpt lat="44.81954" lon="4.43521">
        <ele>718</ele>
        <time>2014-11-13T10:10:35Z</time>
      </trkpt>
      <trkpt lat="44.81953" lon="4.43526">
        <ele>718</ele>
        <time>2014-11-13T10:10:40Z</time>
      </trkpt>
      <trkpt lat="44.8195" lon="4.4353">
        <ele>718</ele>
        <time>2014-11-13T10:10:45Z</time>
      </trkpt>
      <trkpt lat="44.81946" lon="4.43535">
        <ele>718</ele>
        <time>2014-11-13T10:10:50Z</time>
      </trkpt>
      <trkpt lat="44.81943" lon="4.43541">
        <ele>718</ele>
        <time>2014-11-13T10:10:55Z</time>
      </trkpt>
      <trkpt lat="44.81937" lon="4.43547">
        <ele>710</ele>
        <time>2014-11-13T10:11:00Z</time>
      </trkpt>
      <trkpt lat="44.81933" lon="4.43553">
        <ele>710</ele>
        <time>2014-11-13T10:11:05Z</time>
      </trkpt>
      <trkpt lat="44.81929" lon="4.43557">
        <ele>721</ele>
        <time>2014-11-13T10:11:10Z</time>
      </trkpt>
      <trkpt lat="44.81927" lon="4.43563">
        <ele>721</ele>
        <time>2014-11-13T10:11:15Z</time>
      </trkpt>
      <trkpt lat="44.81924" lon="4.43569">
        <ele>721</ele>
        <time>2014-11-13T10:11:20Z</time>
      </trkpt>
      <trkpt lat="44.81923" lon="4.43577">
        <ele>719</ele>
        <time>2014-11-13T10:11:25Z</time>
      </trkpt>
      <trkpt lat="44.81922" lon="4.43584">
        <ele>719</ele>
        <time>2014-11-13T10:11:30Z</time>
      </trkpt>
      <trkpt lat="44.81923" lon="4.43591">
        <ele>719</ele>
        <time>2014-11-13T10:11:35Z</time>
      </trkpt>
      <trkpt lat="44.81923" lon="4.43598">
        <ele>720</ele>
        <time>2014-11-13T10:11:40Z</time>
      </trkpt>
      <trkpt lat="44.81924" lon="4.43605">
        <ele>720</ele>
        <time>2014-11-13T10:11:45Z</time>
      </trkpt>
      <trkpt lat="44.81927" lon="4.43613">
        <ele>720</ele>
        <time>2014-11-13T10:11:50Z</time>
      </trkpt>
      <trkpt lat="44.81929" lon="4.43619">
        <ele>720</ele>
        <time>2014-11-13T10:11:55Z</time>
      </trkpt>
      <trkpt lat="44.8193" lon="4.43629">
        <ele>720</ele>
        <time>2014-11-13T10:12:00Z</time>
      </trkpt>
      <trkpt lat="44.81932" lon="4.43636">
        <ele>711</ele>
        <time>2014-11-13T10:12:05Z</time>
      </trkpt>
      <trkpt lat="44.81933" lon="4.43643">
        <ele>711</ele>
        <time>2014-11-13T10:12:10Z</time>
      </trkpt>
      <trkpt lat="44.81934" lon="4.43651">
        <ele>711</ele>
        <time>2014-11-13T10:12:15Z</time>
      </trkpt>
      <trkpt lat="44.81937" lon="4.43659">
        <ele>712</ele>
        <time>2014-11-13T10:12:20Z</time>
      </trkpt>
      <trkpt lat="44.81941" lon="4.43666">
        <ele>712</ele>
        <time>2014-11-13T10:12:25Z</time>
      </trkpt>
      <trkpt lat="44.81943" lon="4.43673">
        <ele>712</ele>
        <time>2014-11-13T10:12:30Z</time>
      </trkpt>
      <trkpt lat="44.81945" lon="4.43682">
        <ele>715</ele>
        <time>2014-11-13T10:12:35Z</time>
      </trkpt>
      <trkpt lat="44.81948" lon="4.43688">
        <ele>715</ele>
        <time>2014-11-13T10:12:40Z</time>
      </trkpt>
      <trkpt lat="44.8195" lon="4.43697">
        <ele>715</ele>
        <time>2014-11-13T10:12:45Z</time>
      </trkpt>
      <trkpt lat="44.81952" lon="4.43706">
        <ele>715</ele>
        <time>2014-11-13T10:12:50Z</time>
      </trkpt>
      <trkpt lat="44.81955" lon="4.43713">
        <ele>717</ele>
        <time>2014-11-13T10:12:55Z</time>
      </trkpt>
      <trkpt lat="44.81959" lon="4.43721">
        <ele>713</ele>
        <time>2014-11-13T10:13:00Z</time>
      </trkpt>
      <trkpt lat="44.81963" lon="4.43732">
        <ele>713</ele>
        <time>2014-11-13T10:13:05Z</time>
      </trkpt>
      <trkpt lat="44.81965" lon="4.43739">
        <ele>714</ele>
        <time>2014-11-13T10:13:10Z</time>
      </trkpt>
      <trkpt lat="44.81965" lon="4.43748">
        <ele>714</ele>
        <time>2014-11-13T10:13:15Z</time>
      </trkpt>
      <trkpt lat="44.81965" lon="4.43757">
        <ele>714</ele>
        <time>2014-11-13T10:13:20Z</time>
      </trkpt>
      <trkpt lat="44.81964" lon="4.43765">
        <ele>715</ele>
        <time>2014-11-13T10:13:25Z</time>
      </trkpt>
      <trkpt lat="44.81959" lon="4.43767">
        <ele>715</ele>
        <time>2014-11-13T10:13:30Z</time>
      </trkpt>
      <trkpt lat="44.81956" lon="4.43764">
        <ele>717</ele>
        <time>2014-11-13T10:13:35Z</time>
      </trkpt>
      <trkpt lat="44.81954" lon="4.43762">
        <ele>718</ele>
        <time>2014-11-13T10:13:40Z</time>
      </trkpt>
      <trkpt lat="44.8195" lon="4.43758">
        <ele>718</ele>
        <time>2014-11-13T10:13:45Z</time>
      </trkpt>
      <trkpt lat="44.81945" lon="4.43754">
        <ele>718</ele>
        <time>2014-11-13T10:13:50Z</time>
      </trkpt>
      <trkpt lat="44.81942" lon="4.4375">
        <ele>718</ele>
        <time>2014-11-13T10:13:55Z</time>
      </trkpt>
      <trkpt lat="44.81938" lon="4.43745">
        <ele>718</ele>
        <time>2014-11-13T10:14:00Z</time>
      </trkpt>
      <trkpt lat="44.81935" lon="4.43744">
        <ele>718</ele>
        <time>2014-11-13T10:14:05Z</time>
      </trkpt>
      <trkpt lat="44.81932" lon="4.43743">
        <ele>718</ele>
        <time>2014-11-13T10:14:10Z</time>
      </trkpt>
      <trkpt lat="44.8193" lon="4.43742">
        <ele>724</ele>
        <time>2014-11-13T10:14:15Z</time>
      </trkpt>
      <trkpt lat="44.81926" lon="4.4374">
        <ele>724</ele>
        <time>2014-11-13T10:14:20Z</time>
      </trkpt>
      <trkpt lat="44.81924" lon="4.43736">
        <ele>724</ele>
        <time>2014-11-13T10:14:25Z</time>
      </trkpt>
      <trkpt lat="44.81921" lon="4.43735">
        <ele>723</ele>
        <time>2014-11-13T10:14:30Z</time>
      </trkpt>
      <trkpt lat="44.81917" lon="4.43732">
        <ele>723</ele>
        <time>2014-11-13T10:14:35Z</time>
      </trkpt>
      <trkpt lat="44.81914" lon="4.43728">
        <ele>723</ele>
        <time>2014-11-13T10:14:40Z</time>
      </trkpt>
      <trkpt lat="44.81911" lon="4.43726">
        <ele>723</ele>
        <time>2014-11-13T10:14:45Z</time>
      </trkpt>
      <trkpt lat="44.81908" lon="4.43723">
        <ele>723</ele>
        <time>2014-11-13T10:14:50Z</time>
      </trkpt>
      <trkpt lat="44.81905" lon="4.43721">
        <ele>723</ele>
        <time>2014-11-13T10:14:55Z</time>
      </trkpt>
      <trkpt lat="44.81903" lon="4.43718">
        <ele>723</ele>
        <time>2014-11-13T10:15:00Z</time>
      </trkpt>
      <trkpt lat="44.819" lon="4.43715">
        <ele>731</ele>
        <time>2014-11-13T10:15:05Z</time>
      </trkpt>
      <trkpt lat="44.81896" lon="4.43712">
        <ele>731</ele>
        <time>2014-11-13T10:15:10Z</time>
      </trkpt>
      <trkpt lat="44.81892" lon="4.43707">
        <ele>732</ele>
        <time>2014-11-13T10:15:15Z</time>
      </trkpt>
      <trkpt lat="44.81887" lon="4.43704">
        <ele>732</ele>
        <time>2014-11-13T10:15:20Z</time>
      </trkpt>
      <trkpt lat="44.81885" lon="4.43701">
        <ele>732</ele>
        <time>2014-11-13T10:15:25Z</time>
      </trkpt>
      <trkpt lat="44.81882" lon="4.43699">
        <ele>732</ele>
        <time>2014-11-13T10:15:30Z</time>
      </trkpt>
      <trkpt lat="44.81879" lon="4.43698">
        <ele>732</ele>
        <time>2014-11-13T10:15:35Z</time>
      </trkpt>
      <trkpt lat="44.81876" lon="4.43695">
        <ele>732</ele>
        <time>2014-11-13T10:15:40Z</time>
      </trkpt>
      <trkpt lat="44.81873" lon="4.43693">
        <ele>740</ele>
        <time>2014-11-13T10:15:45Z</time>
      </trkpt>
      <trkpt lat="44.8187" lon="4.43691">
        <ele>740</ele>
        <time>2014-11-13T10:15:50Z</time>
      </trkpt>
      <trkpt lat="44.81867" lon="4.43689">
        <ele>740</ele>
        <time>2014-11-13T10:15:55Z</time>
      </trkpt>
      <trkpt lat="44.81865" lon="4.43686">
        <ele>740</ele>
        <time>2014-11-13T10:16:00Z</time>
      </trkpt>
      <trkpt lat="44.81863" lon="4.43682">
        <ele>740</ele>
        <time>2014-11-13T10:16:05Z</time>
      </trkpt>
      <trkpt lat="44.8186" lon="4.43678">
        <ele>742</ele>
        <time>2014-11-13T10:16:10Z</time>
      </trkpt>
      <trkpt lat="44.81856" lon="4.43674">
        <ele>742</ele>
        <time>2014-11-13T10:16:15Z</time>
      </trkpt>
      <trkpt lat="44.81855" lon="4.43672">
        <ele>742</ele>
        <time>2014-11-13T10:16:20Z</time>
      </trkpt>
      <trkpt lat="44.81852" lon="4.4367">
        <ele>742</ele>
        <time>2014-11-13T10:16:25Z</time>
      </trkpt>
      <trkpt lat="44.8185" lon="4.43669">
        <ele>742</ele>
        <time>2014-11-13T10:16:30Z</time>
      </trkpt>
      <trkpt lat="44.81846" lon="4.43668">
        <ele>749</ele>
        <time>2014-11-13T10:16:35Z</time>
      </trkpt>
      <trkpt lat="44.81842" lon="4.43667">
        <ele>749</ele>
        <time>2014-11-13T10:16:40Z</time>
      </trkpt>
      <trkpt lat="44.81839" lon="4.43665">
        <ele>749</ele>
        <time>2014-11-13T10:16:45Z</time>
      </trkpt>
      <trkpt lat="44.81837" lon="4.43668">
        <ele>749</ele>
        <time>2014-11-13T10:16:50Z</time>
      </trkpt>
      <trkpt lat="44.81836" lon="4.4367">
        <ele>749</ele>
        <time>2014-11-13T10:16:55Z</time>
      </trkpt>
      <trkpt lat="44.81833" lon="4.43673">
        <ele>749</ele>
        <time>2014-11-13T10:17:05Z</time>
      </trkpt>
      <trkpt lat="44.81824" lon="4.4368">
        <ele>749</ele>
        <time>2014-11-13T10:17:10Z</time>
      </trkpt>
      <trkpt lat="44.81821" lon="4.43683">
        <ele>747</ele>
        <time>2014-11-13T10:17:15Z</time>
      </trkpt>
      <trkpt lat="44.81817" lon="4.43685">
        <ele>753</ele>
        <time>2014-11-13T10:17:20Z</time>
      </trkpt>
      <trkpt lat="44.81814" lon="4.43685">
        <ele>753</ele>
        <time>2014-11-13T10:17:25Z</time>
      </trkpt>
      <trkpt lat="44.81812" lon="4.43686">
        <ele>753</ele>
        <time>2014-11-13T10:17:30Z</time>
      </trkpt>
      <trkpt lat="44.8181" lon="4.43688">
        <ele>753</ele>
        <time>2014-11-13T10:17:35Z</time>
      </trkpt>
      <trkpt lat="44.8181" lon="4.43686">
        <ele>753</ele>
        <time>2014-11-13T10:17:40Z</time>
      </trkpt>
      <trkpt lat="44.81813" lon="4.43681">
        <ele>753</ele>
        <time>2014-11-13T10:17:45Z</time>
      </trkpt>
      <trkpt lat="44.81814" lon="4.43681">
        <ele>753</ele>
        <time>2014-11-13T10:17:50Z</time>
      </trkpt>
      <trkpt lat="44.81816" lon="4.43682">
        <ele>753</ele>
        <time>2014-11-13T10:17:55Z</time>
      </trkpt>
      <trkpt lat="44.81815" lon="4.43683">
        <ele>753</ele>
        <time>2014-11-13T10:18:00Z</time>
      </trkpt>
      <trkpt lat="44.81816" lon="4.43685">
        <ele>753</ele>
        <time>2014-11-13T10:18:05Z</time>
      </trkpt>
      <trkpt lat="44.81814" lon="4.43687">
        <ele>753</ele>
        <time>2014-11-13T10:18:10Z</time>
      </trkpt>
      <trkpt lat="44.8181" lon="4.43688">
        <ele>753</ele>
        <time>2014-11-13T10:18:15Z</time>
      </trkpt>
      <trkpt lat="44.81803" lon="4.43688">
        <ele>753</ele>
        <time>2014-11-13T10:18:20Z</time>
      </trkpt>
      <trkpt lat="44.81799" lon="4.4369">
        <ele>753</ele>
        <time>2014-11-13T10:18:25Z</time>
      </trkpt>
      <trkpt lat="44.81795" lon="4.43692">
        <ele>753</ele>
        <time>2014-11-13T10:18:30Z</time>
      </trkpt>
      <trkpt lat="44.81793" lon="4.43695">
        <ele>753</ele>
        <time>2014-11-13T10:18:35Z</time>
      </trkpt>
      <trkpt lat="44.81791" lon="4.43693">
        <ele>758</ele>
        <time>2014-11-13T10:18:40Z</time>
      </trkpt>
      <trkpt lat="44.81786" lon="4.43691">
        <ele>758</ele>
        <time>2014-11-13T10:18:45Z</time>
      </trkpt>
      <trkpt lat="44.81783" lon="4.4369">
        <ele>758</ele>
        <time>2014-11-13T10:18:50Z</time>
      </trkpt>
      <trkpt lat="44.81778" lon="4.43689">
        <ele>758</ele>
        <time>2014-11-13T10:18:55Z</time>
      </trkpt>
      <trkpt lat="44.81774" lon="4.43691">
        <ele>758</ele>
        <time>2014-11-13T10:19:00Z</time>
      </trkpt>
      <trkpt lat="44.81772" lon="4.43694">
        <ele>758</ele>
        <time>2014-11-13T10:19:05Z</time>
      </trkpt>
      <trkpt lat="44.81767" lon="4.43695">
        <ele>758</ele>
        <time>2014-11-13T10:19:10Z</time>
      </trkpt>
      <trkpt lat="44.81763" lon="4.43694">
        <ele>763</ele>
        <time>2014-11-13T10:19:15Z</time>
      </trkpt>
      <trkpt lat="44.81762" lon="4.43693">
        <ele>763</ele>
        <time>2014-11-13T10:19:20Z</time>
      </trkpt>
      <trkpt lat="44.81759" lon="4.43691">
        <ele>763</ele>
        <time>2014-11-13T10:19:25Z</time>
      </trkpt>
      <trkpt lat="44.81756" lon="4.43688">
        <ele>763</ele>
        <time>2014-11-13T10:19:30Z</time>
      </trkpt>
      <trkpt lat="44.81752" lon="4.43686">
        <ele>763</ele>
        <time>2014-11-13T10:19:35Z</time>
      </trkpt>
      <trkpt lat="44.81749" lon="4.43684">
        <ele>763</ele>
        <time>2014-11-13T10:19:40Z</time>
      </trkpt>
      <trkpt lat="44.81747" lon="4.43682">
        <ele>763</ele>
        <time>2014-11-13T10:19:45Z</time>
      </trkpt>
      <trkpt lat="44.81744" lon="4.43681">
        <ele>764</ele>
        <time>2014-11-13T10:19:50Z</time>
      </trkpt>
      <trkpt lat="44.81743" lon="4.4368">
        <ele>764</ele>
        <time>2014-11-13T10:19:55Z</time>
      </trkpt>
      <trkpt lat="44.81743" lon="4.43679">
        <ele>764</ele>
        <time>2014-11-13T10:20:05Z</time>
      </trkpt>
      <trkpt lat="44.81742" lon="4.43677">
        <ele>764</ele>
        <time>2014-11-13T10:20:10Z</time>
      </trkpt>
      <trkpt lat="44.81742" lon="4.43676">
        <ele>764</ele>
        <time>2014-11-13T10:20:15Z</time>
      </trkpt>
      <trkpt lat="44.81741" lon="4.43677">
        <ele>764</ele>
        <time>2014-11-13T10:20:25Z</time>
      </trkpt>
      <trkpt lat="44.81741" lon="4.43679">
        <ele>764</ele>
        <time>2014-11-13T10:20:30Z</time>
      </trkpt>
      <trkpt lat="44.81741" lon="4.43681">
        <ele>763</ele>
        <time>2014-11-13T10:20:40Z</time>
      </trkpt>
      <trkpt lat="44.8174" lon="4.43682">
        <ele>763</ele>
        <time>2014-11-13T10:20:45Z</time>
      </trkpt>
      <trkpt lat="44.81741" lon="4.43679">
        <ele>764</ele>
        <time>2014-11-13T10:20:55Z</time>
      </trkpt>
      <trkpt lat="44.81743" lon="4.43676">
        <ele>764</ele>
        <time>2014-11-13T10:21:00Z</time>
      </trkpt>
      <trkpt lat="44.81743" lon="4.43675">
        <ele>764</ele>
        <time>2014-11-13T10:21:05Z</time>
      </trkpt>
      <trkpt lat="44.81743" lon="4.4368">
        <ele>764</ele>
        <time>2014-11-13T10:21:10Z</time>
      </trkpt>
      <trkpt lat="44.81746" lon="4.43683">
        <ele>763</ele>
        <time>2014-11-13T10:21:15Z</time>
      </trkpt>
      <trkpt lat="44.81747" lon="4.43682">
        <ele>763</ele>
        <time>2014-11-13T10:21:25Z</time>
      </trkpt>
      <trkpt lat="44.81748" lon="4.43682">
        <ele>763</ele>
        <time>2014-11-13T10:21:30Z</time>
      </trkpt>
      <trkpt lat="44.81747" lon="4.43681">
        <ele>763</ele>
        <time>2014-11-13T10:21:35Z</time>
      </trkpt>
      <trkpt lat="44.81746" lon="4.4368">
        <ele>764</ele>
        <time>2014-11-13T10:21:40Z</time>
      </trkpt>
      <trkpt lat="44.81744" lon="4.43679">
        <ele>764</ele>
        <time>2014-11-13T10:21:45Z</time>
      </trkpt>
      <trkpt lat="44.81743" lon="4.43679">
        <ele>764</ele>
        <time>2014-11-13T10:21:50Z</time>
      </trkpt>
      <trkpt lat="44.81743" lon="4.43681">
        <ele>763</ele>
        <time>2014-11-13T10:21:55Z</time>
      </trkpt>
      <trkpt lat="44.81741" lon="4.43681">
        <ele>763</ele>
        <time>2014-11-13T10:22:00Z</time>
      </trkpt>
      <trkpt lat="44.81738" lon="4.43683">
        <ele>763</ele>
        <time>2014-11-13T10:22:05Z</time>
      </trkpt>
      <trkpt lat="44.81737" lon="4.43685">
        <ele>763</ele>
        <time>2014-11-13T10:22:10Z</time>
      </trkpt>
      <trkpt lat="44.81735" lon="4.43688">
        <ele>771</ele>
        <time>2014-11-13T10:22:15Z</time>
      </trkpt>
      <trkpt lat="44.81733" lon="4.4369">
        <ele>771</ele>
        <time>2014-11-13T10:22:20Z</time>
      </trkpt>
      <trkpt lat="44.81733" lon="4.43691">
        <ele>771</ele>
        <time>2014-11-13T10:22:25Z</time>
      </trkpt>
      <trkpt lat="44.81733" lon="4.43693">
        <ele>771</ele>
        <time>2014-11-13T10:22:30Z</time>
      </trkpt>
      <trkpt lat="44.81733" lon="4.43695">
        <ele>771</ele>
        <time>2014-11-13T10:22:35Z</time>
      </trkpt>
      <trkpt lat="44.81731" lon="4.43695">
        <ele>771</ele>
        <time>2014-11-13T10:22:40Z</time>
      </trkpt>
      <trkpt lat="44.8173" lon="4.43698">
        <ele>771</ele>
        <time>2014-11-13T10:22:45Z</time>
      </trkpt>
      <trkpt lat="44.81729" lon="4.43699">
        <ele>771</ele>
        <time>2014-11-13T10:22:50Z</time>
      </trkpt>
      <trkpt lat="44.81729" lon="4.43702">
        <ele>771</ele>
        <time>2014-11-13T10:22:55Z</time>
      </trkpt>
      <trkpt lat="44.81732" lon="4.43704">
        <ele>771</ele>
        <time>2014-11-13T10:23:00Z</time>
      </trkpt>
      <trkpt lat="44.81734" lon="4.43706">
        <ele>771</ele>
        <time>2014-11-13T10:23:05Z</time>
      </trkpt>
      <trkpt lat="44.81736" lon="4.43707">
        <ele>771</ele>
        <time>2014-11-13T10:23:10Z</time>
      </trkpt>
      <trkpt lat="44.81733" lon="4.43703">
        <ele>771</ele>
        <time>2014-11-13T10:23:15Z</time>
      </trkpt>
      <trkpt lat="44.81731" lon="4.43702">
        <ele>771</ele>
        <time>2014-11-13T10:23:20Z</time>
      </trkpt>
      <trkpt lat="44.81732" lon="4.43706">
        <ele>771</ele>
        <time>2014-11-13T10:23:25Z</time>
      </trkpt>
      <trkpt lat="44.81734" lon="4.4371">
        <ele>773</ele>
        <time>2014-11-13T10:23:30Z</time>
      </trkpt>
      <trkpt lat="44.81736" lon="4.43713">
        <ele>773</ele>
        <time>2014-11-13T10:23:35Z</time>
      </trkpt>
      <trkpt lat="44.81737" lon="4.43719">
        <ele>762</ele>
        <time>2014-11-13T10:23:40Z</time>
      </trkpt>
      <trkpt lat="44.8174" lon="4.43728">
        <ele>762</ele>
        <time>2014-11-13T10:23:45Z</time>
      </trkpt>
      <trkpt lat="44.81741" lon="4.43734">
        <ele>762</ele>
        <time>2014-11-13T10:23:50Z</time>
      </trkpt>
      <trkpt lat="44.81741" lon="4.43736">
        <ele>762</ele>
        <time>2014-11-13T10:23:55Z</time>
      </trkpt>
      <trkpt lat="44.8174" lon="4.43737">
        <ele>764</ele>
        <time>2014-11-13T10:24:00Z</time>
      </trkpt>
      <trkpt lat="44.81738" lon="4.43737">
        <ele>764</ele>
        <time>2014-11-13T10:24:05Z</time>
      </trkpt>
      <trkpt lat="44.81738" lon="4.43738">
        <ele>764</ele>
        <time>2014-11-13T10:24:15Z</time>
      </trkpt>
      <trkpt lat="44.81736" lon="4.43739">
        <ele>775</ele>
        <time>2014-11-13T10:24:20Z</time>
      </trkpt>
      <trkpt lat="44.81734" lon="4.43738">
        <ele>775</ele>
        <time>2014-11-13T10:24:25Z</time>
      </trkpt>
      <trkpt lat="44.81733" lon="4.43738">
        <ele>775</ele>
        <time>2014-11-13T10:24:30Z</time>
      </trkpt>
      <trkpt lat="44.81732" lon="4.43737">
        <ele>775</ele>
        <time>2014-11-13T10:24:35Z</time>
      </trkpt>
      <trkpt lat="44.81729" lon="4.43738">
        <ele>775</ele>
        <time>2014-11-13T10:24:40Z</time>
      </trkpt>
      <trkpt lat="44.81728" lon="4.43738">
        <ele>775</ele>
        <time>2014-11-13T10:24:45Z</time>
      </trkpt>
      <trkpt lat="44.8173" lon="4.43738">
        <ele>775</ele>
        <time>2014-11-13T10:24:55Z</time>
      </trkpt>
      <trkpt lat="44.81734" lon="4.43739">
        <ele>775</ele>
        <time>2014-11-13T10:25:00Z</time>
      </trkpt>
      <trkpt lat="44.81731" lon="4.43739">
        <ele>775</ele>
        <time>2014-11-13T10:25:10Z</time>
      </trkpt>
      <trkpt lat="44.81731" lon="4.4374">
        <ele>775</ele>
        <time>2014-11-13T10:25:15Z</time>
      </trkpt>
      <trkpt lat="44.81733" lon="4.43742">
        <ele>775</ele>
        <time>2014-11-13T10:25:20Z</time>
      </trkpt>
      <trkpt lat="44.81736" lon="4.43738">
        <ele>775</ele>
        <time>2014-11-13T10:25:25Z</time>
      </trkpt>
      <trkpt lat="44.81738" lon="4.43733">
        <ele>762</ele>
        <time>2014-11-13T10:25:30Z</time>
      </trkpt>
      <trkpt lat="44.81736" lon="4.43733">
        <ele>762</ele>
        <time>2014-11-13T10:25:35Z</time>
      </trkpt>
      <trkpt lat="44.81735" lon="4.43734">
        <ele>773</ele>
        <time>2014-11-13T10:25:40Z</time>
      </trkpt>
      <trkpt lat="44.81734" lon="4.43736">
        <ele>773</ele>
        <time>2014-11-13T10:25:45Z</time>
      </trkpt>
      <trkpt lat="44.81733" lon="4.43739">
        <ele>775</ele>
        <time>2014-11-13T10:25:50Z</time>
      </trkpt>
      <trkpt lat="44.81733" lon="4.43743">
        <ele>775</ele>
        <time>2014-11-13T10:25:55Z</time>
      </trkpt>
      <trkpt lat="44.81734" lon="4.43743">
        <ele>775</ele>
        <time>2014-11-13T10:26:00Z</time>
      </trkpt>
      <trkpt lat="44.81735" lon="4.43738">
        <ele>775</ele>
        <time>2014-11-13T10:26:05Z</time>
      </trkpt>
      <trkpt lat="44.81735" lon="4.43737">
        <ele>775</ele>
        <time>2014-11-13T10:26:10Z</time>
      </trkpt>
      <trkpt lat="44.81734" lon="4.43736">
        <ele>773</ele>
        <time>2014-11-13T10:26:45Z</time>
      </trkpt>
      <trkpt lat="44.81729" lon="4.43725">
        <ele>773</ele>
        <time>2014-11-13T10:26:50Z</time>
      </trkpt>
      <trkpt lat="44.81724" lon="4.43719">
        <ele>773</ele>
        <time>2014-11-13T10:26:55Z</time>
      </trkpt>
      <trkpt lat="44.81722" lon="4.43714">
        <ele>773</ele>
        <time>2014-11-13T10:27:00Z</time>
      </trkpt>
      <trkpt lat="44.81721" lon="4.4371">
        <ele>773</ele>
        <time>2014-11-13T10:27:05Z</time>
      </trkpt>
      <trkpt lat="44.81721" lon="4.43707">
        <ele>771</ele>
        <time>2014-11-13T10:27:10Z</time>
      </trkpt>
      <trkpt lat="44.8172" lon="4.43707">
        <ele>771</ele>
        <time>2014-11-13T10:27:15Z</time>
      </trkpt>
      <trkpt lat="44.81717" lon="4.43705">
        <ele>771</ele>
        <time>2014-11-13T10:27:20Z</time>
      </trkpt>
      <trkpt lat="44.81716" lon="4.43705">
        <ele>771</ele>
        <time>2014-11-13T10:27:25Z</time>
      </trkpt>
      <trkpt lat="44.81716" lon="4.43703">
        <ele>771</ele>
        <time>2014-11-13T10:27:30Z</time>
      </trkpt>
      <trkpt lat="44.81715" lon="4.43703">
        <ele>771</ele>
        <time>2014-11-13T10:27:35Z</time>
      </trkpt>
      <trkpt lat="44.81714" lon="4.43703">
        <ele>771</ele>
        <time>2014-11-13T10:27:40Z</time>
      </trkpt>
      <trkpt lat="44.81713" lon="4.43702">
        <ele>771</ele>
        <time>2014-11-13T10:27:45Z</time>
      </trkpt>
      <trkpt lat="44.81712" lon="4.43702">
        <ele>771</ele>
        <time>2014-11-13T10:27:55Z</time>
      </trkpt>
      <trkpt lat="44.81713" lon="4.43701">
        <ele>771</ele>
        <time>2014-11-13T10:28:00Z</time>
      </trkpt>
      <trkpt lat="44.81712" lon="4.437">
        <ele>771</ele>
        <time>2014-11-13T10:28:05Z</time>
      </trkpt>
      <trkpt lat="44.8171" lon="4.437">
        <ele>771</ele>
        <time>2014-11-13T10:28:10Z</time>
      </trkpt>
      <trkpt lat="44.8171" lon="4.43701">
        <ele>771</ele>
        <time>2014-11-13T10:28:15Z</time>
      </trkpt>
      <trkpt lat="44.81708" lon="4.43701">
        <ele>782</ele>
        <time>2014-11-13T10:28:20Z</time>
      </trkpt>
      <trkpt lat="44.81707" lon="4.43702">
        <ele>782</ele>
        <time>2014-11-13T10:28:25Z</time>
      </trkpt>
      <trkpt lat="44.81707" lon="4.43704">
        <ele>782</ele>
        <time>2014-11-13T10:28:35Z</time>
      </trkpt>
      <trkpt lat="44.81707" lon="4.43705">
        <ele>782</ele>
        <time>2014-11-13T10:28:40Z</time>
      </trkpt>
      <trkpt lat="44.81708" lon="4.43705">
        <ele>782</ele>
        <time>2014-11-13T10:28:45Z</time>
      </trkpt>
      <trkpt lat="44.81707" lon="4.43705">
        <ele>782</ele>
        <time>2014-11-13T10:28:50Z</time>
      </trkpt>
      <trkpt lat="44.81708" lon="4.43706">
        <ele>782</ele>
        <time>2014-11-13T10:28:55Z</time>
      </trkpt>
      <trkpt lat="44.81707" lon="4.43709">
        <ele>785</ele>
        <time>2014-11-13T10:29:00Z</time>
      </trkpt>
      <trkpt lat="44.81705" lon="4.43704">
        <ele>782</ele>
        <time>2014-11-13T10:29:10Z</time>
      </trkpt>
      <trkpt lat="44.81701" lon="4.43699">
        <ele>782</ele>
        <time>2014-11-13T10:29:15Z</time>
      </trkpt>
      <trkpt lat="44.81696" lon="4.43695">
        <ele>782</ele>
        <time>2014-11-13T10:29:20Z</time>
      </trkpt>
      <trkpt lat="44.81692" lon="4.43691">
        <ele>782</ele>
        <time>2014-11-13T10:29:25Z</time>
      </trkpt>
      <trkpt lat="44.8169" lon="4.43688">
        <ele>782</ele>
        <time>2014-11-13T10:29:30Z</time>
      </trkpt>
      <trkpt lat="44.81689" lon="4.43686">
        <ele>782</ele>
        <time>2014-11-13T10:29:35Z</time>
      </trkpt>
      <trkpt lat="44.81686" lon="4.43685">
        <ele>782</ele>
        <time>2014-11-13T10:29:40Z</time>
      </trkpt>
      <trkpt lat="44.81684" lon="4.43685">
        <ele>782</ele>
        <time>2014-11-13T10:29:45Z</time>
      </trkpt>
      <trkpt lat="44.81683" lon="4.43685">
        <ele>782</ele>
        <time>2014-11-13T10:29:50Z</time>
      </trkpt>
      <trkpt lat="44.81682" lon="4.43688">
        <ele>782</ele>
        <time>2014-11-13T10:29:55Z</time>
      </trkpt>
      <trkpt lat="44.81681" lon="4.4369">
        <ele>782</ele>
        <time>2014-11-13T10:30:00Z</time>
      </trkpt>
      <trkpt lat="44.81678" lon="4.43689">
        <ele>790</ele>
        <time>2014-11-13T10:30:05Z</time>
      </trkpt>
      <trkpt lat="44.81674" lon="4.43688">
        <ele>790</ele>
        <time>2014-11-13T10:30:10Z</time>
      </trkpt>
      <trkpt lat="44.81671" lon="4.43687">
        <ele>790</ele>
        <time>2014-11-13T10:30:15Z</time>
      </trkpt>
      <trkpt lat="44.81668" lon="4.43687">
        <ele>790</ele>
        <time>2014-11-13T10:30:20Z</time>
      </trkpt>
      <trkpt lat="44.81665" lon="4.43687">
        <ele>790</ele>
        <time>2014-11-13T10:30:25Z</time>
      </trkpt>
      <trkpt lat="44.81664" lon="4.43688">
        <ele>790</ele>
        <time>2014-11-13T10:30:30Z</time>
      </trkpt>
      <trkpt lat="44.81661" lon="4.43689">
        <ele>790</ele>
        <time>2014-11-13T10:30:50Z</time>
      </trkpt>
      <trkpt lat="44.81657" lon="4.43691">
        <ele>790</ele>
        <time>2014-11-13T10:30:55Z</time>
      </trkpt>
      <trkpt lat="44.81657" lon="4.43696">
        <ele>790</ele>
        <time>2014-11-13T10:31:15Z</time>
      </trkpt>
      <trkpt lat="44.81657" lon="4.43704">
        <ele>790</ele>
        <time>2014-11-13T10:31:20Z</time>
      </trkpt>
      <trkpt lat="44.81658" lon="4.4371">
        <ele>795</ele>
        <time>2014-11-13T10:31:25Z</time>
      </trkpt>
      <trkpt lat="44.81658" lon="4.43714">
        <ele>795</ele>
        <time>2014-11-13T10:31:30Z</time>
      </trkpt>
      <trkpt lat="44.8166" lon="4.43718">
        <ele>795</ele>
        <time>2014-11-13T10:31:35Z</time>
      </trkpt>
      <trkpt lat="44.81661" lon="4.43722">
        <ele>795</ele>
        <time>2014-11-13T10:31:40Z</time>
      </trkpt>
      <trkpt lat="44.81663" lon="4.43723">
        <ele>795</ele>
        <time>2014-11-13T10:31:45Z</time>
      </trkpt>
      <trkpt lat="44.81665" lon="4.43727">
        <ele>795</ele>
        <time>2014-11-13T10:31:50Z</time>
      </trkpt>
      <trkpt lat="44.81666" lon="4.43733">
        <ele>795</ele>
        <time>2014-11-13T10:31:55Z</time>
      </trkpt>
      <trkpt lat="44.81667" lon="4.43736">
        <ele>795</ele>
        <time>2014-11-13T10:32:00Z</time>
      </trkpt>
      <trkpt lat="44.81669" lon="4.4374">
        <ele>802</ele>
        <time>2014-11-13T10:32:05Z</time>
      </trkpt>
      <trkpt lat="44.81671" lon="4.43743">
        <ele>802</ele>
        <time>2014-11-13T10:32:10Z</time>
      </trkpt>
      <trkpt lat="44.81673" lon="4.43746">
        <ele>802</ele>
        <time>2014-11-13T10:32:15Z</time>
      </trkpt>
      <trkpt lat="44.81674" lon="4.43748">
        <ele>802</ele>
        <time>2014-11-13T10:32:20Z</time>
      </trkpt>
      <trkpt lat="44.81675" lon="4.43752">
        <ele>802</ele>
        <time>2014-11-13T10:32:25Z</time>
      </trkpt>
      <trkpt lat="44.81675" lon="4.43754">
        <ele>802</ele>
        <time>2014-11-13T10:32:30Z</time>
      </trkpt>
      <trkpt lat="44.81674" lon="4.43755">
        <ele>802</ele>
        <time>2014-11-13T10:32:35Z</time>
      </trkpt>
      <trkpt lat="44.81671" lon="4.43758">
        <ele>802</ele>
        <time>2014-11-13T10:32:40Z</time>
      </trkpt>
      <trkpt lat="44.81671" lon="4.43761">
        <ele>802</ele>
        <time>2014-11-13T10:32:45Z</time>
      </trkpt>
      <trkpt lat="44.8167" lon="4.43762">
        <ele>802</ele>
        <time>2014-11-13T10:32:50Z</time>
      </trkpt>
      <trkpt lat="44.81669" lon="4.43765">
        <ele>807</ele>
        <time>2014-11-13T10:32:55Z</time>
      </trkpt>
      <trkpt lat="44.81667" lon="4.43768">
        <ele>807</ele>
        <time>2014-11-13T10:33:00Z</time>
      </trkpt>
      <trkpt lat="44.81664" lon="4.43771">
        <ele>807</ele>
        <time>2014-11-13T10:33:05Z</time>
      </trkpt>
      <trkpt lat="44.81663" lon="4.43774">
        <ele>807</ele>
        <time>2014-11-13T10:33:10Z</time>
      </trkpt>
      <trkpt lat="44.81662" lon="4.43777">
        <ele>807</ele>
        <time>2014-11-13T10:33:15Z</time>
      </trkpt>
      <trkpt lat="44.8166" lon="4.4378">
        <ele>807</ele>
        <time>2014-11-13T10:33:20Z</time>
      </trkpt>
      <trkpt lat="44.8166" lon="4.43783">
        <ele>807</ele>
        <time>2014-11-13T10:33:25Z</time>
      </trkpt>
      <trkpt lat="44.8166" lon="4.43787">
        <ele>807</ele>
        <time>2014-11-13T10:33:30Z</time>
      </trkpt>
      <trkpt lat="44.8166" lon="4.43789">
        <ele>807</ele>
        <time>2014-11-13T10:33:35Z</time>
      </trkpt>
      <trkpt lat="44.81659" lon="4.43791">
        <ele>807</ele>
        <time>2014-11-13T10:33:40Z</time>
      </trkpt>
      <trkpt lat="44.81657" lon="4.43791">
        <ele>807</ele>
        <time>2014-11-13T10:33:45Z</time>
      </trkpt>
      <trkpt lat="44.81653" lon="4.43788">
        <ele>807</ele>
        <time>2014-11-13T10:33:50Z</time>
      </trkpt>
      <trkpt lat="44.8165" lon="4.43784">
        <ele>814</ele>
        <time>2014-11-13T10:33:55Z</time>
      </trkpt>
      <trkpt lat="44.81647" lon="4.43781">
        <ele>814</ele>
        <time>2014-11-13T10:34:00Z</time>
      </trkpt>
      <trkpt lat="44.81643" lon="4.43778">
        <ele>814</ele>
        <time>2014-11-13T10:34:05Z</time>
      </trkpt>
      <trkpt lat="44.81641" lon="4.43778">
        <ele>814</ele>
        <time>2014-11-13T10:34:10Z</time>
      </trkpt>
      <trkpt lat="44.8164" lon="4.4378">
        <ele>814</ele>
        <time>2014-11-13T10:34:15Z</time>
      </trkpt>
      <trkpt lat="44.81639" lon="4.43783">
        <ele>814</ele>
        <time>2014-11-13T10:34:20Z</time>
      </trkpt>
      <trkpt lat="44.81639" lon="4.43784">
        <ele>814</ele>
        <time>2014-11-13T10:34:25Z</time>
      </trkpt>
      <trkpt lat="44.81637" lon="4.43785">
        <ele>814</ele>
        <time>2014-11-13T10:34:30Z</time>
      </trkpt>
      <trkpt lat="44.81636" lon="4.43786">
        <ele>814</ele>
        <time>2014-11-13T10:34:35Z</time>
      </trkpt>
      <trkpt lat="44.81634" lon="4.43787">
        <ele>814</ele>
        <time>2014-11-13T10:34:40Z</time>
      </trkpt>
      <trkpt lat="44.81631" lon="4.43789">
        <ele>814</ele>
        <time>2014-11-13T10:34:45Z</time>
      </trkpt>
      <trkpt lat="44.81627" lon="4.4379">
        <ele>814</ele>
        <time>2014-11-13T10:34:50Z</time>
      </trkpt>
      <trkpt lat="44.81624" lon="4.43793">
        <ele>826</ele>
        <time>2014-11-13T10:34:55Z</time>
      </trkpt>
      <trkpt lat="44.81621" lon="4.43792">
        <ele>826</ele>
        <time>2014-11-13T10:35:00Z</time>
      </trkpt>
      <trkpt lat="44.81621" lon="4.43795">
        <ele>826</ele>
        <time>2014-11-13T10:35:05Z</time>
      </trkpt>
      <trkpt lat="44.81621" lon="4.43797">
        <ele>826</ele>
        <time>2014-11-13T10:35:10Z</time>
      </trkpt>
      <trkpt lat="44.8162" lon="4.43798">
        <ele>826</ele>
        <time>2014-11-13T10:35:15Z</time>
      </trkpt>
      <trkpt lat="44.81619" lon="4.438">
        <ele>826</ele>
        <time>2014-11-13T10:35:20Z</time>
      </trkpt>
      <trkpt lat="44.81618" lon="4.43801">
        <ele>826</ele>
        <time>2014-11-13T10:35:25Z</time>
      </trkpt>
      <trkpt lat="44.81618" lon="4.438">
        <ele>826</ele>
        <time>2014-11-13T10:35:30Z</time>
      </trkpt>
      <trkpt lat="44.81617" lon="4.438">
        <ele>826</ele>
        <time>2014-11-13T10:35:35Z</time>
      </trkpt>
      <trkpt lat="44.81615" lon="4.43802">
        <ele>826</ele>
        <time>2014-11-13T10:35:40Z</time>
      </trkpt>
      <trkpt lat="44.81615" lon="4.43806">
        <ele>826</ele>
        <time>2014-11-13T10:35:45Z</time>
      </trkpt>
      <trkpt lat="44.81613" lon="4.4381">
        <ele>826</ele>
        <time>2014-11-13T10:35:50Z</time>
      </trkpt>
      <trkpt lat="44.81611" lon="4.43814">
        <ele>826</ele>
        <time>2014-11-13T10:35:55Z</time>
      </trkpt>
      <trkpt lat="44.81608" lon="4.43817">
        <ele>826</ele>
        <time>2014-11-13T10:36:00Z</time>
      </trkpt>
      <trkpt lat="44.81605" lon="4.43816">
        <ele>826</ele>
        <time>2014-11-13T10:36:05Z</time>
      </trkpt>
      <trkpt lat="44.81602" lon="4.43813">
        <ele>826</ele>
        <time>2014-11-13T10:36:10Z</time>
      </trkpt>
      <trkpt lat="44.816" lon="4.43809">
        <ele>826</ele>
        <time>2014-11-13T10:36:15Z</time>
      </trkpt>
      <trkpt lat="44.81596" lon="4.43808">
        <ele>830</ele>
        <time>2014-11-13T10:36:20Z</time>
      </trkpt>
      <trkpt lat="44.81594" lon="4.4381">
        <ele>830</ele>
        <time>2014-11-13T10:36:25Z</time>
      </trkpt>
      <trkpt lat="44.81592" lon="4.4381">
        <ele>830</ele>
        <time>2014-11-13T10:36:30Z</time>
      </trkpt>
      <trkpt lat="44.81592" lon="4.43811">
        <ele>830</ele>
        <time>2014-11-13T10:36:35Z</time>
      </trkpt>
      <trkpt lat="44.8159" lon="4.43812">
        <ele>830</ele>
        <time>2014-11-13T10:36:40Z</time>
      </trkpt>
      <trkpt lat="44.8159" lon="4.43813">
        <ele>830</ele>
        <time>2014-11-13T10:36:45Z</time>
      </trkpt>
      <trkpt lat="44.81589" lon="4.43816">
        <ele>830</ele>
        <time>2014-11-13T10:36:50Z</time>
      </trkpt>
      <trkpt lat="44.81589" lon="4.43817">
        <ele>830</ele>
        <time>2014-11-13T10:37:00Z</time>
      </trkpt>
      <trkpt lat="44.81588" lon="4.43817">
        <ele>830</ele>
        <time>2014-11-13T10:37:05Z</time>
      </trkpt>
      <trkpt lat="44.81588" lon="4.43816">
        <ele>830</ele>
        <time>2014-11-13T10:37:10Z</time>
      </trkpt>
      <trkpt lat="44.81589" lon="4.43814">
        <ele>830</ele>
        <time>2014-11-13T10:37:15Z</time>
      </trkpt>
      <trkpt lat="44.8159" lon="4.43813">
        <ele>830</ele>
        <time>2014-11-13T10:37:20Z</time>
      </trkpt>
      <trkpt lat="44.81593" lon="4.4381">
        <ele>830</ele>
        <time>2014-11-13T10:37:25Z</time>
      </trkpt>
      <trkpt lat="44.81595" lon="4.43808">
        <ele>830</ele>
        <time>2014-11-13T10:37:30Z</time>
      </trkpt>
      <trkpt lat="44.81593" lon="4.43809">
        <ele>830</ele>
        <time>2014-11-13T10:37:35Z</time>
      </trkpt>
      <trkpt lat="44.81591" lon="4.43807">
        <ele>830</ele>
        <time>2014-11-13T10:37:40Z</time>
      </trkpt>
      <trkpt lat="44.81589" lon="4.4381">
        <ele>830</ele>
        <time>2014-11-13T10:37:45Z</time>
      </trkpt>
      <trkpt lat="44.81588" lon="4.43817">
        <ele>830</ele>
        <time>2014-11-13T10:37:50Z</time>
      </trkpt>
      <trkpt lat="44.81587" lon="4.43821">
        <ele>838</ele>
        <time>2014-11-13T10:37:55Z</time>
      </trkpt>
      <trkpt lat="44.81587" lon="4.43822">
        <ele>838</ele>
        <time>2014-11-13T10:38:00Z</time>
      </trkpt>
      <trkpt lat="44.81588" lon="4.4382">
        <ele>838</ele>
        <time>2014-11-13T10:38:05Z</time>
      </trkpt>
      <trkpt lat="44.81588" lon="4.43819">
        <ele>830</ele>
        <time>2014-11-13T10:38:10Z</time>
      </trkpt>
      <trkpt lat="44.81588" lon="4.4382">
        <ele>838</ele>
        <time>2014-11-13T10:38:15Z</time>
      </trkpt>
      <trkpt lat="44.81589" lon="4.4382">
        <ele>838</ele>
        <time>2014-11-13T10:38:20Z</time>
      </trkpt>
      <trkpt lat="44.8159" lon="4.43819">
        <ele>830</ele>
        <time>2014-11-13T10:38:25Z</time>
      </trkpt>
      <trkpt lat="44.81589" lon="4.43814">
        <ele>830</ele>
        <time>2014-11-13T10:38:30Z</time>
      </trkpt>
      <trkpt lat="44.81588" lon="4.43809">
        <ele>830</ele>
        <time>2014-11-13T10:38:35Z</time>
      </trkpt>
      <trkpt lat="44.8159" lon="4.43806">
        <ele>830</ele>
        <time>2014-11-13T10:38:40Z</time>
      </trkpt>
      <trkpt lat="44.81591" lon="4.43806">
        <ele>830</ele>
        <time>2014-11-13T10:38:45Z</time>
      </trkpt>
      <trkpt lat="44.81592" lon="4.4381">
        <ele>830</ele>
        <time>2014-11-13T10:38:50Z</time>
      </trkpt>
      <trkpt lat="44.81591" lon="4.43811">
        <ele>830</ele>
        <time>2014-11-13T10:38:55Z</time>
      </trkpt>
      <trkpt lat="44.81589" lon="4.43813">
        <ele>830</ele>
        <time>2014-11-13T10:39:00Z</time>
      </trkpt>
      <trkpt lat="44.81587" lon="4.43815">
        <ele>830</ele>
        <time>2014-11-13T10:39:05Z</time>
      </trkpt>
      <trkpt lat="44.81587" lon="4.43818">
        <ele>830</ele>
        <time>2014-11-13T10:39:10Z</time>
      </trkpt>
      <trkpt lat="44.81587" lon="4.43821">
        <ele>838</ele>
        <time>2014-11-13T10:39:15Z</time>
      </trkpt>
      <trkpt lat="44.81586" lon="4.43818">
        <ele>830</ele>
        <time>2014-11-13T10:39:35Z</time>
      </trkpt>
      <trkpt lat="44.81587" lon="4.43813">
        <ele>830</ele>
        <time>2014-11-13T10:39:40Z</time>
      </trkpt>
      <trkpt lat="44.81588" lon="4.43809">
        <ele>830</ele>
        <time>2014-11-13T10:39:45Z</time>
      </trkpt>
      <trkpt lat="44.8159" lon="4.43807">
        <ele>830</ele>
        <time>2014-11-13T10:39:50Z</time>
      </trkpt>
      <trkpt lat="44.81592" lon="4.43805">
        <ele>830</ele>
        <time>2014-11-13T10:39:55Z</time>
      </trkpt>
      <trkpt lat="44.81591" lon="4.43807">
        <ele>830</ele>
        <time>2014-11-13T10:40:00Z</time>
      </trkpt>
      <trkpt lat="44.8159" lon="4.43808">
        <ele>830</ele>
        <time>2014-11-13T10:40:05Z</time>
      </trkpt>
      <trkpt lat="44.81589" lon="4.4381">
        <ele>830</ele>
        <time>2014-11-13T10:40:10Z</time>
      </trkpt>
      <trkpt lat="44.81588" lon="4.43812">
        <ele>830</ele>
        <time>2014-11-13T10:40:15Z</time>
      </trkpt>
      <trkpt lat="44.81587" lon="4.43812">
        <ele>830</ele>
        <time>2014-11-13T10:40:20Z</time>
      </trkpt>
      <trkpt lat="44.81585" lon="4.43811">
        <ele>830</ele>
        <time>2014-11-13T10:40:25Z</time>
      </trkpt>
      <trkpt lat="44.81584" lon="4.43812">
        <ele>830</ele>
        <time>2014-11-13T10:40:30Z</time>
      </trkpt>
      <trkpt lat="44.81586" lon="4.43815">
        <ele>830</ele>
        <time>2014-11-13T10:40:35Z</time>
      </trkpt>
      <trkpt lat="44.8159" lon="4.43814">
        <ele>830</ele>
        <time>2014-11-13T10:40:40Z</time>
      </trkpt>
      <trkpt lat="44.8159" lon="4.43812">
        <ele>830</ele>
        <time>2014-11-13T10:40:45Z</time>
      </trkpt>
      <trkpt lat="44.81589" lon="4.4381">
        <ele>830</ele>
        <time>2014-11-13T10:40:50Z</time>
      </trkpt>
      <trkpt lat="44.81588" lon="4.43811">
        <ele>830</ele>
        <time>2014-11-13T10:40:55Z</time>
      </trkpt>
      <trkpt lat="44.81587" lon="4.43813">
        <ele>830</ele>
        <time>2014-11-13T10:41:00Z</time>
      </trkpt>
      <trkpt lat="44.81584" lon="4.43814">
        <ele>830</ele>
        <time>2014-11-13T10:41:05Z</time>
      </trkpt>
      <trkpt lat="44.8158" lon="4.43815">
        <ele>830</ele>
        <time>2014-11-13T10:41:10Z</time>
      </trkpt>
      <trkpt lat="44.81576" lon="4.43817">
        <ele>830</ele>
        <time>2014-11-13T10:41:15Z</time>
      </trkpt>
      <trkpt lat="44.81574" lon="4.43819">
        <ele>830</ele>
        <time>2014-11-13T10:41:20Z</time>
      </trkpt>
      <trkpt lat="44.8157" lon="4.4382">
        <ele>838</ele>
        <time>2014-11-13T10:41:25Z</time>
      </trkpt>
      <trkpt lat="44.81567" lon="4.4382">
        <ele>844</ele>
        <time>2014-11-13T10:41:30Z</time>
      </trkpt>
      <trkpt lat="44.81563" lon="4.43821">
        <ele>844</ele>
        <time>2014-11-13T10:41:35Z</time>
      </trkpt>
      <trkpt lat="44.8156" lon="4.43823">
        <ele>844</ele>
        <time>2014-11-13T10:41:40Z</time>
      </trkpt>
      <trkpt lat="44.81558" lon="4.43826">
        <ele>844</ele>
        <time>2014-11-13T10:41:45Z</time>
      </trkpt>
      <trkpt lat="44.81556" lon="4.43829">
        <ele>844</ele>
        <time>2014-11-13T10:41:50Z</time>
      </trkpt>
      <trkpt lat="44.81555" lon="4.43832">
        <ele>844</ele>
        <time>2014-11-13T10:41:55Z</time>
      </trkpt>
      <trkpt lat="44.81553" lon="4.43833">
        <ele>844</ele>
        <time>2014-11-13T10:42:00Z</time>
      </trkpt>
      <trkpt lat="44.81551" lon="4.43832">
        <ele>844</ele>
        <time>2014-11-13T10:42:05Z</time>
      </trkpt>
      <trkpt lat="44.81549" lon="4.43834">
        <ele>844</ele>
        <time>2014-11-13T10:42:10Z</time>
      </trkpt>
      <trkpt lat="44.81547" lon="4.43835">
        <ele>844</ele>
        <time>2014-11-13T10:42:15Z</time>
      </trkpt>
      <trkpt lat="44.81545" lon="4.43835">
        <ele>844</ele>
        <time>2014-11-13T10:42:20Z</time>
      </trkpt>
      <trkpt lat="44.81543" lon="4.43837">
        <ele>844</ele>
        <time>2014-11-13T10:42:25Z</time>
      </trkpt>
      <trkpt lat="44.8154" lon="4.43837">
        <ele>849</ele>
        <time>2014-11-13T10:42:30Z</time>
      </trkpt>
      <trkpt lat="44.81538" lon="4.43838">
        <ele>849</ele>
        <time>2014-11-13T10:42:35Z</time>
      </trkpt>
      <trkpt lat="44.81538" lon="4.4384">
        <ele>849</ele>
        <time>2014-11-13T10:42:40Z</time>
      </trkpt>
      <trkpt lat="44.81538" lon="4.43842">
        <ele>849</ele>
        <time>2014-11-13T10:42:45Z</time>
      </trkpt>
      <trkpt lat="44.81536" lon="4.43841">
        <ele>849</ele>
        <time>2014-11-13T10:42:55Z</time>
      </trkpt>
      <trkpt lat="44.81536" lon="4.4384">
        <ele>849</ele>
        <time>2014-11-13T10:43:00Z</time>
      </trkpt>
      <trkpt lat="44.81537" lon="4.43843">
        <ele>849</ele>
        <time>2014-11-13T10:43:05Z</time>
      </trkpt>
      <trkpt lat="44.81538" lon="4.43844">
        <ele>849</ele>
        <time>2014-11-13T10:43:10Z</time>
      </trkpt>
      <trkpt lat="44.81537" lon="4.43845">
        <ele>849</ele>
        <time>2014-11-13T10:43:15Z</time>
      </trkpt>
      <trkpt lat="44.81538" lon="4.43843">
        <ele>849</ele>
        <time>2014-11-13T10:43:20Z</time>
      </trkpt>
      <trkpt lat="44.8154" lon="4.43841">
        <ele>849</ele>
        <time>2014-11-13T10:43:25Z</time>
      </trkpt>
      <trkpt lat="44.81538" lon="4.43841">
        <ele>849</ele>
        <time>2014-11-13T10:43:30Z</time>
      </trkpt>
      <trkpt lat="44.81536" lon="4.43842">
        <ele>849</ele>
        <time>2014-11-13T10:43:35Z</time>
      </trkpt>
      <trkpt lat="44.81534" lon="4.43844">
        <ele>849</ele>
        <time>2014-11-13T10:43:40Z</time>
      </trkpt>
      <trkpt lat="44.8153" lon="4.43846">
        <ele>849</ele>
        <time>2014-11-13T10:43:45Z</time>
      </trkpt>
      <trkpt lat="44.81527" lon="4.43849">
        <ele>859</ele>
        <time>2014-11-13T10:43:50Z</time>
      </trkpt>
      <trkpt lat="44.81526" lon="4.43849">
        <ele>859</ele>
        <time>2014-11-13T10:43:55Z</time>
      </trkpt>
      <trkpt lat="44.81526" lon="4.43853">
        <ele>859</ele>
        <time>2014-11-13T10:44:00Z</time>
      </trkpt>
      <trkpt lat="44.81524" lon="4.43855">
        <ele>859</ele>
        <time>2014-11-13T10:44:05Z</time>
      </trkpt>
      <trkpt lat="44.81523" lon="4.43857">
        <ele>859</ele>
        <time>2014-11-13T10:44:10Z</time>
      </trkpt>
      <trkpt lat="44.81521" lon="4.43856">
        <ele>859</ele>
        <time>2014-11-13T10:44:30Z</time>
      </trkpt>
      <trkpt lat="44.81519" lon="4.43854">
        <ele>859</ele>
        <time>2014-11-13T10:44:35Z</time>
      </trkpt>
      <trkpt lat="44.81515" lon="4.43853">
        <ele>859</ele>
        <time>2014-11-13T10:44:40Z</time>
      </trkpt>
      <trkpt lat="44.81512" lon="4.43854">
        <ele>863</ele>
        <time>2014-11-13T10:44:45Z</time>
      </trkpt>
      <trkpt lat="44.81508" lon="4.43855">
        <ele>863</ele>
        <time>2014-11-13T10:44:50Z</time>
      </trkpt>
      <trkpt lat="44.81504" lon="4.43856">
        <ele>863</ele>
        <time>2014-11-13T10:44:55Z</time>
      </trkpt>
      <trkpt lat="44.815" lon="4.43856">
        <ele>863</ele>
        <time>2014-11-13T10:45:00Z</time>
      </trkpt>
      <trkpt lat="44.81497" lon="4.43856">
        <ele>863</ele>
        <time>2014-11-13T10:45:05Z</time>
      </trkpt>
      <trkpt lat="44.81496" lon="4.43856">
        <ele>863</ele>
        <time>2014-11-13T10:45:10Z</time>
      </trkpt>
      <trkpt lat="44.81493" lon="4.43856">
        <ele>863</ele>
        <time>2014-11-13T10:45:15Z</time>
      </trkpt>
      <trkpt lat="44.8149" lon="4.43856">
        <ele>863</ele>
        <time>2014-11-13T10:45:20Z</time>
      </trkpt>
      <trkpt lat="44.81486" lon="4.43857">
        <ele>867</ele>
        <time>2014-11-13T10:45:25Z</time>
      </trkpt>
      <trkpt lat="44.81484" lon="4.43859">
        <ele>867</ele>
        <time>2014-11-13T10:45:30Z</time>
      </trkpt>
      <trkpt lat="44.81481" lon="4.43859">
        <ele>867</ele>
        <time>2014-11-13T10:45:35Z</time>
      </trkpt>
      <trkpt lat="44.81478" lon="4.43859">
        <ele>867</ele>
        <time>2014-11-13T10:45:40Z</time>
      </trkpt>
      <trkpt lat="44.81474" lon="4.43858">
        <ele>867</ele>
        <time>2014-11-13T10:45:45Z</time>
      </trkpt>
      <trkpt lat="44.8147" lon="4.43859">
        <ele>867</ele>
        <time>2014-11-13T10:45:50Z</time>
      </trkpt>
      <trkpt lat="44.81466" lon="4.43858">
        <ele>867</ele>
        <time>2014-11-13T10:45:55Z</time>
      </trkpt>
      <trkpt lat="44.81463" lon="4.43858">
        <ele>867</ele>
        <time>2014-11-13T10:46:00Z</time>
      </trkpt>
      <trkpt lat="44.8146" lon="4.43858">
        <ele>867</ele>
        <time>2014-11-13T10:46:05Z</time>
      </trkpt>
      <trkpt lat="44.81457" lon="4.43858">
        <ele>872</ele>
        <time>2014-11-13T10:46:10Z</time>
      </trkpt>
      <trkpt lat="44.81454" lon="4.43858">
        <ele>872</ele>
        <time>2014-11-13T10:46:15Z</time>
      </trkpt>
      <trkpt lat="44.81451" lon="4.43859">
        <ele>872</ele>
        <time>2014-11-13T10:46:20Z</time>
      </trkpt>
      <trkpt lat="44.81448" lon="4.43861">
        <ele>872</ele>
        <time>2014-11-13T10:46:25Z</time>
      </trkpt>
      <trkpt lat="44.81445" lon="4.43864">
        <ele>872</ele>
        <time>2014-11-13T10:46:30Z</time>
      </trkpt>
      <trkpt lat="44.81445" lon="4.43862">
        <ele>872</ele>
        <time>2014-11-13T10:46:35Z</time>
      </trkpt>
      <trkpt lat="44.81444" lon="4.43859">
        <ele>872</ele>
        <time>2014-11-13T10:46:40Z</time>
      </trkpt>
      <trkpt lat="44.81443" lon="4.43857">
        <ele>872</ele>
        <time>2014-11-13T10:46:45Z</time>
      </trkpt>
      <trkpt lat="44.81443" lon="4.43856">
        <ele>872</ele>
        <time>2014-11-13T10:46:50Z</time>
      </trkpt>
      <trkpt lat="44.81442" lon="4.43859">
        <ele>872</ele>
        <time>2014-11-13T10:47:00Z</time>
      </trkpt>
      <trkpt lat="44.8144" lon="4.43862">
        <ele>872</ele>
        <time>2014-11-13T10:47:05Z</time>
      </trkpt>
      <trkpt lat="44.81437" lon="4.43863">
        <ele>872</ele>
        <time>2014-11-13T10:47:10Z</time>
      </trkpt>
      <trkpt lat="44.81433" lon="4.43865">
        <ele>872</ele>
        <time>2014-11-13T10:47:15Z</time>
      </trkpt>
      <trkpt lat="44.81431" lon="4.43866">
        <ele>872</ele>
        <time>2014-11-13T10:47:20Z</time>
      </trkpt>
      <trkpt lat="44.81428" lon="4.43867">
        <ele>876</ele>
        <time>2014-11-13T10:47:25Z</time>
      </trkpt>
      <trkpt lat="44.81424" lon="4.43868">
        <ele>876</ele>
        <time>2014-11-13T10:47:30Z</time>
      </trkpt>
      <trkpt lat="44.8142" lon="4.4387">
        <ele>876</ele>
        <time>2014-11-13T10:47:35Z</time>
      </trkpt>
      <trkpt lat="44.81418" lon="4.43872">
        <ele>876</ele>
        <time>2014-11-13T10:47:40Z</time>
      </trkpt>
      <trkpt lat="44.81414" lon="4.43873">
        <ele>876</ele>
        <time>2014-11-13T10:47:45Z</time>
      </trkpt>
      <trkpt lat="44.81411" lon="4.43874">
        <ele>876</ele>
        <time>2014-11-13T10:47:50Z</time>
      </trkpt>
      <trkpt lat="44.81409" lon="4.43875">
        <ele>876</ele>
        <time>2014-11-13T10:47:55Z</time>
      </trkpt>
      <trkpt lat="44.81407" lon="4.43877">
        <ele>883</ele>
        <time>2014-11-13T10:48:00Z</time>
      </trkpt>
      <trkpt lat="44.81405" lon="4.43881">
        <ele>883</ele>
        <time>2014-11-13T10:48:05Z</time>
      </trkpt>
      <trkpt lat="44.81403" lon="4.43884">
        <ele>883</ele>
        <time>2014-11-13T10:48:10Z</time>
      </trkpt>
      <trkpt lat="44.814" lon="4.43886">
        <ele>886</ele>
        <time>2014-11-13T10:48:15Z</time>
      </trkpt>
      <trkpt lat="44.81397" lon="4.43889">
        <ele>886</ele>
        <time>2014-11-13T10:48:20Z</time>
      </trkpt>
      <trkpt lat="44.81396" lon="4.43891">
        <ele>886</ele>
        <time>2014-11-13T10:48:25Z</time>
      </trkpt>
      <trkpt lat="44.81395" lon="4.43892">
        <ele>886</ele>
        <time>2014-11-13T10:48:30Z</time>
      </trkpt>
      <trkpt lat="44.81393" lon="4.43895">
        <ele>886</ele>
        <time>2014-11-13T10:48:35Z</time>
      </trkpt>
      <trkpt lat="44.81391" lon="4.43897">
        <ele>886</ele>
        <time>2014-11-13T10:48:40Z</time>
      </trkpt>
      <trkpt lat="44.81387" lon="4.43901">
        <ele>886</ele>
        <time>2014-11-13T10:48:45Z</time>
      </trkpt>
      <trkpt lat="44.81384" lon="4.43904">
        <ele>892</ele>
        <time>2014-11-13T10:48:50Z</time>
      </trkpt>
      <trkpt lat="44.81383" lon="4.43904">
        <ele>892</ele>
        <time>2014-11-13T10:48:55Z</time>
      </trkpt>
      <trkpt lat="44.81378" lon="4.43902">
        <ele>886</ele>
        <time>2014-11-13T10:49:00Z</time>
      </trkpt>
      <trkpt lat="44.81376" lon="4.439">
        <ele>886</ele>
        <time>2014-11-13T10:49:05Z</time>
      </trkpt>
      <trkpt lat="44.81375" lon="4.43897">
        <ele>886</ele>
        <time>2014-11-13T10:49:10Z</time>
      </trkpt>
      <trkpt lat="44.81374" lon="4.43897">
        <ele>890</ele>
        <time>2014-11-13T10:49:15Z</time>
      </trkpt>
      <trkpt lat="44.81373" lon="4.43897">
        <ele>890</ele>
        <time>2014-11-13T10:49:20Z</time>
      </trkpt>
      <trkpt lat="44.81369" lon="4.43893">
        <ele>890</ele>
        <time>2014-11-13T10:49:25Z</time>
      </trkpt>
      <trkpt lat="44.81365" lon="4.43887">
        <ele>890</ele>
        <time>2014-11-13T10:49:30Z</time>
      </trkpt>
      <trkpt lat="44.81361" lon="4.43883">
        <ele>890</ele>
        <time>2014-11-13T10:49:35Z</time>
      </trkpt>
      <trkpt lat="44.81358" lon="4.43879">
        <ele>890</ele>
        <time>2014-11-13T10:49:40Z</time>
      </trkpt>
      <trkpt lat="44.81354" lon="4.43874">
        <ele>885</ele>
        <time>2014-11-13T10:49:45Z</time>
      </trkpt>
      <trkpt lat="44.8135" lon="4.43868">
        <ele>885</ele>
        <time>2014-11-13T10:49:50Z</time>
      </trkpt>
      <trkpt lat="44.81346" lon="4.43865">
        <ele>891</ele>
        <time>2014-11-13T10:49:55Z</time>
      </trkpt>
      <trkpt lat="44.81345" lon="4.43861">
        <ele>891</ele>
        <time>2014-11-13T10:50:00Z</time>
      </trkpt>
      <trkpt lat="44.81342" lon="4.43856">
        <ele>891</ele>
        <time>2014-11-13T10:50:05Z</time>
      </trkpt>
      <trkpt lat="44.8134" lon="4.43852">
        <ele>891</ele>
        <time>2014-11-13T10:50:10Z</time>
      </trkpt>
      <trkpt lat="44.81337" lon="4.43848">
        <ele>891</ele>
        <time>2014-11-13T10:50:15Z</time>
      </trkpt>
      <trkpt lat="44.81335" lon="4.43845">
        <ele>888</ele>
        <time>2014-11-13T10:50:20Z</time>
      </trkpt>
      <trkpt lat="44.81332" lon="4.43841">
        <ele>888</ele>
        <time>2014-11-13T10:50:25Z</time>
      </trkpt>
      <trkpt lat="44.81329" lon="4.43836">
        <ele>888</ele>
        <time>2014-11-13T10:50:30Z</time>
      </trkpt>
      <trkpt lat="44.81326" lon="4.43831">
        <ele>888</ele>
        <time>2014-11-13T10:50:35Z</time>
      </trkpt>
      <trkpt lat="44.81325" lon="4.43829">
        <ele>888</ele>
        <time>2014-11-13T10:50:40Z</time>
      </trkpt>
      <trkpt lat="44.81324" lon="4.43827">
        <ele>888</ele>
        <time>2014-11-13T10:50:45Z</time>
      </trkpt>
      <trkpt lat="44.81322" lon="4.43823">
        <ele>888</ele>
        <time>2014-11-13T10:50:50Z</time>
      </trkpt>
      <trkpt lat="44.81319" lon="4.43821">
        <ele>901</ele>
        <time>2014-11-13T10:50:55Z</time>
      </trkpt>
      <trkpt lat="44.81317" lon="4.43816">
        <ele>898</ele>
        <time>2014-11-13T10:51:00Z</time>
      </trkpt>
      <trkpt lat="44.81312" lon="4.43812">
        <ele>898</ele>
        <time>2014-11-13T10:51:05Z</time>
      </trkpt>
      <trkpt lat="44.81309" lon="4.43808">
        <ele>898</ele>
        <time>2014-11-13T10:51:10Z</time>
      </trkpt>
      <trkpt lat="44.81307" lon="4.43805">
        <ele>898</ele>
        <time>2014-11-13T10:51:15Z</time>
      </trkpt>
      <trkpt lat="44.81307" lon="4.43804">
        <ele>898</ele>
        <time>2014-11-13T10:51:20Z</time>
      </trkpt>
      <trkpt lat="44.81307" lon="4.43802">
        <ele>898</ele>
        <time>2014-11-13T10:51:25Z</time>
      </trkpt>
      <trkpt lat="44.81307" lon="4.438">
        <ele>898</ele>
        <time>2014-11-13T10:51:30Z</time>
      </trkpt>
      <trkpt lat="44.81306" lon="4.43799">
        <ele>898</ele>
        <time>2014-11-13T10:51:35Z</time>
      </trkpt>
      <trkpt lat="44.81305" lon="4.43801">
        <ele>898</ele>
        <time>2014-11-13T10:51:45Z</time>
      </trkpt>
      <trkpt lat="44.81303" lon="4.43802">
        <ele>898</ele>
        <time>2014-11-13T10:51:50Z</time>
      </trkpt>
      <trkpt lat="44.81299" lon="4.43799">
        <ele>898</ele>
        <time>2014-11-13T10:51:55Z</time>
      </trkpt>
      <trkpt lat="44.81296" lon="4.43796">
        <ele>898</ele>
        <time>2014-11-13T10:52:00Z</time>
      </trkpt>
      <trkpt lat="44.81294" lon="4.43791">
        <ele>893</ele>
        <time>2014-11-13T10:52:05Z</time>
      </trkpt>
      <trkpt lat="44.81293" lon="4.43785">
        <ele>893</ele>
        <time>2014-11-13T10:52:10Z</time>
      </trkpt>
      <trkpt lat="44.81292" lon="4.43782">
        <ele>906</ele>
        <time>2014-11-13T10:52:15Z</time>
      </trkpt>
      <trkpt lat="44.8129" lon="4.43779">
        <ele>906</ele>
        <time>2014-11-13T10:52:20Z</time>
      </trkpt>
      <trkpt lat="44.81288" lon="4.43775">
        <ele>906</ele>
        <time>2014-11-13T10:52:25Z</time>
      </trkpt>
      <trkpt lat="44.81285" lon="4.43769">
        <ele>906</ele>
        <time>2014-11-13T10:52:30Z</time>
      </trkpt>
      <trkpt lat="44.81282" lon="4.43763">
        <ele>902</ele>
        <time>2014-11-13T10:52:35Z</time>
      </trkpt>
      <trkpt lat="44.8128" lon="4.43759">
        <ele>902</ele>
        <time>2014-11-13T10:52:40Z</time>
      </trkpt>
      <trkpt lat="44.81278" lon="4.43754">
        <ele>902</ele>
        <time>2014-11-13T10:52:45Z</time>
      </trkpt>
      <trkpt lat="44.81278" lon="4.43755">
        <ele>902</ele>
        <time>2014-11-13T10:52:50Z</time>
      </trkpt>
      <trkpt lat="44.81276" lon="4.43752">
        <ele>902</ele>
        <time>2014-11-13T10:52:55Z</time>
      </trkpt>
      <trkpt lat="44.81276" lon="4.43748">
        <ele>902</ele>
        <time>2014-11-13T10:53:00Z</time>
      </trkpt>
      <trkpt lat="44.81274" lon="4.43745">
        <ele>902</ele>
        <time>2014-11-13T10:53:05Z</time>
      </trkpt>
      <trkpt lat="44.81272" lon="4.4374">
        <ele>902</ele>
        <time>2014-11-13T10:53:10Z</time>
      </trkpt>
      <trkpt lat="44.81269" lon="4.43732">
        <ele>897</ele>
        <time>2014-11-13T10:53:15Z</time>
      </trkpt>
      <trkpt lat="44.81265" lon="4.43726">
        <ele>897</ele>
        <time>2014-11-13T10:53:20Z</time>
      </trkpt>
      <trkpt lat="44.81262" lon="4.43723">
        <ele>910</ele>
        <time>2014-11-13T10:53:25Z</time>
      </trkpt>
      <trkpt lat="44.81261" lon="4.43722">
        <ele>910</ele>
        <time>2014-11-13T10:53:30Z</time>
      </trkpt>
      <trkpt lat="44.8126" lon="4.43721">
        <ele>910</ele>
        <time>2014-11-13T10:53:35Z</time>
      </trkpt>
      <trkpt lat="44.8126" lon="4.43718">
        <ele>910</ele>
        <time>2014-11-13T10:53:40Z</time>
      </trkpt>
      <trkpt lat="44.8126" lon="4.43716">
        <ele>910</ele>
        <time>2014-11-13T10:53:45Z</time>
      </trkpt>
      <trkpt lat="44.81257" lon="4.4371">
        <ele>910</ele>
        <time>2014-11-13T10:53:55Z</time>
      </trkpt>
      <trkpt lat="44.81254" lon="4.437">
        <ele>904</ele>
        <time>2014-11-13T10:54:00Z</time>
      </trkpt>
      <trkpt lat="44.81253" lon="4.43697">
        <ele>904</ele>
        <time>2014-11-13T10:54:05Z</time>
      </trkpt>
      <trkpt lat="44.8125" lon="4.43691">
        <ele>904</ele>
        <time>2014-11-13T10:54:20Z</time>
      </trkpt>
      <trkpt lat="44.81245" lon="4.43684">
        <ele>904</ele>
        <time>2014-11-13T10:54:25Z</time>
      </trkpt>
      <trkpt lat="44.81244" lon="4.43682">
        <ele>904</ele>
        <time>2014-11-13T10:54:30Z</time>
      </trkpt>
      <trkpt lat="44.81242" lon="4.43678">
        <ele>900</ele>
        <time>2014-11-13T10:54:35Z</time>
      </trkpt>
      <trkpt lat="44.81239" lon="4.43674">
        <ele>900</ele>
        <time>2014-11-13T10:54:40Z</time>
      </trkpt>
      <trkpt lat="44.81238" lon="4.43669">
        <ele>900</ele>
        <time>2014-11-13T10:54:45Z</time>
      </trkpt>
      <trkpt lat="44.81237" lon="4.43662">
        <ele>900</ele>
        <time>2014-11-13T10:54:50Z</time>
      </trkpt>
      <trkpt lat="44.81238" lon="4.43654">
        <ele>900</ele>
        <time>2014-11-13T10:54:55Z</time>
      </trkpt>
      <trkpt lat="44.81239" lon="4.4365">
        <ele>902</ele>
        <time>2014-11-13T10:55:00Z</time>
      </trkpt>
      <trkpt lat="44.8124" lon="4.43646">
        <ele>902</ele>
        <time>2014-11-13T10:55:05Z</time>
      </trkpt>
      <trkpt lat="44.81242" lon="4.43642">
        <ele>902</ele>
        <time>2014-11-13T10:55:10Z</time>
      </trkpt>
      <trkpt lat="44.81242" lon="4.4364">
        <ele>902</ele>
        <time>2014-11-13T10:55:15Z</time>
      </trkpt>
      <trkpt lat="44.81243" lon="4.43636">
        <ele>902</ele>
        <time>2014-11-13T10:55:20Z</time>
      </trkpt>
      <trkpt lat="44.81244" lon="4.43632">
        <ele>902</ele>
        <time>2014-11-13T10:55:25Z</time>
      </trkpt>
      <trkpt lat="44.81246" lon="4.43628">
        <ele>902</ele>
        <time>2014-11-13T10:55:30Z</time>
      </trkpt>
      <trkpt lat="44.81246" lon="4.43623">
        <ele>908</ele>
        <time>2014-11-13T10:55:35Z</time>
      </trkpt>
      <trkpt lat="44.81246" lon="4.43616">
        <ele>908</ele>
        <time>2014-11-13T10:55:40Z</time>
      </trkpt>
      <trkpt lat="44.81246" lon="4.43609">
        <ele>908</ele>
        <time>2014-11-13T10:55:45Z</time>
      </trkpt>
      <trkpt lat="44.81245" lon="4.43605">
        <ele>908</ele>
        <time>2014-11-13T10:55:50Z</time>
      </trkpt>
      <trkpt lat="44.8125" lon="4.436">
        <ele>908</ele>
        <time>2014-11-13T10:55:55Z</time>
      </trkpt>
      <trkpt lat="44.81252" lon="4.43595">
        <ele>915</ele>
        <time>2014-11-13T10:56:00Z</time>
      </trkpt>
      <trkpt lat="44.81256" lon="4.43586">
        <ele>915</ele>
        <time>2014-11-13T10:56:05Z</time>
      </trkpt>
      <trkpt lat="44.81256" lon="4.43578">
        <ele>915</ele>
        <time>2014-11-13T10:56:10Z</time>
      </trkpt>
      <trkpt lat="44.8126" lon="4.43573">
        <ele>915</ele>
        <time>2014-11-13T10:56:15Z</time>
      </trkpt>
      <trkpt lat="44.81263" lon="4.43564">
        <ele>922</ele>
        <time>2014-11-13T10:56:20Z</time>
      </trkpt>
      <trkpt lat="44.81265" lon="4.43559">
        <ele>907</ele>
        <time>2014-11-13T10:56:25Z</time>
      </trkpt>
      <trkpt lat="44.81269" lon="4.43556">
        <ele>907</ele>
        <time>2014-11-13T10:56:30Z</time>
      </trkpt>
      <trkpt lat="44.81272" lon="4.43551">
        <ele>907</ele>
        <time>2014-11-13T10:56:35Z</time>
      </trkpt>
      <trkpt lat="44.81275" lon="4.43546">
        <ele>907</ele>
        <time>2014-11-13T10:56:40Z</time>
      </trkpt>
      <trkpt lat="44.81279" lon="4.43542">
        <ele>915</ele>
        <time>2014-11-13T10:56:45Z</time>
      </trkpt>
      <trkpt lat="44.81277" lon="4.43535">
        <ele>915</ele>
        <time>2014-11-13T10:56:50Z</time>
      </trkpt>
      <trkpt lat="44.81276" lon="4.43527">
        <ele>915</ele>
        <time>2014-11-13T10:56:55Z</time>
      </trkpt>
      <trkpt lat="44.81275" lon="4.43523">
        <ele>915</ele>
        <time>2014-11-13T10:57:00Z</time>
      </trkpt>
      <trkpt lat="44.81274" lon="4.4352">
        <ele>915</ele>
        <time>2014-11-13T10:57:05Z</time>
      </trkpt>
      <trkpt lat="44.81273" lon="4.43513">
        <ele>921</ele>
        <time>2014-11-13T10:57:10Z</time>
      </trkpt>
      <trkpt lat="44.81273" lon="4.43508">
        <ele>921</ele>
        <time>2014-11-13T10:57:15Z</time>
      </trkpt>
      <trkpt lat="44.81271" lon="4.43506">
        <ele>921</ele>
        <time>2014-11-13T10:57:20Z</time>
      </trkpt>
      <trkpt lat="44.8127" lon="4.43508">
        <ele>921</ele>
        <time>2014-11-13T10:57:25Z</time>
      </trkpt>
      <trkpt lat="44.8127" lon="4.4351">
        <ele>921</ele>
        <time>2014-11-13T10:57:30Z</time>
      </trkpt>
      <trkpt lat="44.81269" lon="4.43509">
        <ele>921</ele>
        <time>2014-11-13T10:57:35Z</time>
      </trkpt>
      <trkpt lat="44.81269" lon="4.4351">
        <ele>921</ele>
        <time>2014-11-13T10:57:40Z</time>
      </trkpt>
      <trkpt lat="44.81269" lon="4.43512">
        <ele>921</ele>
        <time>2014-11-13T10:57:45Z</time>
      </trkpt>
      <trkpt lat="44.81267" lon="4.43515">
        <ele>915</ele>
        <time>2014-11-13T10:57:50Z</time>
      </trkpt>
      <trkpt lat="44.81265" lon="4.43516">
        <ele>915</ele>
        <time>2014-11-13T10:57:55Z</time>
      </trkpt>
      <trkpt lat="44.81263" lon="4.43516">
        <ele>925</ele>
        <time>2014-11-13T10:58:00Z</time>
      </trkpt>
      <trkpt lat="44.81262" lon="4.43516">
        <ele>925</ele>
        <time>2014-11-13T10:58:05Z</time>
      </trkpt>
      <trkpt lat="44.81259" lon="4.43523">
        <ele>925</ele>
        <time>2014-11-13T10:58:15Z</time>
      </trkpt>
      <trkpt lat="44.81258" lon="4.43523">
        <ele>925</ele>
        <time>2014-11-13T10:58:20Z</time>
      </trkpt>
      <trkpt lat="44.81257" lon="4.43524">
        <ele>925</ele>
        <time>2014-11-13T10:58:25Z</time>
      </trkpt>
      <trkpt lat="44.81256" lon="4.43525">
        <ele>925</ele>
        <time>2014-11-13T10:58:30Z</time>
      </trkpt>
      <trkpt lat="44.81252" lon="4.4353">
        <ele>925</ele>
        <time>2014-11-13T10:58:55Z</time>
      </trkpt>
      <trkpt lat="44.8125" lon="4.43534">
        <ele>925</ele>
        <time>2014-11-13T10:59:00Z</time>
      </trkpt>
      <trkpt lat="44.81248" lon="4.43536">
        <ele>925</ele>
        <time>2014-11-13T10:59:05Z</time>
      </trkpt>
      <trkpt lat="44.81246" lon="4.43538">
        <ele>925</ele>
        <time>2014-11-13T10:59:10Z</time>
      </trkpt>
      <trkpt lat="44.81243" lon="4.4354">
        <ele>925</ele>
        <time>2014-11-13T10:59:15Z</time>
      </trkpt>
      <trkpt lat="44.81242" lon="4.43541">
        <ele>925</ele>
        <time>2014-11-13T10:59:20Z</time>
      </trkpt>
      <trkpt lat="44.8124" lon="4.43543">
        <ele>922</ele>
        <time>2014-11-13T10:59:25Z</time>
      </trkpt>
      <trkpt lat="44.81232" lon="4.43554">
        <ele>933</ele>
        <time>2014-11-13T10:59:30Z</time>
      </trkpt>
      <trkpt lat="44.81225" lon="4.4356">
        <ele>933</ele>
        <time>2014-11-13T10:59:35Z</time>
      </trkpt>
      <trkpt lat="44.8122" lon="4.43564">
        <ele>933</ele>
        <time>2014-11-13T10:59:40Z</time>
      </trkpt>
      <trkpt lat="44.81217" lon="4.43566">
        <ele>933</ele>
        <time>2014-11-13T10:59:45Z</time>
      </trkpt>
      <trkpt lat="44.81214" lon="4.43568">
        <ele>933</ele>
        <time>2014-11-13T10:59:50Z</time>
      </trkpt>
      <trkpt lat="44.81212" lon="4.43571">
        <ele>930</ele>
        <time>2014-11-13T10:59:55Z</time>
      </trkpt>
      <trkpt lat="44.81208" lon="4.43573">
        <ele>941</ele>
        <time>2014-11-13T11:00:00Z</time>
      </trkpt>
      <trkpt lat="44.81207" lon="4.43573">
        <ele>941</ele>
        <time>2014-11-13T11:00:05Z</time>
      </trkpt>
      <trkpt lat="44.81206" lon="4.43574">
        <ele>941</ele>
        <time>2014-11-13T11:00:10Z</time>
      </trkpt>
      <trkpt lat="44.81203" lon="4.43577">
        <ele>941</ele>
        <time>2014-11-13T11:00:20Z</time>
      </trkpt>
      <trkpt lat="44.81201" lon="4.43581">
        <ele>941</ele>
        <time>2014-11-13T11:00:25Z</time>
      </trkpt>
      <trkpt lat="44.81197" lon="4.43584">
        <ele>941</ele>
        <time>2014-11-13T11:00:30Z</time>
      </trkpt>
      <trkpt lat="44.81195" lon="4.43585">
        <ele>941</ele>
        <time>2014-11-13T11:00:35Z</time>
      </trkpt>
      <trkpt lat="44.81194" lon="4.43588">
        <ele>941</ele>
        <time>2014-11-13T11:00:40Z</time>
      </trkpt>
      <trkpt lat="44.81191" lon="4.43589">
        <ele>941</ele>
        <time>2014-11-13T11:00:45Z</time>
      </trkpt>
      <trkpt lat="44.81188" lon="4.43591">
        <ele>941</ele>
        <time>2014-11-13T11:00:50Z</time>
      </trkpt>
      <trkpt lat="44.81185" lon="4.43591">
        <ele>941</ele>
        <time>2014-11-13T11:00:55Z</time>
      </trkpt>
      <trkpt lat="44.81181" lon="4.43592">
        <ele>941</ele>
        <time>2014-11-13T11:01:00Z</time>
      </trkpt>
      <trkpt lat="44.81179" lon="4.43593">
        <ele>950</ele>
        <time>2014-11-13T11:01:05Z</time>
      </trkpt>
      <trkpt lat="44.81178" lon="4.43594">
        <ele>950</ele>
        <time>2014-11-13T11:01:10Z</time>
      </trkpt>
      <trkpt lat="44.81177" lon="4.43595">
        <ele>950</ele>
        <time>2014-11-13T11:01:15Z</time>
      </trkpt>
      <trkpt lat="44.81176" lon="4.43595">
        <ele>950</ele>
        <time>2014-11-13T11:01:20Z</time>
      </trkpt>
      <trkpt lat="44.81173" lon="4.43595">
        <ele>950</ele>
        <time>2014-11-13T11:01:25Z</time>
      </trkpt>
      <trkpt lat="44.81171" lon="4.43595">
        <ele>950</ele>
        <time>2014-11-13T11:01:30Z</time>
      </trkpt>
      <trkpt lat="44.81169" lon="4.43597">
        <ele>950</ele>
        <time>2014-11-13T11:01:35Z</time>
      </trkpt>
      <trkpt lat="44.81166" lon="4.43597">
        <ele>950</ele>
        <time>2014-11-13T11:01:40Z</time>
      </trkpt>
      <trkpt lat="44.81163" lon="4.43599">
        <ele>946</ele>
        <time>2014-11-13T11:01:45Z</time>
      </trkpt>
      <trkpt lat="44.8116" lon="4.436">
        <ele>946</ele>
        <time>2014-11-13T11:01:50Z</time>
      </trkpt>
      <trkpt lat="44.81156" lon="4.43603">
        <ele>946</ele>
        <time>2014-11-13T11:01:55Z</time>
      </trkpt>
      <trkpt lat="44.81153" lon="4.43603">
        <ele>946</ele>
        <time>2014-11-13T11:02:00Z</time>
      </trkpt>
      <trkpt lat="44.8115" lon="4.43604">
        <ele>953</ele>
        <time>2014-11-13T11:02:05Z</time>
      </trkpt>
      <trkpt lat="44.81148" lon="4.43604">
        <ele>953</ele>
        <time>2014-11-13T11:02:10Z</time>
      </trkpt>
      <trkpt lat="44.81146" lon="4.43605">
        <ele>953</ele>
        <time>2014-11-13T11:02:15Z</time>
      </trkpt>
      <trkpt lat="44.81146" lon="4.43607">
        <ele>953</ele>
        <time>2014-11-13T11:02:20Z</time>
      </trkpt>
      <trkpt lat="44.81143" lon="4.43604">
        <ele>953</ele>
        <time>2014-11-13T11:02:25Z</time>
      </trkpt>
      <trkpt lat="44.81139" lon="4.43605">
        <ele>953</ele>
        <time>2014-11-13T11:02:45Z</time>
      </trkpt>
      <trkpt lat="44.81138" lon="4.43603">
        <ele>953</ele>
        <time>2014-11-13T11:02:50Z</time>
      </trkpt>
      <trkpt lat="44.81137" lon="4.43602">
        <ele>953</ele>
        <time>2014-11-13T11:03:20Z</time>
      </trkpt>
      <trkpt lat="44.81137" lon="4.43603">
        <ele>953</ele>
        <time>2014-11-13T11:03:25Z</time>
      </trkpt>
      <trkpt lat="44.81135" lon="4.43604">
        <ele>953</ele>
        <time>2014-11-13T11:03:30Z</time>
      </trkpt>
      <trkpt lat="44.81132" lon="4.43605">
        <ele>953</ele>
        <time>2014-11-13T11:03:35Z</time>
      </trkpt>
      <trkpt lat="44.81129" lon="4.43607">
        <ele>953</ele>
        <time>2014-11-13T11:03:45Z</time>
      </trkpt>
      <trkpt lat="44.81125" lon="4.43608">
        <ele>953</ele>
        <time>2014-11-13T11:03:50Z</time>
      </trkpt>
      <trkpt lat="44.81125" lon="4.43607">
        <ele>953</ele>
        <time>2014-11-13T11:03:55Z</time>
      </trkpt>
      <trkpt lat="44.81124" lon="4.43608">
        <ele>962</ele>
        <time>2014-11-13T11:04:00Z</time>
      </trkpt>
      <trkpt lat="44.81121" lon="4.43607">
        <ele>962</ele>
        <time>2014-11-13T11:04:05Z</time>
      </trkpt>
      <trkpt lat="44.8112" lon="4.43608">
        <ele>962</ele>
        <time>2014-11-13T11:04:10Z</time>
      </trkpt>
      <trkpt lat="44.81115" lon="4.43609">
        <ele>962</ele>
        <time>2014-11-13T11:04:15Z</time>
      </trkpt>
      <trkpt lat="44.8111" lon="4.43608">
        <ele>962</ele>
        <time>2014-11-13T11:04:20Z</time>
      </trkpt>
      <trkpt lat="44.81108" lon="4.43607">
        <ele>962</ele>
        <time>2014-11-13T11:04:25Z</time>
      </trkpt>
      <trkpt lat="44.81105" lon="4.43606">
        <ele>962</ele>
        <time>2014-11-13T11:04:30Z</time>
      </trkpt>
      <trkpt lat="44.81103" lon="4.43606">
        <ele>962</ele>
        <time>2014-11-13T11:04:35Z</time>
      </trkpt>
      <trkpt lat="44.811" lon="4.43607">
        <ele>962</ele>
        <time>2014-11-13T11:04:40Z</time>
      </trkpt>
      <trkpt lat="44.81098" lon="4.43607">
        <ele>962</ele>
        <time>2014-11-13T11:04:45Z</time>
      </trkpt>
      <trkpt lat="44.81096" lon="4.4361">
        <ele>969</ele>
        <time>2014-11-13T11:04:50Z</time>
      </trkpt>
      <trkpt lat="44.81095" lon="4.43611">
        <ele>969</ele>
        <time>2014-11-13T11:04:55Z</time>
      </trkpt>
      <trkpt lat="44.81093" lon="4.43612">
        <ele>969</ele>
        <time>2014-11-13T11:05:00Z</time>
      </trkpt>
      <trkpt lat="44.81092" lon="4.43609">
        <ele>969</ele>
        <time>2014-11-13T11:05:05Z</time>
      </trkpt>
      <trkpt lat="44.81093" lon="4.43608">
        <ele>969</ele>
        <time>2014-11-13T11:05:10Z</time>
      </trkpt>
      <trkpt lat="44.81093" lon="4.43607">
        <ele>969</ele>
        <time>2014-11-13T11:05:15Z</time>
      </trkpt>
      <trkpt lat="44.81092" lon="4.43606">
        <ele>969</ele>
        <time>2014-11-13T11:05:20Z</time>
      </trkpt>
      <trkpt lat="44.81089" lon="4.43604">
        <ele>969</ele>
        <time>2014-11-13T11:05:25Z</time>
      </trkpt>
      <trkpt lat="44.81087" lon="4.436">
        <ele>969</ele>
        <time>2014-11-13T11:05:30Z</time>
      </trkpt>
      <trkpt lat="44.81086" lon="4.43598">
        <ele>969</ele>
        <time>2014-11-13T11:05:35Z</time>
      </trkpt>
      <trkpt lat="44.81083" lon="4.43597">
        <ele>970</ele>
        <time>2014-11-13T11:05:40Z</time>
      </trkpt>
      <trkpt lat="44.81081" lon="4.43597">
        <ele>969</ele>
        <time>2014-11-13T11:05:45Z</time>
      </trkpt>
      <trkpt lat="44.81078" lon="4.43596">
        <ele>970</ele>
        <time>2014-11-13T11:05:50Z</time>
      </trkpt>
      <trkpt lat="44.81075" lon="4.43594">
        <ele>970</ele>
        <time>2014-11-13T11:05:55Z</time>
      </trkpt>
      <trkpt lat="44.81072" lon="4.43594">
        <ele>970</ele>
        <time>2014-11-13T11:06:00Z</time>
      </trkpt>
      <trkpt lat="44.81069" lon="4.43593">
        <ele>973</ele>
        <time>2014-11-13T11:06:05Z</time>
      </trkpt>
      <trkpt lat="44.81067" lon="4.43593">
        <ele>973</ele>
        <time>2014-11-13T11:06:10Z</time>
      </trkpt>
      <trkpt lat="44.81064" lon="4.43592">
        <ele>973</ele>
        <time>2014-11-13T11:06:15Z</time>
      </trkpt>
      <trkpt lat="44.81061" lon="4.4359">
        <ele>973</ele>
        <time>2014-11-13T11:06:20Z</time>
      </trkpt>
      <trkpt lat="44.81058" lon="4.43588">
        <ele>973</ele>
        <time>2014-11-13T11:06:25Z</time>
      </trkpt>
      <trkpt lat="44.81056" lon="4.43589">
        <ele>973</ele>
        <time>2014-11-13T11:06:30Z</time>
      </trkpt>
      <trkpt lat="44.81055" lon="4.43585">
        <ele>973</ele>
        <time>2014-11-13T11:06:35Z</time>
      </trkpt>
      <trkpt lat="44.81055" lon="4.43584">
        <ele>973</ele>
        <time>2014-11-13T11:06:40Z</time>
      </trkpt>
      <trkpt lat="44.81053" lon="4.43583">
        <ele>973</ele>
        <time>2014-11-13T11:06:45Z</time>
      </trkpt>
      <trkpt lat="44.8105" lon="4.43583">
        <ele>973</ele>
        <time>2014-11-13T11:06:50Z</time>
      </trkpt>
      <trkpt lat="44.81047" lon="4.43583">
        <ele>973</ele>
        <time>2014-11-13T11:06:55Z</time>
      </trkpt>
      <trkpt lat="44.81044" lon="4.43582">
        <ele>973</ele>
        <time>2014-11-13T11:07:00Z</time>
      </trkpt>
      <trkpt lat="44.81041" lon="4.43581">
        <ele>973</ele>
        <time>2014-11-13T11:07:05Z</time>
      </trkpt>
      <trkpt lat="44.81039" lon="4.4358">
        <ele>973</ele>
        <time>2014-11-13T11:07:10Z</time>
      </trkpt>
      <trkpt lat="44.81036" lon="4.4358">
        <ele>973</ele>
        <time>2014-11-13T11:07:15Z</time>
      </trkpt>
      <trkpt lat="44.81034" lon="4.4358">
        <ele>973</ele>
        <time>2014-11-13T11:07:20Z</time>
      </trkpt>
      <trkpt lat="44.81035" lon="4.43581">
        <ele>973</ele>
        <time>2014-11-13T11:07:25Z</time>
      </trkpt>
      <trkpt lat="44.81036" lon="4.43579">
        <ele>973</ele>
        <time>2014-11-13T11:07:30Z</time>
      </trkpt>
      <trkpt lat="44.81035" lon="4.43579">
        <ele>973</ele>
        <time>2014-11-13T11:07:35Z</time>
      </trkpt>
      <trkpt lat="44.81034" lon="4.4358">
        <ele>973</ele>
        <time>2014-11-13T11:07:40Z</time>
      </trkpt>
      <trkpt lat="44.81033" lon="4.43581">
        <ele>973</ele>
        <time>2014-11-13T11:07:45Z</time>
      </trkpt>
      <trkpt lat="44.81033" lon="4.4358">
        <ele>973</ele>
        <time>2014-11-13T11:08:00Z</time>
      </trkpt>
      <trkpt lat="44.81031" lon="4.43575">
        <ele>973</ele>
        <time>2014-11-13T11:08:05Z</time>
      </trkpt>
      <trkpt lat="44.81028" lon="4.43573">
        <ele>973</ele>
        <time>2014-11-13T11:08:10Z</time>
      </trkpt>
      <trkpt lat="44.81025" lon="4.43572">
        <ele>973</ele>
        <time>2014-11-13T11:08:15Z</time>
      </trkpt>
      <trkpt lat="44.81023" lon="4.43573">
        <ele>973</ele>
        <time>2014-11-13T11:08:20Z</time>
      </trkpt>
      <trkpt lat="44.81021" lon="4.43576">
        <ele>973</ele>
        <time>2014-11-13T11:08:25Z</time>
      </trkpt>
      <trkpt lat="44.81017" lon="4.43578">
        <ele>973</ele>
        <time>2014-11-13T11:08:30Z</time>
      </trkpt>
      <trkpt lat="44.81013" lon="4.43579">
        <ele>969</ele>
        <time>2014-11-13T11:08:35Z</time>
      </trkpt>
      <trkpt lat="44.81012" lon="4.4358">
        <ele>969</ele>
        <time>2014-11-13T11:08:40Z</time>
      </trkpt>
      <trkpt lat="44.81013" lon="4.43579">
        <ele>969</ele>
        <time>2014-11-13T11:08:55Z</time>
      </trkpt>
      <trkpt lat="44.81013" lon="4.43578">
        <ele>969</ele>
        <time>2014-11-13T11:09:00Z</time>
      </trkpt>
      <trkpt lat="44.81012" lon="4.43579">
        <ele>969</ele>
        <time>2014-11-13T11:09:15Z</time>
      </trkpt>
      <trkpt lat="44.81012" lon="4.43581">
        <ele>969</ele>
        <time>2014-11-13T11:09:25Z</time>
      </trkpt>
      <trkpt lat="44.81011" lon="4.43582">
        <ele>969</ele>
        <time>2014-11-13T11:09:30Z</time>
      </trkpt>
      <trkpt lat="44.81012" lon="4.43581">
        <ele>969</ele>
        <time>2014-11-13T11:09:35Z</time>
      </trkpt>
      <trkpt lat="44.81011" lon="4.43581">
        <ele>969</ele>
        <time>2014-11-13T11:09:40Z</time>
      </trkpt>
      <trkpt lat="44.81012" lon="4.43581">
        <ele>969</ele>
        <time>2014-11-13T11:09:45Z</time>
      </trkpt>
      <trkpt lat="44.81013" lon="4.43582">
        <ele>969</ele>
        <time>2014-11-13T11:09:50Z</time>
      </trkpt>
      <trkpt lat="44.81012" lon="4.43581">
        <ele>969</ele>
        <time>2014-11-13T11:09:55Z</time>
      </trkpt>
      <trkpt lat="44.8101" lon="4.43579">
        <ele>969</ele>
        <time>2014-11-13T11:10:00Z</time>
      </trkpt>
      <trkpt lat="44.81008" lon="4.43578">
        <ele>969</ele>
        <time>2014-11-13T11:10:05Z</time>
      </trkpt>
      <trkpt lat="44.81007" lon="4.43579">
        <ele>969</ele>
        <time>2014-11-13T11:10:15Z</time>
      </trkpt>
      <trkpt lat="44.81009" lon="4.43579">
        <ele>969</ele>
        <time>2014-11-13T11:10:20Z</time>
      </trkpt>
      <trkpt lat="44.81008" lon="4.43582">
        <ele>969</ele>
        <time>2014-11-13T11:10:25Z</time>
      </trkpt>
      <trkpt lat="44.81007" lon="4.43584">
        <ele>969</ele>
        <time>2014-11-13T11:10:30Z</time>
      </trkpt>
      <trkpt lat="44.81006" lon="4.43583">
        <ele>969</ele>
        <time>2014-11-13T11:10:35Z</time>
      </trkpt>
      <trkpt lat="44.81006" lon="4.43582">
        <ele>969</ele>
        <time>2014-11-13T11:10:40Z</time>
      </trkpt>
      <trkpt lat="44.81005" lon="4.43582">
        <ele>969</ele>
        <time>2014-11-13T11:10:45Z</time>
      </trkpt>
      <trkpt lat="44.81006" lon="4.43581">
        <ele>969</ele>
        <time>2014-11-13T11:10:50Z</time>
      </trkpt>
      <trkpt lat="44.81006" lon="4.43582">
        <ele>969</ele>
        <time>2014-11-13T11:10:55Z</time>
      </trkpt>
      <trkpt lat="44.81007" lon="4.43581">
        <ele>969</ele>
        <time>2014-11-13T11:11:10Z</time>
      </trkpt>
      <trkpt lat="44.81007" lon="4.4358">
        <ele>969</ele>
        <time>2014-11-13T11:11:15Z</time>
      </trkpt>
      <trkpt lat="44.81007" lon="4.43579">
        <ele>969</ele>
        <time>2014-11-13T11:11:20Z</time>
      </trkpt>
      <trkpt lat="44.81007" lon="4.43578">
        <ele>969</ele>
        <time>2014-11-13T11:11:25Z</time>
      </trkpt>
      <trkpt lat="44.81008" lon="4.43577">
        <ele>969</ele>
        <time>2014-11-13T11:11:30Z</time>
      </trkpt>
      <trkpt lat="44.8101" lon="4.43577">
        <ele>969</ele>
        <time>2014-11-13T11:11:35Z</time>
      </trkpt>
      <trkpt lat="44.81009" lon="4.43579">
        <ele>969</ele>
        <time>2014-11-13T11:11:40Z</time>
      </trkpt>
      <trkpt lat="44.81008" lon="4.43579">
        <ele>969</ele>
        <time>2014-11-13T11:11:45Z</time>
      </trkpt>
      <trkpt lat="44.81007" lon="4.43578">
        <ele>969</ele>
        <time>2014-11-13T11:11:50Z</time>
      </trkpt>
      <trkpt lat="44.81008" lon="4.43579">
        <ele>969</ele>
        <time>2014-11-13T11:11:55Z</time>
      </trkpt>
      <trkpt lat="44.81007" lon="4.43579">
        <ele>969</ele>
        <time>2014-11-13T11:12:00Z</time>
      </trkpt>
      <trkpt lat="44.81007" lon="4.43578">
        <ele>969</ele>
        <time>2014-11-13T11:12:10Z</time>
      </trkpt>
      <trkpt lat="44.81007" lon="4.43577">
        <ele>969</ele>
        <time>2014-11-13T11:12:20Z</time>
      </trkpt>
      <trkpt lat="44.81004" lon="4.43573">
        <ele>969</ele>
        <time>2014-11-13T11:12:25Z</time>
      </trkpt>
      <trkpt lat="44.81003" lon="4.43571">
        <ele>969</ele>
        <time>2014-11-13T11:12:30Z</time>
      </trkpt>
      <trkpt lat="44.81001" lon="4.43568">
        <ele>976</ele>
        <time>2014-11-13T11:12:35Z</time>
      </trkpt>
      <trkpt lat="44.81001" lon="4.43567">
        <ele>976</ele>
        <time>2014-11-13T11:12:45Z</time>
      </trkpt>
      <trkpt lat="44.81001" lon="4.43565">
        <ele>976</ele>
        <time>2014-11-13T11:12:50Z</time>
      </trkpt>
      <trkpt lat="44.81001" lon="4.43568">
        <ele>976</ele>
        <time>2014-11-13T11:13:00Z</time>
      </trkpt>
      <trkpt lat="44.81" lon="4.43567">
        <ele>976</ele>
        <time>2014-11-13T11:13:05Z</time>
      </trkpt>
      <trkpt lat="44.80998" lon="4.43567">
        <ele>976</ele>
        <time>2014-11-13T11:13:10Z</time>
      </trkpt>
      <trkpt lat="44.80998" lon="4.43566">
        <ele>976</ele>
        <time>2014-11-13T11:13:15Z</time>
      </trkpt>
      <trkpt lat="44.80998" lon="4.43565">
        <ele>976</ele>
        <time>2014-11-13T11:13:20Z</time>
      </trkpt>
      <trkpt lat="44.80999" lon="4.43565">
        <ele>976</ele>
        <time>2014-11-13T11:13:25Z</time>
      </trkpt>
      <trkpt lat="44.81001" lon="4.43565">
        <ele>976</ele>
        <time>2014-11-13T11:13:30Z</time>
      </trkpt>
      <trkpt lat="44.81002" lon="4.43565">
        <ele>976</ele>
        <time>2014-11-13T11:13:40Z</time>
      </trkpt>
      <trkpt lat="44.81002" lon="4.43566">
        <ele>976</ele>
        <time>2014-11-13T11:13:45Z</time>
      </trkpt>
      <trkpt lat="44.81" lon="4.43567">
        <ele>976</ele>
        <time>2014-11-13T11:13:50Z</time>
      </trkpt>
      <trkpt lat="44.80998" lon="4.43568">
        <ele>976</ele>
        <time>2014-11-13T11:13:55Z</time>
      </trkpt>
      <trkpt lat="44.80998" lon="4.43571">
        <ele>969</ele>
        <time>2014-11-13T11:14:00Z</time>
      </trkpt>
      <trkpt lat="44.80999" lon="4.4357">
        <ele>969</ele>
        <time>2014-11-13T11:14:05Z</time>
      </trkpt>
      <trkpt lat="44.81001" lon="4.43569">
        <ele>976</ele>
        <time>2014-11-13T11:14:10Z</time>
      </trkpt>
      <trkpt lat="44.80997" lon="4.43568">
        <ele>976</ele>
        <time>2014-11-13T11:14:15Z</time>
      </trkpt>
      <trkpt lat="44.80994" lon="4.43569">
        <ele>976</ele>
        <time>2014-11-13T11:14:20Z</time>
      </trkpt>
      <trkpt lat="44.80993" lon="4.43565">
        <ele>976</ele>
        <time>2014-11-13T11:14:25Z</time>
      </trkpt>
      <trkpt lat="44.80992" lon="4.43562">
        <ele>976</ele>
        <time>2014-11-13T11:14:30Z</time>
      </trkpt>
      <trkpt lat="44.80992" lon="4.43561">
        <ele>976</ele>
        <time>2014-11-13T11:14:35Z</time>
      </trkpt>
      <trkpt lat="44.80992" lon="4.43558">
        <ele>976</ele>
        <time>2014-11-13T11:14:40Z</time>
      </trkpt>
      <trkpt lat="44.80991" lon="4.43553">
        <ele>976</ele>
        <time>2014-11-13T11:14:45Z</time>
      </trkpt>
      <trkpt lat="44.80991" lon="4.43548">
        <ele>976</ele>
        <time>2014-11-13T11:14:50Z</time>
      </trkpt>
      <trkpt lat="44.8099" lon="4.43544">
        <ele>976</ele>
        <time>2014-11-13T11:14:55Z</time>
      </trkpt>
      <trkpt lat="44.80989" lon="4.43541">
        <ele>981</ele>
        <time>2014-11-13T11:15:00Z</time>
      </trkpt>
      <trkpt lat="44.80987" lon="4.43537">
        <ele>981</ele>
        <time>2014-11-13T11:15:05Z</time>
      </trkpt>
      <trkpt lat="44.80985" lon="4.43533">
        <ele>983</ele>
        <time>2014-11-13T11:15:10Z</time>
      </trkpt>
      <trkpt lat="44.80984" lon="4.43528">
        <ele>983</ele>
        <time>2014-11-13T11:15:15Z</time>
      </trkpt>
      <trkpt lat="44.80982" lon="4.43524">
        <ele>983</ele>
        <time>2014-11-13T11:15:20Z</time>
      </trkpt>
      <trkpt lat="44.80981" lon="4.4352">
        <ele>983</ele>
        <time>2014-11-13T11:15:25Z</time>
      </trkpt>
      <trkpt lat="44.8098" lon="4.43514">
        <ele>983</ele>
        <time>2014-11-13T11:15:30Z</time>
      </trkpt>
      <trkpt lat="44.8098" lon="4.43507">
        <ele>987</ele>
        <time>2014-11-13T11:15:35Z</time>
      </trkpt>
      <trkpt lat="44.80979" lon="4.43503">
        <ele>987</ele>
        <time>2014-11-13T11:15:40Z</time>
      </trkpt>
      <trkpt lat="44.80978" lon="4.43499">
        <ele>987</ele>
        <time>2014-11-13T11:15:45Z</time>
      </trkpt>
      <trkpt lat="44.80978" lon="4.43495">
        <ele>987</ele>
        <time>2014-11-13T11:15:50Z</time>
      </trkpt>
      <trkpt lat="44.80976" lon="4.43491">
        <ele>987</ele>
        <time>2014-11-13T11:15:55Z</time>
      </trkpt>
      <trkpt lat="44.80976" lon="4.43486">
        <ele>990</ele>
        <time>2014-11-13T11:16:00Z</time>
      </trkpt>
      <trkpt lat="44.80975" lon="4.43482">
        <ele>990</ele>
        <time>2014-11-13T11:16:05Z</time>
      </trkpt>
      <trkpt lat="44.80974" lon="4.43478">
        <ele>990</ele>
        <time>2014-11-13T11:16:10Z</time>
      </trkpt>
      <trkpt lat="44.80972" lon="4.43473">
        <ele>990</ele>
        <time>2014-11-13T11:16:15Z</time>
      </trkpt>
      <trkpt lat="44.80971" lon="4.4347">
        <ele>990</ele>
        <time>2014-11-13T11:16:20Z</time>
      </trkpt>
      <trkpt lat="44.8097" lon="4.43466">
        <ele>990</ele>
        <time>2014-11-13T11:16:25Z</time>
      </trkpt>
      <trkpt lat="44.80968" lon="4.43462">
        <ele>990</ele>
        <time>2014-11-13T11:16:30Z</time>
      </trkpt>
      <trkpt lat="44.80967" lon="4.43457">
        <ele>992</ele>
        <time>2014-11-13T11:16:35Z</time>
      </trkpt>
      <trkpt lat="44.80967" lon="4.43451">
        <ele>992</ele>
        <time>2014-11-13T11:16:40Z</time>
      </trkpt>
      <trkpt lat="44.80966" lon="4.43446">
        <ele>992</ele>
        <time>2014-11-13T11:16:45Z</time>
      </trkpt>
      <trkpt lat="44.80964" lon="4.43441">
        <ele>992</ele>
        <time>2014-11-13T11:16:50Z</time>
      </trkpt>
      <trkpt lat="44.80962" lon="4.43437">
        <ele>992</ele>
        <time>2014-11-13T11:16:55Z</time>
      </trkpt>
      <trkpt lat="44.80959" lon="4.43433">
        <ele>992</ele>
        <time>2014-11-13T11:17:00Z</time>
      </trkpt>
      <trkpt lat="44.80958" lon="4.43429">
        <ele>994</ele>
        <time>2014-11-13T11:17:05Z</time>
      </trkpt>
      <trkpt lat="44.80956" lon="4.43424">
        <ele>994</ele>
        <time>2014-11-13T11:17:10Z</time>
      </trkpt>
      <trkpt lat="44.80953" lon="4.43419">
        <ele>994</ele>
        <time>2014-11-13T11:17:15Z</time>
      </trkpt>
      <trkpt lat="44.8095" lon="4.43414">
        <ele>994</ele>
        <time>2014-11-13T11:17:20Z</time>
      </trkpt>
      <trkpt lat="44.80948" lon="4.4341">
        <ele>994</ele>
        <time>2014-11-13T11:17:25Z</time>
      </trkpt>
      <trkpt lat="44.80944" lon="4.43408">
        <ele>994</ele>
        <time>2014-11-13T11:17:30Z</time>
      </trkpt>
      <trkpt lat="44.8094" lon="4.43406">
        <ele>994</ele>
        <time>2014-11-13T11:17:35Z</time>
      </trkpt>
      <trkpt lat="44.80937" lon="4.43401">
        <ele>997</ele>
        <time>2014-11-13T11:17:40Z</time>
      </trkpt>
      <trkpt lat="44.80935" lon="4.43399">
        <ele>997</ele>
        <time>2014-11-13T11:17:45Z</time>
      </trkpt>
      <trkpt lat="44.80936" lon="4.43401">
        <ele>997</ele>
        <time>2014-11-13T11:17:50Z</time>
      </trkpt>
      <trkpt lat="44.80938" lon="4.43402">
        <ele>997</ele>
        <time>2014-11-13T11:17:55Z</time>
      </trkpt>
      <trkpt lat="44.80938" lon="4.43403">
        <ele>994</ele>
        <time>2014-11-13T11:18:00Z</time>
      </trkpt>
      <trkpt lat="44.80937" lon="4.43404">
        <ele>994</ele>
        <time>2014-11-13T11:18:05Z</time>
      </trkpt>
      <trkpt lat="44.80938" lon="4.43404">
        <ele>994</ele>
        <time>2014-11-13T11:18:10Z</time>
      </trkpt>
      <trkpt lat="44.80937" lon="4.43403">
        <ele>994</ele>
        <time>2014-11-13T11:18:15Z</time>
      </trkpt>
      <trkpt lat="44.80939" lon="4.434">
        <ele>997</ele>
        <time>2014-11-13T11:18:20Z</time>
      </trkpt>
      <trkpt lat="44.8094" lon="4.43399">
        <ele>997</ele>
        <time>2014-11-13T11:18:25Z</time>
      </trkpt>
      <trkpt lat="44.80942" lon="4.43398">
        <ele>997</ele>
        <time>2014-11-13T11:18:30Z</time>
      </trkpt>
      <trkpt lat="44.80943" lon="4.43399">
        <ele>997</ele>
        <time>2014-11-13T11:18:35Z</time>
      </trkpt>
      <trkpt lat="44.80944" lon="4.434">
        <ele>997</ele>
        <time>2014-11-13T11:18:40Z</time>
      </trkpt>
      <trkpt lat="44.80944" lon="4.43402">
        <ele>997</ele>
        <time>2014-11-13T11:18:45Z</time>
      </trkpt>
      <trkpt lat="44.80944" lon="4.434">
        <ele>997</ele>
        <time>2014-11-13T11:18:55Z</time>
      </trkpt>
      <trkpt lat="44.80944" lon="4.43398">
        <ele>997</ele>
        <time>2014-11-13T11:19:00Z</time>
      </trkpt>
      <trkpt lat="44.80945" lon="4.43397">
        <ele>997</ele>
        <time>2014-11-13T11:19:10Z</time>
      </trkpt>
      <trkpt lat="44.80945" lon="4.43395">
        <ele>997</ele>
        <time>2014-11-13T11:19:15Z</time>
      </trkpt>
      <trkpt lat="44.80946" lon="4.43394">
        <ele>997</ele>
        <time>2014-11-13T11:19:20Z</time>
      </trkpt>
      <trkpt lat="44.80947" lon="4.43395">
        <ele>997</ele>
        <time>2014-11-13T11:19:25Z</time>
      </trkpt>
      <trkpt lat="44.80944" lon="4.43399">
        <ele>997</ele>
        <time>2014-11-13T11:19:30Z</time>
      </trkpt>
      <trkpt lat="44.80943" lon="4.43401">
        <ele>997</ele>
        <time>2014-11-13T11:19:35Z</time>
      </trkpt>
      <trkpt lat="44.80944" lon="4.43405">
        <ele>994</ele>
        <time>2014-11-13T11:19:40Z</time>
      </trkpt>
      <trkpt lat="44.80943" lon="4.43405">
        <ele>994</ele>
        <time>2014-11-13T11:19:45Z</time>
      </trkpt>
      <trkpt lat="44.80941" lon="4.43404">
        <ele>994</ele>
        <time>2014-11-13T11:19:50Z</time>
      </trkpt>
      <trkpt lat="44.80941" lon="4.43401">
        <ele>997</ele>
        <time>2014-11-13T11:19:55Z</time>
      </trkpt>
      <trkpt lat="44.80939" lon="4.43401">
        <ele>997</ele>
        <time>2014-11-13T11:20:00Z</time>
      </trkpt>
      <trkpt lat="44.80939" lon="4.43402">
        <ele>997</ele>
        <time>2014-11-13T11:20:05Z</time>
      </trkpt>
      <trkpt lat="44.80938" lon="4.434">
        <ele>997</ele>
        <time>2014-11-13T11:20:10Z</time>
      </trkpt>
      <trkpt lat="44.80938" lon="4.43401">
        <ele>997</ele>
        <time>2014-11-13T11:20:15Z</time>
      </trkpt>
      <trkpt lat="44.80938" lon="4.43403">
        <ele>997</ele>
        <time>2014-11-13T11:20:20Z</time>
      </trkpt>
      <trkpt lat="44.80938" lon="4.43402">
        <ele>997</ele>
        <time>2014-11-13T11:20:25Z</time>
      </trkpt>
      <trkpt lat="44.80938" lon="4.434">
        <ele>997</ele>
        <time>2014-11-13T11:20:35Z</time>
      </trkpt>
      <trkpt lat="44.80937" lon="4.43401">
        <ele>997</ele>
        <time>2014-11-13T11:20:40Z</time>
      </trkpt>
      <trkpt lat="44.80937" lon="4.43402">
        <ele>997</ele>
        <time>2014-11-13T11:20:45Z</time>
      </trkpt>
      <trkpt lat="44.80936" lon="4.43402">
        <ele>997</ele>
        <time>2014-11-13T11:20:50Z</time>
      </trkpt>
      <trkpt lat="44.80937" lon="4.43402">
        <ele>997</ele>
        <time>2014-11-13T11:21:05Z</time>
      </trkpt>
      <trkpt lat="44.80938" lon="4.43402">
        <ele>997</ele>
        <time>2014-11-13T11:21:10Z</time>
      </trkpt>
      <trkpt lat="44.80939" lon="4.43401">
        <ele>997</ele>
        <time>2014-11-13T11:21:15Z</time>
      </trkpt>
      <trkpt lat="44.8094" lon="4.434">
        <ele>997</ele>
        <time>2014-11-13T11:21:20Z</time>
      </trkpt>
      <trkpt lat="44.80941" lon="4.43402">
        <ele>997</ele>
        <time>2014-11-13T11:21:25Z</time>
      </trkpt>
      <trkpt lat="44.80941" lon="4.43403">
        <ele>997</ele>
        <time>2014-11-13T11:21:30Z</time>
      </trkpt>
      <trkpt lat="44.80942" lon="4.43403">
        <ele>997</ele>
        <time>2014-11-13T11:21:35Z</time>
      </trkpt>
      <trkpt lat="44.80943" lon="4.43402">
        <ele>997</ele>
        <time>2014-11-13T11:21:40Z</time>
      </trkpt>
      <trkpt lat="44.80943" lon="4.43399">
        <ele>997</ele>
        <time>2014-11-13T11:21:45Z</time>
      </trkpt>
      <trkpt lat="44.80941" lon="4.43399">
        <ele>997</ele>
        <time>2014-11-13T11:21:50Z</time>
      </trkpt>
      <trkpt lat="44.80937" lon="4.43402">
        <ele>997</ele>
        <time>2014-11-13T11:21:55Z</time>
      </trkpt>
      <trkpt lat="44.80936" lon="4.43403">
        <ele>994</ele>
        <time>2014-11-13T11:22:00Z</time>
      </trkpt>
      <trkpt lat="44.80937" lon="4.43402">
        <ele>997</ele>
        <time>2014-11-13T11:22:20Z</time>
      </trkpt>
      <trkpt lat="44.80937" lon="4.43403">
        <ele>997</ele>
        <time>2014-11-13T11:22:25Z</time>
      </trkpt>
      <trkpt lat="44.80938" lon="4.43406">
        <ele>994</ele>
        <time>2014-11-13T11:22:30Z</time>
      </trkpt>
      <trkpt lat="44.80939" lon="4.43408">
        <ele>994</ele>
        <time>2014-11-13T11:22:35Z</time>
      </trkpt>
      <trkpt lat="44.80939" lon="4.43409">
        <ele>994</ele>
        <time>2014-11-13T11:22:40Z</time>
      </trkpt>
      <trkpt lat="44.8094" lon="4.43408">
        <ele>994</ele>
        <time>2014-11-13T11:22:45Z</time>
      </trkpt>
      <trkpt lat="44.80941" lon="4.43407">
        <ele>994</ele>
        <time>2014-11-13T11:22:50Z</time>
      </trkpt>
      <trkpt lat="44.80941" lon="4.43406">
        <ele>994</ele>
        <time>2014-11-13T11:22:55Z</time>
      </trkpt>
      <trkpt lat="44.80942" lon="4.43406">
        <ele>994</ele>
        <time>2014-11-13T11:23:10Z</time>
      </trkpt>
      <trkpt lat="44.80942" lon="4.43405">
        <ele>994</ele>
        <time>2014-11-13T11:23:15Z</time>
      </trkpt>
      <trkpt lat="44.80941" lon="4.43405">
        <ele>994</ele>
        <time>2014-11-13T11:23:25Z</time>
      </trkpt>
      <trkpt lat="44.80941" lon="4.43404">
        <ele>994</ele>
        <time>2014-11-13T11:23:40Z</time>
      </trkpt>
      <trkpt lat="44.80941" lon="4.43403">
        <ele>994</ele>
        <time>2014-11-13T11:23:45Z</time>
      </trkpt>
      <trkpt lat="44.80942" lon="4.43404">
        <ele>994</ele>
        <time>2014-11-13T11:23:50Z</time>
      </trkpt>
      <trkpt lat="44.80941" lon="4.43403">
        <ele>997</ele>
        <time>2014-11-13T11:24:00Z</time>
      </trkpt>
      <trkpt lat="44.8094" lon="4.43402">
        <ele>997</ele>
        <time>2014-11-13T11:24:05Z</time>
      </trkpt>
      <trkpt lat="44.80939" lon="4.434">
        <ele>997</ele>
        <time>2014-11-13T11:24:10Z</time>
      </trkpt>
      <trkpt lat="44.8094" lon="4.43401">
        <ele>997</ele>
        <time>2014-11-13T11:24:15Z</time>
      </trkpt>
      <trkpt lat="44.8094" lon="4.43402">
        <ele>997</ele>
        <time>2014-11-13T11:24:20Z</time>
      </trkpt>
      <trkpt lat="44.80939" lon="4.43401">
        <ele>997</ele>
        <time>2014-11-13T11:24:25Z</time>
      </trkpt>
      <trkpt lat="44.80938" lon="4.43401">
        <ele>997</ele>
        <time>2014-11-13T11:24:30Z</time>
      </trkpt>
      <trkpt lat="44.80935" lon="4.43399">
        <ele>997</ele>
        <time>2014-11-13T11:24:35Z</time>
      </trkpt>
      <trkpt lat="44.80931" lon="4.43395">
        <ele>997</ele>
        <time>2014-11-13T11:24:40Z</time>
      </trkpt>
      <trkpt lat="44.80927" lon="4.4339">
        <ele>991</ele>
        <time>2014-11-13T11:24:45Z</time>
      </trkpt>
      <trkpt lat="44.80922" lon="4.43387">
        <ele>991</ele>
        <time>2014-11-13T11:24:50Z</time>
      </trkpt>
      <trkpt lat="44.80918" lon="4.43384">
        <ele>991</ele>
        <time>2014-11-13T11:24:55Z</time>
      </trkpt>
      <trkpt lat="44.80916" lon="4.4338">
        <ele>991</ele>
        <time>2014-11-13T11:25:00Z</time>
      </trkpt>
      <trkpt lat="44.80915" lon="4.43376">
        <ele>991</ele>
        <time>2014-11-13T11:25:05Z</time>
      </trkpt>
      <trkpt lat="44.80914" lon="4.4337">
        <ele>993</ele>
        <time>2014-11-13T11:25:10Z</time>
      </trkpt>
      <trkpt lat="44.80912" lon="4.43366">
        <ele>993</ele>
        <time>2014-11-13T11:25:15Z</time>
      </trkpt>
      <trkpt lat="44.80911" lon="4.43364">
        <ele>993</ele>
        <time>2014-11-13T11:25:20Z</time>
      </trkpt>
      <trkpt lat="44.80909" lon="4.43361">
        <ele>993</ele>
        <time>2014-11-13T11:25:25Z</time>
      </trkpt>
      <trkpt lat="44.80908" lon="4.43357">
        <ele>993</ele>
        <time>2014-11-13T11:25:30Z</time>
      </trkpt>
      <trkpt lat="44.80906" lon="4.4335">
        <ele>993</ele>
        <time>2014-11-13T11:25:35Z</time>
      </trkpt>
      <trkpt lat="44.80905" lon="4.43344">
        <ele>994</ele>
        <time>2014-11-13T11:25:40Z</time>
      </trkpt>
      <trkpt lat="44.80907" lon="4.43336">
        <ele>994</ele>
        <time>2014-11-13T11:25:45Z</time>
      </trkpt>
      <trkpt lat="44.80907" lon="4.4333">
        <ele>994</ele>
        <time>2014-11-13T11:25:50Z</time>
      </trkpt>
      <trkpt lat="44.80908" lon="4.43325">
        <ele>994</ele>
        <time>2014-11-13T11:25:55Z</time>
      </trkpt>
      <trkpt lat="44.80909" lon="4.43322">
        <ele>994</ele>
        <time>2014-11-13T11:26:00Z</time>
      </trkpt>
      <trkpt lat="44.80908" lon="4.43323">
        <ele>994</ele>
        <time>2014-11-13T11:26:05Z</time>
      </trkpt>
      <trkpt lat="44.80907" lon="4.43325">
        <ele>994</ele>
        <time>2014-11-13T11:26:10Z</time>
      </trkpt>
      <trkpt lat="44.80907" lon="4.43323">
        <ele>994</ele>
        <time>2014-11-13T11:26:15Z</time>
      </trkpt>
      <trkpt lat="44.80909" lon="4.43318">
        <ele>995</ele>
        <time>2014-11-13T11:26:20Z</time>
      </trkpt>
      <trkpt lat="44.80911" lon="4.43313">
        <ele>995</ele>
        <time>2014-11-13T11:26:25Z</time>
      </trkpt>
      <trkpt lat="44.80912" lon="4.43308">
        <ele>995</ele>
        <time>2014-11-13T11:26:30Z</time>
      </trkpt>
      <trkpt lat="44.80911" lon="4.43302">
        <ele>995</ele>
        <time>2014-11-13T11:26:35Z</time>
      </trkpt>
      <trkpt lat="44.80912" lon="4.43296">
        <ele>995</ele>
        <time>2014-11-13T11:26:40Z</time>
      </trkpt>
      <trkpt lat="44.8091" lon="4.43289">
        <ele>995</ele>
        <time>2014-11-13T11:26:45Z</time>
      </trkpt>
      <trkpt lat="44.80909" lon="4.43279">
        <ele>995</ele>
        <time>2014-11-13T11:26:50Z</time>
      </trkpt>
      <trkpt lat="44.80909" lon="4.4327">
        <ele>995</ele>
        <time>2014-11-13T11:26:55Z</time>
      </trkpt>
      <trkpt lat="44.8091" lon="4.43262">
        <ele>998</ele>
        <time>2014-11-13T11:27:00Z</time>
      </trkpt>
      <trkpt lat="44.80908" lon="4.43256">
        <ele>998</ele>
        <time>2014-11-13T11:27:05Z</time>
      </trkpt>
      <trkpt lat="44.80906" lon="4.43247">
        <ele>998</ele>
        <time>2014-11-13T11:27:10Z</time>
      </trkpt>
      <trkpt lat="44.80904" lon="4.43239">
        <ele>998</ele>
        <time>2014-11-13T11:27:15Z</time>
      </trkpt>
      <trkpt lat="44.80904" lon="4.43233">
        <ele>1001</ele>
        <time>2014-11-13T11:27:20Z</time>
      </trkpt>
      <trkpt lat="44.80904" lon="4.43228">
        <ele>1001</ele>
        <time>2014-11-13T11:27:25Z</time>
      </trkpt>
      <trkpt lat="44.80899" lon="4.43223">
        <ele>997</ele>
        <time>2014-11-13T11:27:30Z</time>
      </trkpt>
      <trkpt lat="44.80894" lon="4.43219">
        <ele>997</ele>
        <time>2014-11-13T11:27:35Z</time>
      </trkpt>
      <trkpt lat="44.80894" lon="4.43213">
        <ele>997</ele>
        <time>2014-11-13T11:27:40Z</time>
      </trkpt>
      <trkpt lat="44.80894" lon="4.43208">
        <ele>999</ele>
        <time>2014-11-13T11:27:45Z</time>
      </trkpt>
      <trkpt lat="44.80892" lon="4.43202">
        <ele>999</ele>
        <time>2014-11-13T11:27:50Z</time>
      </trkpt>
      <trkpt lat="44.80891" lon="4.43194">
        <ele>999</ele>
        <time>2014-11-13T11:27:55Z</time>
      </trkpt>
      <trkpt lat="44.8089" lon="4.43187">
        <ele>999</ele>
        <time>2014-11-13T11:28:00Z</time>
      </trkpt>
      <trkpt lat="44.80887" lon="4.4318">
        <ele>1000</ele>
        <time>2014-11-13T11:28:05Z</time>
      </trkpt>
      <trkpt lat="44.80884" lon="4.43174">
        <ele>1000</ele>
        <time>2014-11-13T11:28:10Z</time>
      </trkpt>
      <trkpt lat="44.80881" lon="4.43166">
        <ele>1000</ele>
        <time>2014-11-13T11:28:15Z</time>
      </trkpt>
      <trkpt lat="44.8088" lon="4.43159">
        <ele>1000</ele>
        <time>2014-11-13T11:28:20Z</time>
      </trkpt>
      <trkpt lat="44.80879" lon="4.43156">
        <ele>1000</ele>
        <time>2014-11-13T11:28:25Z</time>
      </trkpt>
      <trkpt lat="44.80878" lon="4.43149">
        <ele>1002</ele>
        <time>2014-11-13T11:28:30Z</time>
      </trkpt>
      <trkpt lat="44.80876" lon="4.43142">
        <ele>1002</ele>
        <time>2014-11-13T11:28:35Z</time>
      </trkpt>
      <trkpt lat="44.80876" lon="4.43137">
        <ele>1002</ele>
        <time>2014-11-13T11:28:40Z</time>
      </trkpt>
      <trkpt lat="44.80876" lon="4.43129">
        <ele>1002</ele>
        <time>2014-11-13T11:28:45Z</time>
      </trkpt>
      <trkpt lat="44.80877" lon="4.43123">
        <ele>1003</ele>
        <time>2014-11-13T11:28:50Z</time>
      </trkpt>
      <trkpt lat="44.80877" lon="4.4312">
        <ele>1003</ele>
        <time>2014-11-13T11:28:55Z</time>
      </trkpt>
      <trkpt lat="44.80878" lon="4.43117">
        <ele>1003</ele>
        <time>2014-11-13T11:29:00Z</time>
      </trkpt>
      <trkpt lat="44.80878" lon="4.4311">
        <ele>1003</ele>
        <time>2014-11-13T11:29:05Z</time>
      </trkpt>
      <trkpt lat="44.80878" lon="4.43103">
        <ele>1003</ele>
        <time>2014-11-13T11:29:10Z</time>
      </trkpt>
      <trkpt lat="44.80877" lon="4.43097">
        <ele>1005</ele>
        <time>2014-11-13T11:29:15Z</time>
      </trkpt>
      <trkpt lat="44.80875" lon="4.43091">
        <ele>1005</ele>
        <time>2014-11-13T11:29:20Z</time>
      </trkpt>
      <trkpt lat="44.80874" lon="4.43085">
        <ele>999</ele>
        <time>2014-11-13T11:29:25Z</time>
      </trkpt>
      <trkpt lat="44.80872" lon="4.43079">
        <ele>999</ele>
        <time>2014-11-13T11:29:30Z</time>
      </trkpt>
      <trkpt lat="44.80869" lon="4.43076">
        <ele>999</ele>
        <time>2014-11-13T11:29:35Z</time>
      </trkpt>
      <trkpt lat="44.80867" lon="4.43074">
        <ele>999</ele>
        <time>2014-11-13T11:29:40Z</time>
      </trkpt>
      <trkpt lat="44.80865" lon="4.43069">
        <ele>1002</ele>
        <time>2014-11-13T11:29:45Z</time>
      </trkpt>
      <trkpt lat="44.80863" lon="4.43065">
        <ele>1002</ele>
        <time>2014-11-13T11:29:50Z</time>
      </trkpt>
      <trkpt lat="44.80863" lon="4.4306">
        <ele>1002</ele>
        <time>2014-11-13T11:29:55Z</time>
      </trkpt>
      <trkpt lat="44.80861" lon="4.43055">
        <ele>1002</ele>
        <time>2014-11-13T11:30:00Z</time>
      </trkpt>
      <trkpt lat="44.80861" lon="4.43047">
        <ele>1002</ele>
        <time>2014-11-13T11:30:05Z</time>
      </trkpt>
      <trkpt lat="44.80861" lon="4.43041">
        <ele>1005</ele>
        <time>2014-11-13T11:30:10Z</time>
      </trkpt>
      <trkpt lat="44.80861" lon="4.43033">
        <ele>1005</ele>
        <time>2014-11-13T11:30:15Z</time>
      </trkpt>
      <trkpt lat="44.80857" lon="4.43026">
        <ele>1005</ele>
        <time>2014-11-13T11:30:20Z</time>
      </trkpt>
      <trkpt lat="44.80855" lon="4.43024">
        <ele>1005</ele>
        <time>2014-11-13T11:30:25Z</time>
      </trkpt>
      <trkpt lat="44.80851" lon="4.43019">
        <ele>1005</ele>
        <time>2014-11-13T11:30:30Z</time>
      </trkpt>
      <trkpt lat="44.80845" lon="4.43015">
        <ele>999</ele>
        <time>2014-11-13T11:30:35Z</time>
      </trkpt>
      <trkpt lat="44.8084" lon="4.43014">
        <ele>1000</ele>
        <time>2014-11-13T11:30:40Z</time>
      </trkpt>
      <trkpt lat="44.80836" lon="4.4301">
        <ele>1000</ele>
        <time>2014-11-13T11:30:45Z</time>
      </trkpt>
      <trkpt lat="44.80833" lon="4.43006">
        <ele>1000</ele>
        <time>2014-11-13T11:30:50Z</time>
      </trkpt>
      <trkpt lat="44.80831" lon="4.43003">
        <ele>1000</ele>
        <time>2014-11-13T11:30:55Z</time>
      </trkpt>
      <trkpt lat="44.80829" lon="4.43">
        <ele>1000</ele>
        <time>2014-11-13T11:31:00Z</time>
      </trkpt>
      <trkpt lat="44.80829" lon="4.42999">
        <ele>1000</ele>
        <time>2014-11-13T11:31:05Z</time>
      </trkpt>
      <trkpt lat="44.8083" lon="4.42999">
        <ele>1000</ele>
        <time>2014-11-13T11:31:10Z</time>
      </trkpt>
      <trkpt lat="44.80829" lon="4.42999">
        <ele>1000</ele>
        <time>2014-11-13T11:31:15Z</time>
      </trkpt>
      <trkpt lat="44.80827" lon="4.43002">
        <ele>1000</ele>
        <time>2014-11-13T11:31:20Z</time>
      </trkpt>
      <trkpt lat="44.80827" lon="4.43003">
        <ele>1000</ele>
        <time>2014-11-13T11:31:25Z</time>
      </trkpt>
      <trkpt lat="44.80824" lon="4.43003">
        <ele>1000</ele>
        <time>2014-11-13T11:31:40Z</time>
      </trkpt>
      <trkpt lat="44.80821" lon="4.43002">
        <ele>1000</ele>
        <time>2014-11-13T11:31:45Z</time>
      </trkpt>
      <trkpt lat="44.80816" lon="4.43002">
        <ele>997</ele>
        <time>2014-11-13T11:31:50Z</time>
      </trkpt>
      <trkpt lat="44.80813" lon="4.43002">
        <ele>997</ele>
        <time>2014-11-13T11:31:55Z</time>
      </trkpt>
      <trkpt lat="44.8081" lon="4.43003">
        <ele>997</ele>
        <time>2014-11-13T11:32:00Z</time>
      </trkpt>
      <trkpt lat="44.80805" lon="4.43002">
        <ele>997</ele>
        <time>2014-11-13T11:32:05Z</time>
      </trkpt>
      <trkpt lat="44.80799" lon="4.43001">
        <ele>997</ele>
        <time>2014-11-13T11:32:10Z</time>
      </trkpt>
      <trkpt lat="44.80796" lon="4.42999">
        <ele>997</ele>
        <time>2014-11-13T11:32:15Z</time>
      </trkpt>
      <trkpt lat="44.80791" lon="4.42999">
        <ele>995</ele>
        <time>2014-11-13T11:32:20Z</time>
      </trkpt>
      <trkpt lat="44.80786" lon="4.42999">
        <ele>995</ele>
        <time>2014-11-13T11:32:25Z</time>
      </trkpt>
      <trkpt lat="44.80781" lon="4.42998">
        <ele>995</ele>
        <time>2014-11-13T11:32:30Z</time>
      </trkpt>
      <trkpt lat="44.80777" lon="4.42996">
        <ele>995</ele>
        <time>2014-11-13T11:32:35Z</time>
      </trkpt>
      <trkpt lat="44.80772" lon="4.42994">
        <ele>995</ele>
        <time>2014-11-13T11:32:40Z</time>
      </trkpt>
      <trkpt lat="44.8077" lon="4.42993">
        <ele>995</ele>
        <time>2014-11-13T11:32:45Z</time>
      </trkpt>
      <trkpt lat="44.80769" lon="4.42995">
        <ele>995</ele>
        <time>2014-11-13T11:32:50Z</time>
      </trkpt>
      <trkpt lat="44.80767" lon="4.42992">
        <ele>995</ele>
        <time>2014-11-13T11:32:55Z</time>
      </trkpt>
      <trkpt lat="44.80764" lon="4.42989">
        <ele>993</ele>
        <time>2014-11-13T11:33:00Z</time>
      </trkpt>
      <trkpt lat="44.80761" lon="4.42984">
        <ele>996</ele>
        <time>2014-11-13T11:33:05Z</time>
      </trkpt>
      <trkpt lat="44.80758" lon="4.42979">
        <ele>996</ele>
        <time>2014-11-13T11:33:10Z</time>
      </trkpt>
      <trkpt lat="44.80756" lon="4.42975">
        <ele>996</ele>
        <time>2014-11-13T11:33:15Z</time>
      </trkpt>
      <trkpt lat="44.80753" lon="4.4297">
        <ele>996</ele>
        <time>2014-11-13T11:33:20Z</time>
      </trkpt>
      <trkpt lat="44.80753" lon="4.42967">
        <ele>996</ele>
        <time>2014-11-13T11:33:25Z</time>
      </trkpt>
      <trkpt lat="44.8075" lon="4.42964">
        <ele>996</ele>
        <time>2014-11-13T11:33:30Z</time>
      </trkpt>
      <trkpt lat="44.80746" lon="4.42961">
        <ele>996</ele>
        <time>2014-11-13T11:33:35Z</time>
      </trkpt>
      <trkpt lat="44.80741" lon="4.42958">
        <ele>1002</ele>
        <time>2014-11-13T11:33:40Z</time>
      </trkpt>
      <trkpt lat="44.80737" lon="4.42955">
        <ele>1002</ele>
        <time>2014-11-13T11:33:45Z</time>
      </trkpt>
      <trkpt lat="44.80733" lon="4.42951">
        <ele>1002</ele>
        <time>2014-11-13T11:33:50Z</time>
      </trkpt>
      <trkpt lat="44.80729" lon="4.42946">
        <ele>1002</ele>
        <time>2014-11-13T11:33:55Z</time>
      </trkpt>
      <trkpt lat="44.80724" lon="4.42943">
        <ele>1002</ele>
        <time>2014-11-13T11:34:00Z</time>
      </trkpt>
      <trkpt lat="44.80721" lon="4.42941">
        <ele>1002</ele>
        <time>2014-11-13T11:34:05Z</time>
      </trkpt>
      <trkpt lat="44.80718" lon="4.42937">
        <ele>1002</ele>
        <time>2014-11-13T11:34:10Z</time>
      </trkpt>
      <trkpt lat="44.80714" lon="4.4293">
        <ele>1007</ele>
        <time>2014-11-13T11:34:15Z</time>
      </trkpt>
      <trkpt lat="44.8071" lon="4.42927">
        <ele>1007</ele>
        <time>2014-11-13T11:34:20Z</time>
      </trkpt>
      <trkpt lat="44.80705" lon="4.42922">
        <ele>1005</ele>
        <time>2014-11-13T11:34:25Z</time>
      </trkpt>
      <trkpt lat="44.80701" lon="4.42917">
        <ele>1005</ele>
        <time>2014-11-13T11:34:30Z</time>
      </trkpt>
      <trkpt lat="44.80697" lon="4.42914">
        <ele>1005</ele>
        <time>2014-11-13T11:34:35Z</time>
      </trkpt>
      <trkpt lat="44.80693" lon="4.42911">
        <ele>1005</ele>
        <time>2014-11-13T11:34:40Z</time>
      </trkpt>
      <trkpt lat="44.8069" lon="4.42908">
        <ele>1005</ele>
        <time>2014-11-13T11:34:45Z</time>
      </trkpt>
      <trkpt lat="44.80686" lon="4.42904">
        <ele>1005</ele>
        <time>2014-11-13T11:34:50Z</time>
      </trkpt>
      <trkpt lat="44.80682" lon="4.429">
        <ele>1010</ele>
        <time>2014-11-13T11:34:55Z</time>
      </trkpt>
      <trkpt lat="44.80678" lon="4.42896">
        <ele>1011</ele>
        <time>2014-11-13T11:35:00Z</time>
      </trkpt>
      <trkpt lat="44.80675" lon="4.42892">
        <ele>1011</ele>
        <time>2014-11-13T11:35:05Z</time>
      </trkpt>
      <trkpt lat="44.80672" lon="4.42888">
        <ele>1011</ele>
        <time>2014-11-13T11:35:10Z</time>
      </trkpt>
      <trkpt lat="44.8067" lon="4.42883">
        <ele>1011</ele>
        <time>2014-11-13T11:35:15Z</time>
      </trkpt>
      <trkpt lat="44.80669" lon="4.42878">
        <ele>1011</ele>
        <time>2014-11-13T11:35:20Z</time>
      </trkpt>
      <trkpt lat="44.80668" lon="4.42872">
        <ele>1016</ele>
        <time>2014-11-13T11:35:25Z</time>
      </trkpt>
      <trkpt lat="44.80667" lon="4.42869">
        <ele>1016</ele>
        <time>2014-11-13T11:35:30Z</time>
      </trkpt>
      <trkpt lat="44.80668" lon="4.42863">
        <ele>1016</ele>
        <time>2014-11-13T11:35:35Z</time>
      </trkpt>
      <trkpt lat="44.80671" lon="4.42856">
        <ele>1016</ele>
        <time>2014-11-13T11:35:40Z</time>
      </trkpt>
      <trkpt lat="44.80673" lon="4.42851">
        <ele>1016</ele>
        <time>2014-11-13T11:35:45Z</time>
      </trkpt>
      <trkpt lat="44.80674" lon="4.42843">
        <ele>1018</ele>
        <time>2014-11-13T11:35:50Z</time>
      </trkpt>
      <trkpt lat="44.80673" lon="4.42837">
        <ele>1018</ele>
        <time>2014-11-13T11:35:55Z</time>
      </trkpt>
      <trkpt lat="44.80672" lon="4.42832">
        <ele>1018</ele>
        <time>2014-11-13T11:36:00Z</time>
      </trkpt>
      <trkpt lat="44.80669" lon="4.42826">
        <ele>1018</ele>
        <time>2014-11-13T11:36:05Z</time>
      </trkpt>
      <trkpt lat="44.80666" lon="4.42821">
        <ele>1018</ele>
        <time>2014-11-13T11:36:10Z</time>
      </trkpt>
      <trkpt lat="44.80662" lon="4.42818">
        <ele>1018</ele>
        <time>2014-11-13T11:36:15Z</time>
      </trkpt>
      <trkpt lat="44.80657" lon="4.42815">
        <ele>1018</ele>
        <time>2014-11-13T11:36:20Z</time>
      </trkpt>
      <trkpt lat="44.80652" lon="4.42811">
        <ele>1018</ele>
        <time>2014-11-13T11:36:25Z</time>
      </trkpt>
      <trkpt lat="44.80647" lon="4.42806">
        <ele>1018</ele>
        <time>2014-11-13T11:36:30Z</time>
      </trkpt>
      <trkpt lat="44.80645" lon="4.42802">
        <ele>1018</ele>
        <time>2014-11-13T11:36:35Z</time>
      </trkpt>
      <trkpt lat="44.80642" lon="4.42799">
        <ele>1018</ele>
        <time>2014-11-13T11:36:40Z</time>
      </trkpt>
      <trkpt lat="44.80638" lon="4.42796">
        <ele>1018</ele>
        <time>2014-11-13T11:36:45Z</time>
      </trkpt>
      <trkpt lat="44.80633" lon="4.42794">
        <ele>1018</ele>
        <time>2014-11-13T11:36:50Z</time>
      </trkpt>
      <trkpt lat="44.8063" lon="4.42792">
        <ele>1018</ele>
        <time>2014-11-13T11:36:55Z</time>
      </trkpt>
      <trkpt lat="44.80627" lon="4.4279">
        <ele>1019</ele>
        <time>2014-11-13T11:37:00Z</time>
      </trkpt>
      <trkpt lat="44.80625" lon="4.42788">
        <ele>1019</ele>
        <time>2014-11-13T11:37:05Z</time>
      </trkpt>
      <trkpt lat="44.80625" lon="4.42791">
        <ele>1019</ele>
        <time>2014-11-13T11:37:10Z</time>
      </trkpt>
      <trkpt lat="44.80625" lon="4.4279">
        <ele>1018</ele>
        <time>2014-11-13T11:37:15Z</time>
      </trkpt>
      <trkpt lat="44.80624" lon="4.42789">
        <ele>1018</ele>
        <time>2014-11-13T11:37:20Z</time>
      </trkpt>
      <trkpt lat="44.80624" lon="4.4279">
        <ele>1018</ele>
        <time>2014-11-13T11:37:25Z</time>
      </trkpt>
      <trkpt lat="44.80623" lon="4.4279">
        <ele>1018</ele>
        <time>2014-11-13T11:37:30Z</time>
      </trkpt>
      <trkpt lat="44.80625" lon="4.42789">
        <ele>1018</ele>
        <time>2014-11-13T11:37:40Z</time>
      </trkpt>
      <trkpt lat="44.80625" lon="4.42788">
        <ele>1018</ele>
        <time>2014-11-13T11:37:45Z</time>
      </trkpt>
      <trkpt lat="44.80625" lon="4.42787">
        <ele>1019</ele>
        <time>2014-11-13T11:37:50Z</time>
      </trkpt>
      <trkpt lat="44.80626" lon="4.42785">
        <ele>1019</ele>
        <time>2014-11-13T11:37:55Z</time>
      </trkpt>
      <trkpt lat="44.80627" lon="4.42785">
        <ele>1019</ele>
        <time>2014-11-13T11:38:00Z</time>
      </trkpt>
      <trkpt lat="44.80625" lon="4.42784">
        <ele>1019</ele>
        <time>2014-11-13T11:38:05Z</time>
      </trkpt>
      <trkpt lat="44.80625" lon="4.42783">
        <ele>1018</ele>
        <time>2014-11-13T11:38:10Z</time>
      </trkpt>
      <trkpt lat="44.80622" lon="4.42784">
        <ele>1018</ele>
        <time>2014-11-13T11:38:15Z</time>
      </trkpt>
      <trkpt lat="44.80621" lon="4.42784">
        <ele>1018</ele>
        <time>2014-11-13T11:38:20Z</time>
      </trkpt>
      <trkpt lat="44.80622" lon="4.42783">
        <ele>1018</ele>
        <time>2014-11-13T11:38:25Z</time>
      </trkpt>
      <trkpt lat="44.80622" lon="4.42781">
        <ele>1018</ele>
        <time>2014-11-13T11:38:30Z</time>
      </trkpt>
      <trkpt lat="44.80622" lon="4.42782">
        <ele>1018</ele>
        <time>2014-11-13T11:38:35Z</time>
      </trkpt>
      <trkpt lat="44.80622" lon="4.4278">
        <ele>1018</ele>
        <time>2014-11-13T11:38:40Z</time>
      </trkpt>
      <trkpt lat="44.80623" lon="4.4278">
        <ele>1018</ele>
        <time>2014-11-13T11:38:45Z</time>
      </trkpt>
      <trkpt lat="44.80624" lon="4.42782">
        <ele>1018</ele>
        <time>2014-11-13T11:38:50Z</time>
      </trkpt>
      <trkpt lat="44.80622" lon="4.42784">
        <ele>1018</ele>
        <time>2014-11-13T11:38:55Z</time>
      </trkpt>
      <trkpt lat="44.80622" lon="4.42783">
        <ele>1018</ele>
        <time>2014-11-13T11:39:00Z</time>
      </trkpt>
      <trkpt lat="44.80623" lon="4.42781">
        <ele>1018</ele>
        <time>2014-11-13T11:39:05Z</time>
      </trkpt>
      <trkpt lat="44.80623" lon="4.4278">
        <ele>1018</ele>
        <time>2014-11-13T11:39:10Z</time>
      </trkpt>
      <trkpt lat="44.80623" lon="4.42778">
        <ele>1018</ele>
        <time>2014-11-13T11:39:15Z</time>
      </trkpt>
      <trkpt lat="44.80621" lon="4.42781">
        <ele>1018</ele>
        <time>2014-11-13T11:39:20Z</time>
      </trkpt>
      <trkpt lat="44.8062" lon="4.42782">
        <ele>1018</ele>
        <time>2014-11-13T11:39:25Z</time>
      </trkpt>
      <trkpt lat="44.80619" lon="4.42781">
        <ele>1018</ele>
        <time>2014-11-13T11:39:30Z</time>
      </trkpt>
      <trkpt lat="44.80619" lon="4.4278">
        <ele>1018</ele>
        <time>2014-11-13T11:39:40Z</time>
      </trkpt>
      <trkpt lat="44.80621" lon="4.4278">
        <ele>1018</ele>
        <time>2014-11-13T11:39:45Z</time>
      </trkpt>
      <trkpt lat="44.80621" lon="4.42781">
        <ele>1018</ele>
        <time>2014-11-13T11:39:50Z</time>
      </trkpt>
      <trkpt lat="44.8062" lon="4.42782">
        <ele>1018</ele>
        <time>2014-11-13T11:39:55Z</time>
      </trkpt>
      <trkpt lat="44.8062" lon="4.42783">
        <ele>1018</ele>
        <time>2014-11-13T11:40:00Z</time>
      </trkpt>
      <trkpt lat="44.80621" lon="4.42781">
        <ele>1018</ele>
        <time>2014-11-13T11:40:10Z</time>
      </trkpt>
      <trkpt lat="44.80624" lon="4.42774">
        <ele>1018</ele>
        <time>2014-11-13T11:40:15Z</time>
      </trkpt>
      <trkpt lat="44.80621" lon="4.42771">
        <ele>1018</ele>
        <time>2014-11-13T11:40:20Z</time>
      </trkpt>
      <trkpt lat="44.8062" lon="4.42768">
        <ele>1018</ele>
        <time>2014-11-13T11:40:25Z</time>
      </trkpt>
      <trkpt lat="44.8062" lon="4.42761">
        <ele>1019</ele>
        <time>2014-11-13T11:40:30Z</time>
      </trkpt>
      <trkpt lat="44.8062" lon="4.42756">
        <ele>1019</ele>
        <time>2014-11-13T11:40:35Z</time>
      </trkpt>
      <trkpt lat="44.8062" lon="4.42752">
        <ele>1019</ele>
        <time>2014-11-13T11:40:40Z</time>
      </trkpt>
      <trkpt lat="44.80621" lon="4.4275">
        <ele>1019</ele>
        <time>2014-11-13T11:40:45Z</time>
      </trkpt>
      <trkpt lat="44.80622" lon="4.42751">
        <ele>1019</ele>
        <time>2014-11-13T11:40:50Z</time>
      </trkpt>
      <trkpt lat="44.80623" lon="4.42751">
        <ele>1019</ele>
        <time>2014-11-13T11:40:55Z</time>
      </trkpt>
      <trkpt lat="44.80624" lon="4.42748">
        <ele>1019</ele>
        <time>2014-11-13T11:41:00Z</time>
      </trkpt>
      <trkpt lat="44.80626" lon="4.42743">
        <ele>1018</ele>
        <time>2014-11-13T11:41:05Z</time>
      </trkpt>
      <trkpt lat="44.80627" lon="4.42734">
        <ele>1015</ele>
        <time>2014-11-13T11:41:10Z</time>
      </trkpt>
      <trkpt lat="44.80626" lon="4.4273">
        <ele>1015</ele>
        <time>2014-11-13T11:41:15Z</time>
      </trkpt>
      <trkpt lat="44.80625" lon="4.42727">
        <ele>1018</ele>
        <time>2014-11-13T11:41:20Z</time>
      </trkpt>
      <trkpt lat="44.80624" lon="4.42725">
        <ele>1018</ele>
        <time>2014-11-13T11:41:25Z</time>
      </trkpt>
      <trkpt lat="44.80623" lon="4.42724">
        <ele>1018</ele>
        <time>2014-11-13T11:41:30Z</time>
      </trkpt>
      <trkpt lat="44.80624" lon="4.42724">
        <ele>1018</ele>
        <time>2014-11-13T11:41:35Z</time>
      </trkpt>
      <trkpt lat="44.80624" lon="4.42722">
        <ele>1018</ele>
        <time>2014-11-13T11:41:40Z</time>
      </trkpt>
      <trkpt lat="44.80624" lon="4.42715">
        <ele>1018</ele>
        <time>2014-11-13T11:41:45Z</time>
      </trkpt>
      <trkpt lat="44.80623" lon="4.42708">
        <ele>1014</ele>
        <time>2014-11-13T11:41:50Z</time>
      </trkpt>
      <trkpt lat="44.80622" lon="4.42703">
        <ele>1014</ele>
        <time>2014-11-13T11:41:55Z</time>
      </trkpt>
      <trkpt lat="44.80622" lon="4.42695">
        <ele>1014</ele>
        <time>2014-11-13T11:42:00Z</time>
      </trkpt>
      <trkpt lat="44.80621" lon="4.42686">
        <ele>1014</ele>
        <time>2014-11-13T11:42:05Z</time>
      </trkpt>
      <trkpt lat="44.8062" lon="4.42677">
        <ele>1013</ele>
        <time>2014-11-13T11:42:10Z</time>
      </trkpt>
      <trkpt lat="44.80621" lon="4.4267">
        <ele>1013</ele>
        <time>2014-11-13T11:42:15Z</time>
      </trkpt>
      <trkpt lat="44.8062" lon="4.42661">
        <ele>1013</ele>
        <time>2014-11-13T11:42:20Z</time>
      </trkpt>
      <trkpt lat="44.80621" lon="4.42652">
        <ele>1015</ele>
        <time>2014-11-13T11:42:25Z</time>
      </trkpt>
      <trkpt lat="44.8062" lon="4.42643">
        <ele>1015</ele>
        <time>2014-11-13T11:42:30Z</time>
      </trkpt>
      <trkpt lat="44.80621" lon="4.42634">
        <ele>1015</ele>
        <time>2014-11-13T11:42:35Z</time>
      </trkpt>
      <trkpt lat="44.80622" lon="4.42624">
        <ele>1017</ele>
        <time>2014-11-13T11:42:40Z</time>
      </trkpt>
      <trkpt lat="44.80622" lon="4.42614">
        <ele>1017</ele>
        <time>2014-11-13T11:42:45Z</time>
      </trkpt>
      <trkpt lat="44.80623" lon="4.42605">
        <ele>1017</ele>
        <time>2014-11-13T11:42:50Z</time>
      </trkpt>
      <trkpt lat="44.80622" lon="4.42596">
        <ele>1018</ele>
        <time>2014-11-13T11:42:55Z</time>
      </trkpt>
      <trkpt lat="44.80621" lon="4.42588">
        <ele>1018</ele>
        <time>2014-11-13T11:43:00Z</time>
      </trkpt>
      <trkpt lat="44.8062" lon="4.42581">
        <ele>1018</ele>
        <time>2014-11-13T11:43:05Z</time>
      </trkpt>
      <trkpt lat="44.80619" lon="4.42571">
        <ele>1018</ele>
        <time>2014-11-13T11:43:10Z</time>
      </trkpt>
      <trkpt lat="44.80619" lon="4.42559">
        <ele>1017</ele>
        <time>2014-11-13T11:43:15Z</time>
      </trkpt>
      <trkpt lat="44.8062" lon="4.4255">
        <ele>1017</ele>
        <time>2014-11-13T11:43:20Z</time>
      </trkpt>
      <trkpt lat="44.8062" lon="4.42541">
        <ele>1018</ele>
        <time>2014-11-13T11:43:25Z</time>
      </trkpt>
      <trkpt lat="44.80619" lon="4.42532">
        <ele>1018</ele>
        <time>2014-11-13T11:43:30Z</time>
      </trkpt>
      <trkpt lat="44.80619" lon="4.42523">
        <ele>1018</ele>
        <time>2014-11-13T11:43:35Z</time>
      </trkpt>
      <trkpt lat="44.80619" lon="4.42514">
        <ele>1018</ele>
        <time>2014-11-13T11:43:40Z</time>
      </trkpt>
      <trkpt lat="44.80619" lon="4.42505">
        <ele>1018</ele>
        <time>2014-11-13T11:43:45Z</time>
      </trkpt>
      <trkpt lat="44.80619" lon="4.42496">
        <ele>1018</ele>
        <time>2014-11-13T11:43:50Z</time>
      </trkpt>
      <trkpt lat="44.8062" lon="4.42487">
        <ele>1018</ele>
        <time>2014-11-13T11:43:55Z</time>
      </trkpt>
      <trkpt lat="44.80622" lon="4.42477">
        <ele>1018</ele>
        <time>2014-11-13T11:44:00Z</time>
      </trkpt>
      <trkpt lat="44.80623" lon="4.4247">
        <ele>1018</ele>
        <time>2014-11-13T11:44:05Z</time>
      </trkpt>
      <trkpt lat="44.80624" lon="4.42461">
        <ele>1018</ele>
        <time>2014-11-13T11:44:10Z</time>
      </trkpt>
      <trkpt lat="44.80625" lon="4.42453">
        <ele>1020</ele>
        <time>2014-11-13T11:44:15Z</time>
      </trkpt>
      <trkpt lat="44.80626" lon="4.42444">
        <ele>1010</ele>
        <time>2014-11-13T11:44:20Z</time>
      </trkpt>
      <trkpt lat="44.80626" lon="4.42437">
        <ele>1010</ele>
        <time>2014-11-13T11:44:25Z</time>
      </trkpt>
      <trkpt lat="44.80627" lon="4.4243">
        <ele>1010</ele>
        <time>2014-11-13T11:44:30Z</time>
      </trkpt>
      <trkpt lat="44.80628" lon="4.42423">
        <ele>1010</ele>
        <time>2014-11-13T11:44:35Z</time>
      </trkpt>
      <trkpt lat="44.80628" lon="4.42419">
        <ele>1010</ele>
        <time>2014-11-13T11:44:40Z</time>
      </trkpt>
      <trkpt lat="44.80629" lon="4.42413">
        <ele>1010</ele>
        <time>2014-11-13T11:44:45Z</time>
      </trkpt>
      <trkpt lat="44.8063" lon="4.42406">
        <ele>1010</ele>
        <time>2014-11-13T11:44:50Z</time>
      </trkpt>
      <trkpt lat="44.80632" lon="4.42399">
        <ele>1009</ele>
        <time>2014-11-13T11:44:55Z</time>
      </trkpt>
      <trkpt lat="44.80634" lon="4.42391">
        <ele>1009</ele>
        <time>2014-11-13T11:45:00Z</time>
      </trkpt>
      <trkpt lat="44.80635" lon="4.42385">
        <ele>1009</ele>
        <time>2014-11-13T11:45:05Z</time>
      </trkpt>
      <trkpt lat="44.80637" lon="4.42377">
        <ele>1009</ele>
        <time>2014-11-13T11:45:10Z</time>
      </trkpt>
      <trkpt lat="44.80639" lon="4.42371">
        <ele>1013</ele>
        <time>2014-11-13T11:45:15Z</time>
      </trkpt>
      <trkpt lat="44.80641" lon="4.42364">
        <ele>1013</ele>
        <time>2014-11-13T11:45:20Z</time>
      </trkpt>
      <trkpt lat="44.80644" lon="4.42358">
        <ele>1013</ele>
        <time>2014-11-13T11:45:25Z</time>
      </trkpt>
      <trkpt lat="44.80646" lon="4.4235">
        <ele>1013</ele>
        <time>2014-11-13T11:45:30Z</time>
      </trkpt>
      <trkpt lat="44.80648" lon="4.42343">
        <ele>1018</ele>
        <time>2014-11-13T11:45:35Z</time>
      </trkpt>
      <trkpt lat="44.8065" lon="4.42337">
        <ele>1018</ele>
        <time>2014-11-13T11:45:40Z</time>
      </trkpt>
      <trkpt lat="44.80653" lon="4.4233">
        <ele>1009</ele>
        <time>2014-11-13T11:45:45Z</time>
      </trkpt>
      <trkpt lat="44.80655" lon="4.42324">
        <ele>1009</ele>
        <time>2014-11-13T11:45:50Z</time>
      </trkpt>
      <trkpt lat="44.80657" lon="4.42318">
        <ele>1013</ele>
        <time>2014-11-13T11:45:55Z</time>
      </trkpt>
      <trkpt lat="44.80659" lon="4.4231">
        <ele>1013</ele>
        <time>2014-11-13T11:46:00Z</time>
      </trkpt>
      <trkpt lat="44.80661" lon="4.42303">
        <ele>1013</ele>
        <time>2014-11-13T11:46:05Z</time>
      </trkpt>
      <trkpt lat="44.80663" lon="4.42297">
        <ele>1013</ele>
        <time>2014-11-13T11:46:10Z</time>
      </trkpt>
      <trkpt lat="44.80663" lon="4.42289">
        <ele>1016</ele>
        <time>2014-11-13T11:46:15Z</time>
      </trkpt>
      <trkpt lat="44.80664" lon="4.42281">
        <ele>1016</ele>
        <time>2014-11-13T11:46:20Z</time>
      </trkpt>
      <trkpt lat="44.80663" lon="4.42273">
        <ele>1016</ele>
        <time>2014-11-13T11:46:25Z</time>
      </trkpt>
      <trkpt lat="44.80662" lon="4.42266">
        <ele>1016</ele>
        <time>2014-11-13T11:46:30Z</time>
      </trkpt>
      <trkpt lat="44.8066" lon="4.42258">
        <ele>1016</ele>
        <time>2014-11-13T11:46:35Z</time>
      </trkpt>
      <trkpt lat="44.80659" lon="4.4225">
        <ele>1016</ele>
        <time>2014-11-13T11:46:40Z</time>
      </trkpt>
      <trkpt lat="44.80657" lon="4.4224">
        <ele>1016</ele>
        <time>2014-11-13T11:46:45Z</time>
      </trkpt>
      <trkpt lat="44.80655" lon="4.42233">
        <ele>1012</ele>
        <time>2014-11-13T11:46:50Z</time>
      </trkpt>
      <trkpt lat="44.80654" lon="4.42223">
        <ele>1012</ele>
        <time>2014-11-13T11:46:55Z</time>
      </trkpt>
      <trkpt lat="44.80653" lon="4.42216">
        <ele>1020</ele>
        <time>2014-11-13T11:47:00Z</time>
      </trkpt>
      <trkpt lat="44.80651" lon="4.42208">
        <ele>1018</ele>
        <time>2014-11-13T11:47:05Z</time>
      </trkpt>
      <trkpt lat="44.80649" lon="4.42199">
        <ele>1018</ele>
        <time>2014-11-13T11:47:10Z</time>
      </trkpt>
      <trkpt lat="44.80647" lon="4.42192">
        <ele>1018</ele>
        <time>2014-11-13T11:47:15Z</time>
      </trkpt>
      <trkpt lat="44.80644" lon="4.42185">
        <ele>1018</ele>
        <time>2014-11-13T11:47:20Z</time>
      </trkpt>
      <trkpt lat="44.80642" lon="4.42179">
        <ele>1015</ele>
        <time>2014-11-13T11:47:25Z</time>
      </trkpt>
      <trkpt lat="44.8064" lon="4.42172">
        <ele>1015</ele>
        <time>2014-11-13T11:47:30Z</time>
      </trkpt>
      <trkpt lat="44.8064" lon="4.42163">
        <ele>1015</ele>
        <time>2014-11-13T11:47:35Z</time>
      </trkpt>
      <trkpt lat="44.8064" lon="4.42157">
        <ele>1015</ele>
        <time>2014-11-13T11:47:40Z</time>
      </trkpt>
      <trkpt lat="44.8064" lon="4.42149">
        <ele>1013</ele>
        <time>2014-11-13T11:47:45Z</time>
      </trkpt>
      <trkpt lat="44.80639" lon="4.4214">
        <ele>1013</ele>
        <time>2014-11-13T11:47:50Z</time>
      </trkpt>
      <trkpt lat="44.80638" lon="4.42134">
        <ele>1013</ele>
        <time>2014-11-13T11:47:55Z</time>
      </trkpt>
      <trkpt lat="44.80636" lon="4.42125">
        <ele>1011</ele>
        <time>2014-11-13T11:48:00Z</time>
      </trkpt>
      <trkpt lat="44.80636" lon="4.42117">
        <ele>1011</ele>
        <time>2014-11-13T11:48:05Z</time>
      </trkpt>
      <trkpt lat="44.80636" lon="4.42108">
        <ele>1011</ele>
        <time>2014-11-13T11:48:10Z</time>
      </trkpt>
      <trkpt lat="44.80636" lon="4.42102">
        <ele>1011</ele>
        <time>2014-11-13T11:48:15Z</time>
      </trkpt>
      <trkpt lat="44.80637" lon="4.42093">
        <ele>1011</ele>
        <time>2014-11-13T11:48:20Z</time>
      </trkpt>
      <trkpt lat="44.80639" lon="4.42084">
        <ele>1011</ele>
        <time>2014-11-13T11:48:25Z</time>
      </trkpt>
      <trkpt lat="44.80641" lon="4.42076">
        <ele>1011</ele>
        <time>2014-11-13T11:48:30Z</time>
      </trkpt>
      <trkpt lat="44.80643" lon="4.42066">
        <ele>1011</ele>
        <time>2014-11-13T11:48:35Z</time>
      </trkpt>
      <trkpt lat="44.80644" lon="4.42058">
        <ele>1011</ele>
        <time>2014-11-13T11:48:40Z</time>
      </trkpt>
      <trkpt lat="44.80645" lon="4.42051">
        <ele>1011</ele>
        <time>2014-11-13T11:48:45Z</time>
      </trkpt>
      <trkpt lat="44.80647" lon="4.42044">
        <ele>1011</ele>
        <time>2014-11-13T11:48:50Z</time>
      </trkpt>
      <trkpt lat="44.80648" lon="4.42036">
        <ele>1010</ele>
        <time>2014-11-13T11:48:55Z</time>
      </trkpt>
      <trkpt lat="44.80647" lon="4.4203">
        <ele>1010</ele>
        <time>2014-11-13T11:49:00Z</time>
      </trkpt>
      <trkpt lat="44.80642" lon="4.42023">
        <ele>1010</ele>
        <time>2014-11-13T11:49:05Z</time>
      </trkpt>
      <trkpt lat="44.8064" lon="4.42015">
        <ele>1010</ele>
        <time>2014-11-13T11:49:10Z</time>
      </trkpt>
      <trkpt lat="44.80637" lon="4.42009">
        <ele>1009</ele>
        <time>2014-11-13T11:49:15Z</time>
      </trkpt>
      <trkpt lat="44.80634" lon="4.42002">
        <ele>1009</ele>
        <time>2014-11-13T11:49:20Z</time>
      </trkpt>
      <trkpt lat="44.80631" lon="4.41996">
        <ele>1009</ele>
        <time>2014-11-13T11:49:25Z</time>
      </trkpt>
      <trkpt lat="44.80628" lon="4.4199">
        <ele>1009</ele>
        <time>2014-11-13T11:49:30Z</time>
      </trkpt>
      <trkpt lat="44.80625" lon="4.41984">
        <ele>1018</ele>
        <time>2014-11-13T11:49:35Z</time>
      </trkpt>
      <trkpt lat="44.80622" lon="4.41978">
        <ele>1018</ele>
        <time>2014-11-13T11:49:40Z</time>
      </trkpt>
      <trkpt lat="44.8062" lon="4.41972">
        <ele>1018</ele>
        <time>2014-11-13T11:49:45Z</time>
      </trkpt>
      <trkpt lat="44.80617" lon="4.41964">
        <ele>1018</ele>
        <time>2014-11-13T11:49:50Z</time>
      </trkpt>
      <trkpt lat="44.80614" lon="4.41957">
        <ele>1019</ele>
        <time>2014-11-13T11:49:55Z</time>
      </trkpt>
      <trkpt lat="44.80611" lon="4.41951">
        <ele>1019</ele>
        <time>2014-11-13T11:50:00Z</time>
      </trkpt>
      <trkpt lat="44.80608" lon="4.41945">
        <ele>1019</ele>
        <time>2014-11-13T11:50:05Z</time>
      </trkpt>
      <trkpt lat="44.80605" lon="4.41938">
        <ele>1019</ele>
        <time>2014-11-13T11:50:10Z</time>
      </trkpt>
      <trkpt lat="44.80602" lon="4.41931">
        <ele>1019</ele>
        <time>2014-11-13T11:50:15Z</time>
      </trkpt>
      <trkpt lat="44.80599" lon="4.41923">
        <ele>1017</ele>
        <time>2014-11-13T11:50:20Z</time>
      </trkpt>
      <trkpt lat="44.80596" lon="4.41918">
        <ele>1024</ele>
        <time>2014-11-13T11:50:25Z</time>
      </trkpt>
      <trkpt lat="44.80592" lon="4.41911">
        <ele>1024</ele>
        <time>2014-11-13T11:50:30Z</time>
      </trkpt>
      <trkpt lat="44.8059" lon="4.41905">
        <ele>1024</ele>
        <time>2014-11-13T11:50:35Z</time>
      </trkpt>
      <trkpt lat="44.80587" lon="4.41897">
        <ele>1019</ele>
        <time>2014-11-13T11:50:40Z</time>
      </trkpt>
      <trkpt lat="44.80584" lon="4.41891">
        <ele>1019</ele>
        <time>2014-11-13T11:50:45Z</time>
      </trkpt>
      <trkpt lat="44.80581" lon="4.41885">
        <ele>1019</ele>
        <time>2014-11-13T11:50:50Z</time>
      </trkpt>
      <trkpt lat="44.80577" lon="4.41879">
        <ele>1019</ele>
        <time>2014-11-13T11:50:55Z</time>
      </trkpt>
      <trkpt lat="44.80574" lon="4.41872">
        <ele>1017</ele>
        <time>2014-11-13T11:51:00Z</time>
      </trkpt>
      <trkpt lat="44.8057" lon="4.41866">
        <ele>1017</ele>
        <time>2014-11-13T11:51:05Z</time>
      </trkpt>
      <trkpt lat="44.80566" lon="4.41859">
        <ele>1027</ele>
        <time>2014-11-13T11:51:10Z</time>
      </trkpt>
      <trkpt lat="44.80563" lon="4.41852">
        <ele>1027</ele>
        <time>2014-11-13T11:51:15Z</time>
      </trkpt>
      <trkpt lat="44.80562" lon="4.41847">
        <ele>1027</ele>
        <time>2014-11-13T11:51:20Z</time>
      </trkpt>
      <trkpt lat="44.80559" lon="4.41841">
        <ele>1027</ele>
        <time>2014-11-13T11:51:25Z</time>
      </trkpt>
      <trkpt lat="44.80556" lon="4.41835">
        <ele>1027</ele>
        <time>2014-11-13T11:51:30Z</time>
      </trkpt>
      <trkpt lat="44.80553" lon="4.41828">
        <ele>1027</ele>
        <time>2014-11-13T11:51:35Z</time>
      </trkpt>
      <trkpt lat="44.80549" lon="4.41823">
        <ele>1027</ele>
        <time>2014-11-13T11:51:40Z</time>
      </trkpt>
      <trkpt lat="44.80546" lon="4.41818">
        <ele>1029</ele>
        <time>2014-11-13T11:51:45Z</time>
      </trkpt>
      <trkpt lat="44.80545" lon="4.41814">
        <ele>1029</ele>
        <time>2014-11-13T11:51:50Z</time>
      </trkpt>
      <trkpt lat="44.80541" lon="4.41813">
        <ele>1033</ele>
        <time>2014-11-13T11:51:55Z</time>
      </trkpt>
      <trkpt lat="44.80538" lon="4.41807">
        <ele>1033</ele>
        <time>2014-11-13T11:52:00Z</time>
      </trkpt>
      <trkpt lat="44.80534" lon="4.41802">
        <ele>1033</ele>
        <time>2014-11-13T11:52:05Z</time>
      </trkpt>
      <trkpt lat="44.80532" lon="4.41797">
        <ele>1033</ele>
        <time>2014-11-13T11:52:10Z</time>
      </trkpt>
      <trkpt lat="44.80532" lon="4.41795">
        <ele>1033</ele>
        <time>2014-11-13T11:52:15Z</time>
      </trkpt>
      <trkpt lat="44.80531" lon="4.41796">
        <ele>1033</ele>
        <time>2014-11-13T11:52:20Z</time>
      </trkpt>
      <trkpt lat="44.80531" lon="4.41798">
        <ele>1033</ele>
        <time>2014-11-13T11:52:25Z</time>
      </trkpt>
      <trkpt lat="44.80531" lon="4.41797">
        <ele>1033</ele>
        <time>2014-11-13T11:52:35Z</time>
      </trkpt>
      <trkpt lat="44.80531" lon="4.41796">
        <ele>1033</ele>
        <time>2014-11-13T11:52:40Z</time>
      </trkpt>
      <trkpt lat="44.80532" lon="4.41795">
        <ele>1033</ele>
        <time>2014-11-13T11:52:45Z</time>
      </trkpt>
      <trkpt lat="44.80532" lon="4.41793">
        <ele>1033</ele>
        <time>2014-11-13T11:52:50Z</time>
      </trkpt>
      <trkpt lat="44.80532" lon="4.41792">
        <ele>1033</ele>
        <time>2014-11-13T11:52:55Z</time>
      </trkpt>
      <trkpt lat="44.80531" lon="4.41792">
        <ele>1033</ele>
        <time>2014-11-13T11:53:00Z</time>
      </trkpt>
      <trkpt lat="44.8053" lon="4.41793">
        <ele>1033</ele>
        <time>2014-11-13T11:53:10Z</time>
      </trkpt>
      <trkpt lat="44.8053" lon="4.41792">
        <ele>1033</ele>
        <time>2014-11-13T11:53:15Z</time>
      </trkpt>
      <trkpt lat="44.8053" lon="4.41791">
        <ele>1031</ele>
        <time>2014-11-13T11:53:25Z</time>
      </trkpt>
      <trkpt lat="44.8053" lon="4.4179">
        <ele>1031</ele>
        <time>2014-11-13T11:53:30Z</time>
      </trkpt>
      <trkpt lat="44.80529" lon="4.4179">
        <ele>1031</ele>
        <time>2014-11-13T11:53:45Z</time>
      </trkpt>
      <trkpt lat="44.80529" lon="4.41792">
        <ele>1033</ele>
        <time>2014-11-13T11:53:50Z</time>
      </trkpt>
      <trkpt lat="44.80528" lon="4.41793">
        <ele>1033</ele>
        <time>2014-11-13T11:54:05Z</time>
      </trkpt>
      <trkpt lat="44.80528" lon="4.41795">
        <ele>1033</ele>
        <time>2014-11-13T11:54:10Z</time>
      </trkpt>
      <trkpt lat="44.80528" lon="4.41797">
        <ele>1033</ele>
        <time>2014-11-13T11:54:15Z</time>
      </trkpt>
      <trkpt lat="44.80528" lon="4.41803">
        <ele>1033</ele>
        <time>2014-11-13T11:54:20Z</time>
      </trkpt>
      <trkpt lat="44.80528" lon="4.41808">
        <ele>1033</ele>
        <time>2014-11-13T11:54:25Z</time>
      </trkpt>
      <trkpt lat="44.80529" lon="4.41813">
        <ele>1033</ele>
        <time>2014-11-13T11:54:30Z</time>
      </trkpt>
      <trkpt lat="44.8053" lon="4.41813">
        <ele>1033</ele>
        <time>2014-11-13T11:54:35Z</time>
      </trkpt>
      <trkpt lat="44.80528" lon="4.4181">
        <ele>1033</ele>
        <time>2014-11-13T11:54:40Z</time>
      </trkpt>
      <trkpt lat="44.80527" lon="4.41807">
        <ele>1033</ele>
        <time>2014-11-13T11:54:45Z</time>
      </trkpt>
      <trkpt lat="44.80527" lon="4.41809">
        <ele>1033</ele>
        <time>2014-11-13T11:54:50Z</time>
      </trkpt>
      <trkpt lat="44.80528" lon="4.41808">
        <ele>1033</ele>
        <time>2014-11-13T11:55:00Z</time>
      </trkpt>
      <trkpt lat="44.80528" lon="4.41807">
        <ele>1033</ele>
        <time>2014-11-13T11:55:05Z</time>
      </trkpt>
      <trkpt lat="44.80529" lon="4.41811">
        <ele>1033</ele>
        <time>2014-11-13T11:55:10Z</time>
      </trkpt>
      <trkpt lat="44.80528" lon="4.4182">
        <ele>1034</ele>
        <time>2014-11-13T11:55:15Z</time>
      </trkpt>
      <trkpt lat="44.80527" lon="4.41829">
        <ele>1034</ele>
        <time>2014-11-13T11:55:20Z</time>
      </trkpt>
      <trkpt lat="44.80526" lon="4.41835">
        <ele>1034</ele>
        <time>2014-11-13T11:55:25Z</time>
      </trkpt>
      <trkpt lat="44.80525" lon="4.41842">
        <ele>1034</ele>
        <time>2014-11-13T11:55:30Z</time>
      </trkpt>
      <trkpt lat="44.80523" lon="4.41848">
        <ele>1033</ele>
        <time>2014-11-13T11:55:35Z</time>
      </trkpt>
      <trkpt lat="44.8052" lon="4.41854">
        <ele>1033</ele>
        <time>2014-11-13T11:55:40Z</time>
      </trkpt>
      <trkpt lat="44.80518" lon="4.41858">
        <ele>1033</ele>
        <time>2014-11-13T11:55:45Z</time>
      </trkpt>
      <trkpt lat="44.80515" lon="4.41865">
        <ele>1033</ele>
        <time>2014-11-13T11:55:50Z</time>
      </trkpt>
      <trkpt lat="44.80511" lon="4.41869">
        <ele>1034</ele>
        <time>2014-11-13T11:55:55Z</time>
      </trkpt>
      <trkpt lat="44.80507" lon="4.41874">
        <ele>1034</ele>
        <time>2014-11-13T11:56:00Z</time>
      </trkpt>
      <trkpt lat="44.80502" lon="4.41878">
        <ele>1037</ele>
        <time>2014-11-13T11:56:05Z</time>
      </trkpt>
      <trkpt lat="44.80499" lon="4.41881">
        <ele>1037</ele>
        <time>2014-11-13T11:56:10Z</time>
      </trkpt>
      <trkpt lat="44.80495" lon="4.41884">
        <ele>1037</ele>
        <time>2014-11-13T11:56:15Z</time>
      </trkpt>
      <trkpt lat="44.80492" lon="4.41887">
        <ele>1037</ele>
        <time>2014-11-13T11:56:20Z</time>
      </trkpt>
      <trkpt lat="44.80491" lon="4.41888">
        <ele>1037</ele>
        <time>2014-11-13T11:56:25Z</time>
      </trkpt>
      <trkpt lat="44.80492" lon="4.41887">
        <ele>1037</ele>
        <time>2014-11-13T11:56:30Z</time>
      </trkpt>
      <trkpt lat="44.80491" lon="4.41891">
        <ele>1037</ele>
        <time>2014-11-13T11:56:40Z</time>
      </trkpt>
      <trkpt lat="44.80488" lon="4.41894">
        <ele>1037</ele>
        <time>2014-11-13T11:56:45Z</time>
      </trkpt>
      <trkpt lat="44.80485" lon="4.41899">
        <ele>1040</ele>
        <time>2014-11-13T11:56:50Z</time>
      </trkpt>
      <trkpt lat="44.80481" lon="4.41904">
        <ele>1047</ele>
        <time>2014-11-13T11:56:55Z</time>
      </trkpt>
      <trkpt lat="44.80478" lon="4.41908">
        <ele>1047</ele>
        <time>2014-11-13T11:57:00Z</time>
      </trkpt>
      <trkpt lat="44.80476" lon="4.41909">
        <ele>1047</ele>
        <time>2014-11-13T11:57:05Z</time>
      </trkpt>
      <trkpt lat="44.80474" lon="4.41909">
        <ele>1047</ele>
        <time>2014-11-13T11:57:10Z</time>
      </trkpt>
      <trkpt lat="44.80471" lon="4.41911">
        <ele>1047</ele>
        <time>2014-11-13T11:57:15Z</time>
      </trkpt>
      <trkpt lat="44.8047" lon="4.41915">
        <ele>1047</ele>
        <time>2014-11-13T11:57:20Z</time>
      </trkpt>
      <trkpt lat="44.8047" lon="4.41919">
        <ele>1047</ele>
        <time>2014-11-13T11:57:25Z</time>
      </trkpt>
      <trkpt lat="44.80468" lon="4.41918">
        <ele>1047</ele>
        <time>2014-11-13T11:57:30Z</time>
      </trkpt>
      <trkpt lat="44.80465" lon="4.41918">
        <ele>1047</ele>
        <time>2014-11-13T11:57:35Z</time>
      </trkpt>
      <trkpt lat="44.80464" lon="4.41917">
        <ele>1047</ele>
        <time>2014-11-13T11:57:40Z</time>
      </trkpt>
      <trkpt lat="44.80466" lon="4.41915">
        <ele>1047</ele>
        <time>2014-11-13T11:57:45Z</time>
      </trkpt>
      <trkpt lat="44.80464" lon="4.41913">
        <ele>1047</ele>
        <time>2014-11-13T11:57:55Z</time>
      </trkpt>
      <trkpt lat="44.80464" lon="4.41911">
        <ele>1047</ele>
        <time>2014-11-13T11:58:00Z</time>
      </trkpt>
      <trkpt lat="44.80462" lon="4.41911">
        <ele>1047</ele>
        <time>2014-11-13T11:58:10Z</time>
      </trkpt>
      <trkpt lat="44.80462" lon="4.4191">
        <ele>1047</ele>
        <time>2014-11-13T11:58:15Z</time>
      </trkpt>
      <trkpt lat="44.80461" lon="4.41909">
        <ele>1047</ele>
        <time>2014-11-13T11:58:20Z</time>
      </trkpt>
      <trkpt lat="44.80462" lon="4.4191">
        <ele>1047</ele>
        <time>2014-11-13T11:58:30Z</time>
      </trkpt>
      <trkpt lat="44.80461" lon="4.41909">
        <ele>1047</ele>
        <time>2014-11-13T11:58:40Z</time>
      </trkpt>
      <trkpt lat="44.8046" lon="4.4191">
        <ele>1047</ele>
        <time>2014-11-13T11:58:45Z</time>
      </trkpt>
      <trkpt lat="44.80461" lon="4.41912">
        <ele>1047</ele>
        <time>2014-11-13T11:58:50Z</time>
      </trkpt>
      <trkpt lat="44.80461" lon="4.41914">
        <ele>1047</ele>
        <time>2014-11-13T11:58:55Z</time>
      </trkpt>
      <trkpt lat="44.80462" lon="4.41916">
        <ele>1047</ele>
        <time>2014-11-13T11:59:00Z</time>
      </trkpt>
      <trkpt lat="44.80463" lon="4.41917">
        <ele>1047</ele>
        <time>2014-11-13T11:59:05Z</time>
      </trkpt>
      <trkpt lat="44.80464" lon="4.41918">
        <ele>1047</ele>
        <time>2014-11-13T11:59:15Z</time>
      </trkpt>
      <trkpt lat="44.80476" lon="4.41918">
        <ele>1047</ele>
        <time>2014-11-13T12:40:21Z</time>
      </trkpt>
      <trkpt lat="44.80476" lon="4.41919">
        <ele>1047</ele>
        <time>2014-11-13T12:40:26Z</time>
      </trkpt>
      <trkpt lat="44.80477" lon="4.41919">
        <ele>1047</ele>
        <time>2014-11-13T12:40:31Z</time>
      </trkpt>
      <trkpt lat="44.8048" lon="4.41916">
        <ele>1047</ele>
        <time>2014-11-13T12:40:36Z</time>
      </trkpt>
      <trkpt lat="44.80481" lon="4.41913">
        <ele>1047</ele>
        <time>2014-11-13T12:40:41Z</time>
      </trkpt>
      <trkpt lat="44.80484" lon="4.41908">
        <ele>1047</ele>
        <time>2014-11-13T12:40:46Z</time>
      </trkpt>
      <trkpt lat="44.80485" lon="4.41904">
        <ele>1047</ele>
        <time>2014-11-13T12:40:51Z</time>
      </trkpt>
      <trkpt lat="44.80487" lon="4.41901">
        <ele>1037</ele>
        <time>2014-11-13T12:40:56Z</time>
      </trkpt>
      <trkpt lat="44.80488" lon="4.41898">
        <ele>1037</ele>
        <time>2014-11-13T12:41:01Z</time>
      </trkpt>
      <trkpt lat="44.80489" lon="4.41896">
        <ele>1037</ele>
        <time>2014-11-13T12:41:06Z</time>
      </trkpt>
      <trkpt lat="44.80491" lon="4.41889">
        <ele>1037</ele>
        <time>2014-11-13T12:41:11Z</time>
      </trkpt>
      <trkpt lat="44.80493" lon="4.41884">
        <ele>1037</ele>
        <time>2014-11-13T12:41:16Z</time>
      </trkpt>
      <trkpt lat="44.80497" lon="4.41878">
        <ele>1037</ele>
        <time>2014-11-13T12:41:21Z</time>
      </trkpt>
      <trkpt lat="44.80502" lon="4.41876">
        <ele>1037</ele>
        <time>2014-11-13T12:41:26Z</time>
      </trkpt>
      <trkpt lat="44.80506" lon="4.41874">
        <ele>1034</ele>
        <time>2014-11-13T12:41:31Z</time>
      </trkpt>
      <trkpt lat="44.8051" lon="4.41872">
        <ele>1034</ele>
        <time>2014-11-13T12:41:36Z</time>
      </trkpt>
      <trkpt lat="44.80514" lon="4.41867">
        <ele>1033</ele>
        <time>2014-11-13T12:41:41Z</time>
      </trkpt>
      <trkpt lat="44.80517" lon="4.41864">
        <ele>1033</ele>
        <time>2014-11-13T12:41:46Z</time>
      </trkpt>
      <trkpt lat="44.80519" lon="4.4186">
        <ele>1033</ele>
        <time>2014-11-13T12:41:51Z</time>
      </trkpt>
      <trkpt lat="44.80522" lon="4.41854">
        <ele>1033</ele>
        <time>2014-11-13T12:41:56Z</time>
      </trkpt>
      <trkpt lat="44.80524" lon="4.41849">
        <ele>1033</ele>
        <time>2014-11-13T12:42:01Z</time>
      </trkpt>
      <trkpt lat="44.80527" lon="4.41844">
        <ele>1034</ele>
        <time>2014-11-13T12:42:06Z</time>
      </trkpt>
      <trkpt lat="44.80529" lon="4.41838">
        <ele>1034</ele>
        <time>2014-11-13T12:42:11Z</time>
      </trkpt>
      <trkpt lat="44.80531" lon="4.41833">
        <ele>1034</ele>
        <time>2014-11-13T12:42:16Z</time>
      </trkpt>
      <trkpt lat="44.80532" lon="4.41829">
        <ele>1034</ele>
        <time>2014-11-13T12:42:21Z</time>
      </trkpt>
      <trkpt lat="44.80532" lon="4.41822">
        <ele>1034</ele>
        <time>2014-11-13T12:42:26Z</time>
      </trkpt>
      <trkpt lat="44.80531" lon="4.41815">
        <ele>1033</ele>
        <time>2014-11-13T12:42:31Z</time>
      </trkpt>
      <trkpt lat="44.80529" lon="4.41808">
        <ele>1033</ele>
        <time>2014-11-13T12:42:36Z</time>
      </trkpt>
      <trkpt lat="44.80528" lon="4.41803">
        <ele>1033</ele>
        <time>2014-11-13T12:42:41Z</time>
      </trkpt>
      <trkpt lat="44.80527" lon="4.41798">
        <ele>1033</ele>
        <time>2014-11-13T12:42:46Z</time>
      </trkpt>
      <trkpt lat="44.80523" lon="4.41794">
        <ele>1033</ele>
        <time>2014-11-13T12:42:51Z</time>
      </trkpt>
      <trkpt lat="44.80519" lon="4.41791">
        <ele>1031</ele>
        <time>2014-11-13T12:42:56Z</time>
      </trkpt>
      <trkpt lat="44.80515" lon="4.41789">
        <ele>1031</ele>
        <time>2014-11-13T12:43:01Z</time>
      </trkpt>
      <trkpt lat="44.80509" lon="4.41788">
        <ele>1028</ele>
        <time>2014-11-13T12:43:06Z</time>
      </trkpt>
      <trkpt lat="44.80504" lon="4.41788">
        <ele>1028</ele>
        <time>2014-11-13T12:43:11Z</time>
      </trkpt>
      <trkpt lat="44.80499" lon="4.41787">
        <ele>1028</ele>
        <time>2014-11-13T12:43:16Z</time>
      </trkpt>
      <trkpt lat="44.80493" lon="4.41787">
        <ele>1028</ele>
        <time>2014-11-13T12:43:21Z</time>
      </trkpt>
      <trkpt lat="44.80487" lon="4.41787">
        <ele>1028</ele>
        <time>2014-11-13T12:43:26Z</time>
      </trkpt>
      <trkpt lat="44.80482" lon="4.41785">
        <ele>1025</ele>
        <time>2014-11-13T12:43:31Z</time>
      </trkpt>
      <trkpt lat="44.80477" lon="4.41782">
        <ele>1025</ele>
        <time>2014-11-13T12:43:36Z</time>
      </trkpt>
      <trkpt lat="44.80471" lon="4.41778">
        <ele>1025</ele>
        <time>2014-11-13T12:43:41Z</time>
      </trkpt>
      <trkpt lat="44.80467" lon="4.41772">
        <ele>1025</ele>
        <time>2014-11-13T12:43:46Z</time>
      </trkpt>
      <trkpt lat="44.80464" lon="4.41764">
        <ele>1025</ele>
        <time>2014-11-13T12:43:51Z</time>
      </trkpt>
      <trkpt lat="44.80462" lon="4.41755">
        <ele>1023</ele>
        <time>2014-11-13T12:43:56Z</time>
      </trkpt>
      <trkpt lat="44.80461" lon="4.41746">
        <ele>1023</ele>
        <time>2014-11-13T12:44:01Z</time>
      </trkpt>
      <trkpt lat="44.8046" lon="4.41738">
        <ele>1023</ele>
        <time>2014-11-13T12:44:06Z</time>
      </trkpt>
      <trkpt lat="44.80459" lon="4.4173">
        <ele>1024</ele>
        <time>2014-11-13T12:44:11Z</time>
      </trkpt>
      <trkpt lat="44.80459" lon="4.41725">
        <ele>1024</ele>
        <time>2014-11-13T12:44:16Z</time>
      </trkpt>
      <trkpt lat="44.80458" lon="4.41721">
        <ele>1018</ele>
        <time>2014-11-13T12:44:21Z</time>
      </trkpt>
      <trkpt lat="44.80457" lon="4.41714">
        <ele>1018</ele>
        <time>2014-11-13T12:44:26Z</time>
      </trkpt>
      <trkpt lat="44.80456" lon="4.41708">
        <ele>1019</ele>
        <time>2014-11-13T12:44:31Z</time>
      </trkpt>
      <trkpt lat="44.80454" lon="4.41702">
        <ele>1019</ele>
        <time>2014-11-13T12:44:36Z</time>
      </trkpt>
      <trkpt lat="44.80452" lon="4.41697">
        <ele>1019</ele>
        <time>2014-11-13T12:44:41Z</time>
      </trkpt>
      <trkpt lat="44.8045" lon="4.41689">
        <ele>1019</ele>
        <time>2014-11-13T12:44:46Z</time>
      </trkpt>
      <trkpt lat="44.80448" lon="4.41683">
        <ele>1019</ele>
        <time>2014-11-13T12:44:51Z</time>
      </trkpt>
      <trkpt lat="44.80445" lon="4.41676">
        <ele>1020</ele>
        <time>2014-11-13T12:44:56Z</time>
      </trkpt>
      <trkpt lat="44.80442" lon="4.4167">
        <ele>1020</ele>
        <time>2014-11-13T12:45:01Z</time>
      </trkpt>
      <trkpt lat="44.80438" lon="4.41665">
        <ele>1020</ele>
        <time>2014-11-13T12:45:06Z</time>
      </trkpt>
      <trkpt lat="44.80434" lon="4.41658">
        <ele>1020</ele>
        <time>2014-11-13T12:45:11Z</time>
      </trkpt>
      <trkpt lat="44.8043" lon="4.41651">
        <ele>1014</ele>
        <time>2014-11-13T12:45:16Z</time>
      </trkpt>
      <trkpt lat="44.80426" lon="4.41644">
        <ele>1014</ele>
        <time>2014-11-13T12:45:21Z</time>
      </trkpt>
      <trkpt lat="44.80423" lon="4.41637">
        <ele>1014</ele>
        <time>2014-11-13T12:45:26Z</time>
      </trkpt>
      <trkpt lat="44.80421" lon="4.41633">
        <ele>1014</ele>
        <time>2014-11-13T12:45:31Z</time>
      </trkpt>
      <trkpt lat="44.80419" lon="4.41626">
        <ele>1014</ele>
        <time>2014-11-13T12:45:36Z</time>
      </trkpt>
      <trkpt lat="44.80418" lon="4.41619">
        <ele>1012</ele>
        <time>2014-11-13T12:45:41Z</time>
      </trkpt>
      <trkpt lat="44.80418" lon="4.41609">
        <ele>1012</ele>
        <time>2014-11-13T12:45:46Z</time>
      </trkpt>
      <trkpt lat="44.80422" lon="4.41601">
        <ele>1012</ele>
        <time>2014-11-13T12:45:51Z</time>
      </trkpt>
      <trkpt lat="44.80427" lon="4.41594">
        <ele>1009</ele>
        <time>2014-11-13T12:45:56Z</time>
      </trkpt>
      <trkpt lat="44.8043" lon="4.41586">
        <ele>1009</ele>
        <time>2014-11-13T12:46:01Z</time>
      </trkpt>
      <trkpt lat="44.8043" lon="4.41581">
        <ele>1009</ele>
        <time>2014-11-13T12:46:06Z</time>
      </trkpt>
      <trkpt lat="44.80425" lon="4.4158">
        <ele>1009</ele>
        <time>2014-11-13T12:46:11Z</time>
      </trkpt>
      <trkpt lat="44.80421" lon="4.41581">
        <ele>1009</ele>
        <time>2014-11-13T12:46:16Z</time>
      </trkpt>
      <trkpt lat="44.80415" lon="4.41581">
        <ele>1009</ele>
        <time>2014-11-13T12:46:21Z</time>
      </trkpt>
      <trkpt lat="44.80407" lon="4.41581">
        <ele>1009</ele>
        <time>2014-11-13T12:46:26Z</time>
      </trkpt>
      <trkpt lat="44.804" lon="4.41579">
        <ele>1007</ele>
        <time>2014-11-13T12:46:31Z</time>
      </trkpt>
      <trkpt lat="44.80395" lon="4.41577">
        <ele>1007</ele>
        <time>2014-11-13T12:46:36Z</time>
      </trkpt>
      <trkpt lat="44.80388" lon="4.41576">
        <ele>1007</ele>
        <time>2014-11-13T12:46:41Z</time>
      </trkpt>
      <trkpt lat="44.80382" lon="4.41573">
        <ele>1007</ele>
        <time>2014-11-13T12:46:46Z</time>
      </trkpt>
      <trkpt lat="44.80376" lon="4.41573">
        <ele>1007</ele>
        <time>2014-11-13T12:46:51Z</time>
      </trkpt>
      <trkpt lat="44.80371" lon="4.41573">
        <ele>999</ele>
        <time>2014-11-13T12:46:56Z</time>
      </trkpt>
      <trkpt lat="44.80363" lon="4.41574">
        <ele>999</ele>
        <time>2014-11-13T12:47:01Z</time>
      </trkpt>
      <trkpt lat="44.80357" lon="4.41574">
        <ele>999</ele>
        <time>2014-11-13T12:47:06Z</time>
      </trkpt>
      <trkpt lat="44.80352" lon="4.41573">
        <ele>999</ele>
        <time>2014-11-13T12:47:11Z</time>
      </trkpt>
      <trkpt lat="44.80346" lon="4.41572">
        <ele>991</ele>
        <time>2014-11-13T12:47:16Z</time>
      </trkpt>
      <trkpt lat="44.80339" lon="4.41572">
        <ele>991</ele>
        <time>2014-11-13T12:47:21Z</time>
      </trkpt>
      <trkpt lat="44.80332" lon="4.41571">
        <ele>991</ele>
        <time>2014-11-13T12:47:26Z</time>
      </trkpt>
      <trkpt lat="44.80326" lon="4.41569">
        <ele>987</ele>
        <time>2014-11-13T12:47:31Z</time>
      </trkpt>
      <trkpt lat="44.8032" lon="4.41567">
        <ele>987</ele>
        <time>2014-11-13T12:47:36Z</time>
      </trkpt>
      <trkpt lat="44.80314" lon="4.41563">
        <ele>989</ele>
        <time>2014-11-13T12:47:41Z</time>
      </trkpt>
      <trkpt lat="44.80308" lon="4.41556">
        <ele>989</ele>
        <time>2014-11-13T12:47:46Z</time>
      </trkpt>
      <trkpt lat="44.80304" lon="4.41549">
        <ele>989</ele>
        <time>2014-11-13T12:47:51Z</time>
      </trkpt>
      <trkpt lat="44.803" lon="4.41542">
        <ele>989</ele>
        <time>2014-11-13T12:47:56Z</time>
      </trkpt>
      <trkpt lat="44.80296" lon="4.41534">
        <ele>991</ele>
        <time>2014-11-13T12:48:01Z</time>
      </trkpt>
      <trkpt lat="44.80292" lon="4.41528">
        <ele>991</ele>
        <time>2014-11-13T12:48:06Z</time>
      </trkpt>
      <trkpt lat="44.80289" lon="4.41523">
        <ele>994</ele>
        <time>2014-11-13T12:48:11Z</time>
      </trkpt>
      <trkpt lat="44.80284" lon="4.41514">
        <ele>994</ele>
        <time>2014-11-13T12:48:16Z</time>
      </trkpt>
      <trkpt lat="44.80279" lon="4.41505">
        <ele>996</ele>
        <time>2014-11-13T12:48:21Z</time>
      </trkpt>
      <trkpt lat="44.80276" lon="4.41498">
        <ele>996</ele>
        <time>2014-11-13T12:48:26Z</time>
      </trkpt>
      <trkpt lat="44.80271" lon="4.41491">
        <ele>996</ele>
        <time>2014-11-13T12:48:31Z</time>
      </trkpt>
      <trkpt lat="44.80268" lon="4.41486">
        <ele>995</ele>
        <time>2014-11-13T12:48:36Z</time>
      </trkpt>
      <trkpt lat="44.80265" lon="4.41477">
        <ele>995</ele>
        <time>2014-11-13T12:48:41Z</time>
      </trkpt>
      <trkpt lat="44.80261" lon="4.41469">
        <ele>997</ele>
        <time>2014-11-13T12:48:46Z</time>
      </trkpt>
      <trkpt lat="44.80257" lon="4.41463">
        <ele>997</ele>
        <time>2014-11-13T12:48:51Z</time>
      </trkpt>
      <trkpt lat="44.80253" lon="4.41459">
        <ele>997</ele>
        <time>2014-11-13T12:48:56Z</time>
      </trkpt>
      <trkpt lat="44.80246" lon="4.41457">
        <ele>993</ele>
        <time>2014-11-13T12:49:01Z</time>
      </trkpt>
      <trkpt lat="44.80241" lon="4.41454">
        <ele>993</ele>
        <time>2014-11-13T12:49:06Z</time>
      </trkpt>
      <trkpt lat="44.80235" lon="4.41454">
        <ele>995</ele>
        <time>2014-11-13T12:49:11Z</time>
      </trkpt>
      <trkpt lat="44.8023" lon="4.41455">
        <ele>995</ele>
        <time>2014-11-13T12:49:16Z</time>
      </trkpt>
      <trkpt lat="44.80223" lon="4.41456">
        <ele>995</ele>
        <time>2014-11-13T12:49:21Z</time>
      </trkpt>
      <trkpt lat="44.80217" lon="4.41457">
        <ele>995</ele>
        <time>2014-11-13T12:49:26Z</time>
      </trkpt>
      <trkpt lat="44.80211" lon="4.41458">
        <ele>995</ele>
        <time>2014-11-13T12:49:31Z</time>
      </trkpt>
      <trkpt lat="44.80206" lon="4.41461">
        <ele>994</ele>
        <time>2014-11-13T12:49:36Z</time>
      </trkpt>
      <trkpt lat="44.80201" lon="4.41463">
        <ele>994</ele>
        <time>2014-11-13T12:49:41Z</time>
      </trkpt>
      <trkpt lat="44.80196" lon="4.41466">
        <ele>994</ele>
        <time>2014-11-13T12:49:46Z</time>
      </trkpt>
      <trkpt lat="44.80193" lon="4.41466">
        <ele>994</ele>
        <time>2014-11-13T12:49:51Z</time>
      </trkpt>
      <trkpt lat="44.80194" lon="4.41464">
        <ele>994</ele>
        <time>2014-11-13T12:50:06Z</time>
      </trkpt>
      <trkpt lat="44.80194" lon="4.41465">
        <ele>994</ele>
        <time>2014-11-13T12:50:11Z</time>
      </trkpt>
      <trkpt lat="44.80193" lon="4.41464">
        <ele>994</ele>
        <time>2014-11-13T12:50:21Z</time>
      </trkpt>
      <trkpt lat="44.80193" lon="4.41463">
        <ele>994</ele>
        <time>2014-11-13T12:50:31Z</time>
      </trkpt>
      <trkpt lat="44.80192" lon="4.41462">
        <ele>994</ele>
        <time>2014-11-13T12:50:36Z</time>
      </trkpt>
      <trkpt lat="44.80193" lon="4.41462">
        <ele>994</ele>
        <time>2014-11-13T12:50:41Z</time>
      </trkpt>
      <trkpt lat="44.80194" lon="4.41462">
        <ele>994</ele>
        <time>2014-11-13T12:50:46Z</time>
      </trkpt>
      <trkpt lat="44.80193" lon="4.41462">
        <ele>994</ele>
        <time>2014-11-13T12:50:51Z</time>
      </trkpt>
      <trkpt lat="44.80192" lon="4.41463">
        <ele>994</ele>
        <time>2014-11-13T12:51:01Z</time>
      </trkpt>
      <trkpt lat="44.80193" lon="4.41463">
        <ele>994</ele>
        <time>2014-11-13T12:51:06Z</time>
      </trkpt>
      <trkpt lat="44.80196" lon="4.41464">
        <ele>994</ele>
        <time>2014-11-13T12:51:11Z</time>
      </trkpt>
      <trkpt lat="44.80197" lon="4.41465">
        <ele>994</ele>
        <time>2014-11-13T12:51:16Z</time>
      </trkpt>
      <trkpt lat="44.80196" lon="4.41464">
        <ele>994</ele>
        <time>2014-11-13T12:51:21Z</time>
      </trkpt>
      <trkpt lat="44.80195" lon="4.41463">
        <ele>994</ele>
        <time>2014-11-13T12:51:26Z</time>
      </trkpt>
      <trkpt lat="44.80192" lon="4.41465">
        <ele>994</ele>
        <time>2014-11-13T12:51:31Z</time>
      </trkpt>
      <trkpt lat="44.80191" lon="4.41467">
        <ele>994</ele>
        <time>2014-11-13T12:51:36Z</time>
      </trkpt>
      <trkpt lat="44.80188" lon="4.41467">
        <ele>994</ele>
        <time>2014-11-13T12:51:41Z</time>
      </trkpt>
      <trkpt lat="44.80187" lon="4.41461">
        <ele>994</ele>
        <time>2014-11-13T12:51:46Z</time>
      </trkpt>
      <trkpt lat="44.80189" lon="4.41454">
        <ele>994</ele>
        <time>2014-11-13T12:51:51Z</time>
      </trkpt>
      <trkpt lat="44.80189" lon="4.41446">
        <ele>994</ele>
        <time>2014-11-13T12:51:56Z</time>
      </trkpt>
      <trkpt lat="44.80186" lon="4.41441">
        <ele>994</ele>
        <time>2014-11-13T12:52:01Z</time>
      </trkpt>
      <trkpt lat="44.80181" lon="4.41441">
        <ele>994</ele>
        <time>2014-11-13T12:52:06Z</time>
      </trkpt>
      <trkpt lat="44.80178" lon="4.41443">
        <ele>996</ele>
        <time>2014-11-13T12:52:11Z</time>
      </trkpt>
      <trkpt lat="44.80175" lon="4.41444">
        <ele>996</ele>
        <time>2014-11-13T12:52:16Z</time>
      </trkpt>
      <trkpt lat="44.80171" lon="4.41441">
        <ele>996</ele>
        <time>2014-11-13T12:52:21Z</time>
      </trkpt>
      <trkpt lat="44.80168" lon="4.41438">
        <ele>996</ele>
        <time>2014-11-13T12:52:26Z</time>
      </trkpt>
      <trkpt lat="44.80167" lon="4.41434">
        <ele>996</ele>
        <time>2014-11-13T12:52:31Z</time>
      </trkpt>
      <trkpt lat="44.80165" lon="4.41431">
        <ele>996</ele>
        <time>2014-11-13T12:52:36Z</time>
      </trkpt>
      <trkpt lat="44.80164" lon="4.41426">
        <ele>997</ele>
        <time>2014-11-13T12:52:41Z</time>
      </trkpt>
      <trkpt lat="44.80162" lon="4.41422">
        <ele>997</ele>
        <time>2014-11-13T12:52:46Z</time>
      </trkpt>
      <trkpt lat="44.8016" lon="4.41418">
        <ele>997</ele>
        <time>2014-11-13T12:52:51Z</time>
      </trkpt>
      <trkpt lat="44.80158" lon="4.41413">
        <ele>997</ele>
        <time>2014-11-13T12:52:56Z</time>
      </trkpt>
      <trkpt lat="44.80157" lon="4.41408">
        <ele>997</ele>
        <time>2014-11-13T12:53:01Z</time>
      </trkpt>
      <trkpt lat="44.80156" lon="4.41403">
        <ele>998</ele>
        <time>2014-11-13T12:53:06Z</time>
      </trkpt>
      <trkpt lat="44.80154" lon="4.41397">
        <ele>998</ele>
        <time>2014-11-13T12:53:11Z</time>
      </trkpt>
      <trkpt lat="44.80153" lon="4.41393">
        <ele>1007</ele>
        <time>2014-11-13T12:53:16Z</time>
      </trkpt>
      <trkpt lat="44.80151" lon="4.41389">
        <ele>1007</ele>
        <time>2014-11-13T12:53:21Z</time>
      </trkpt>
      <trkpt lat="44.8015" lon="4.41384">
        <ele>1007</ele>
        <time>2014-11-13T12:53:26Z</time>
      </trkpt>
      <trkpt lat="44.8015" lon="4.41376">
        <ele>1007</ele>
        <time>2014-11-13T12:53:31Z</time>
      </trkpt>
      <trkpt lat="44.80149" lon="4.41371">
        <ele>1009</ele>
        <time>2014-11-13T12:53:36Z</time>
      </trkpt>
      <trkpt lat="44.80148" lon="4.41366">
        <ele>1009</ele>
        <time>2014-11-13T12:53:41Z</time>
      </trkpt>
      <trkpt lat="44.80147" lon="4.41358">
        <ele>1009</ele>
        <time>2014-11-13T12:53:46Z</time>
      </trkpt>
      <trkpt lat="44.80147" lon="4.41357">
        <ele>1009</ele>
        <time>2014-11-13T12:53:51Z</time>
      </trkpt>
      <trkpt lat="44.80148" lon="4.41356">
        <ele>1009</ele>
        <time>2014-11-13T12:53:56Z</time>
      </trkpt>
      <trkpt lat="44.80147" lon="4.41356">
        <ele>1009</ele>
        <time>2014-11-13T12:54:01Z</time>
      </trkpt>
      <trkpt lat="44.80148" lon="4.41357">
        <ele>1009</ele>
        <time>2014-11-13T12:54:06Z</time>
      </trkpt>
      <trkpt lat="44.80147" lon="4.41354">
        <ele>1009</ele>
        <time>2014-11-13T12:54:11Z</time>
      </trkpt>
      <trkpt lat="44.80145" lon="4.41349">
        <ele>1009</ele>
        <time>2014-11-13T12:54:16Z</time>
      </trkpt>
      <trkpt lat="44.80143" lon="4.41344">
        <ele>1010</ele>
        <time>2014-11-13T12:54:21Z</time>
      </trkpt>
      <trkpt lat="44.80141" lon="4.4134">
        <ele>1010</ele>
        <time>2014-11-13T12:54:26Z</time>
      </trkpt>
      <trkpt lat="44.80139" lon="4.41337">
        <ele>1010</ele>
        <time>2014-11-13T12:54:31Z</time>
      </trkpt>
      <trkpt lat="44.80138" lon="4.41334">
        <ele>1010</ele>
        <time>2014-11-13T12:54:36Z</time>
      </trkpt>
      <trkpt lat="44.80136" lon="4.4133">
        <ele>1010</ele>
        <time>2014-11-13T12:54:41Z</time>
      </trkpt>
      <trkpt lat="44.80133" lon="4.41327">
        <ele>1010</ele>
        <time>2014-11-13T12:54:46Z</time>
      </trkpt>
      <trkpt lat="44.80132" lon="4.41323">
        <ele>1010</ele>
        <time>2014-11-13T12:54:51Z</time>
      </trkpt>
      <trkpt lat="44.80131" lon="4.41319">
        <ele>1011</ele>
        <time>2014-11-13T12:54:56Z</time>
      </trkpt>
      <trkpt lat="44.80129" lon="4.41314">
        <ele>1011</ele>
        <time>2014-11-13T12:55:01Z</time>
      </trkpt>
      <trkpt lat="44.80126" lon="4.41312">
        <ele>1011</ele>
        <time>2014-11-13T12:55:06Z</time>
      </trkpt>
      <trkpt lat="44.80124" lon="4.4131">
        <ele>1021</ele>
        <time>2014-11-13T12:55:11Z</time>
      </trkpt>
      <trkpt lat="44.80123" lon="4.41308">
        <ele>1021</ele>
        <time>2014-11-13T12:55:16Z</time>
      </trkpt>
      <trkpt lat="44.80122" lon="4.41307">
        <ele>1021</ele>
        <time>2014-11-13T12:55:21Z</time>
      </trkpt>
      <trkpt lat="44.80121" lon="4.41307">
        <ele>1021</ele>
        <time>2014-11-13T12:55:26Z</time>
      </trkpt>
      <trkpt lat="44.8012" lon="4.41309">
        <ele>1021</ele>
        <time>2014-11-13T12:55:36Z</time>
      </trkpt>
      <trkpt lat="44.8012" lon="4.41311">
        <ele>1021</ele>
        <time>2014-11-13T12:55:41Z</time>
      </trkpt>
      <trkpt lat="44.80116" lon="4.41311">
        <ele>1021</ele>
        <time>2014-11-13T12:55:46Z</time>
      </trkpt>
      <trkpt lat="44.80112" lon="4.41311">
        <ele>1021</ele>
        <time>2014-11-13T12:55:51Z</time>
      </trkpt>
      <trkpt lat="44.80109" lon="4.41312">
        <ele>1021</ele>
        <time>2014-11-13T12:55:56Z</time>
      </trkpt>
      <trkpt lat="44.80107" lon="4.41313">
        <ele>1021</ele>
        <time>2014-11-13T12:56:01Z</time>
      </trkpt>
      <trkpt lat="44.80106" lon="4.41315">
        <ele>1021</ele>
        <time>2014-11-13T12:56:06Z</time>
      </trkpt>
      <trkpt lat="44.80104" lon="4.41318">
        <ele>1021</ele>
        <time>2014-11-13T12:56:11Z</time>
      </trkpt>
      <trkpt lat="44.80103" lon="4.4132">
        <ele>1019</ele>
        <time>2014-11-13T12:56:16Z</time>
      </trkpt>
      <trkpt lat="44.80102" lon="4.41321">
        <ele>1019</ele>
        <time>2014-11-13T12:56:21Z</time>
      </trkpt>
      <trkpt lat="44.80099" lon="4.41324">
        <ele>1019</ele>
        <time>2014-11-13T12:56:26Z</time>
      </trkpt>
      <trkpt lat="44.80097" lon="4.41326">
        <ele>1028</ele>
        <time>2014-11-13T12:56:31Z</time>
      </trkpt>
      <trkpt lat="44.80094" lon="4.41329">
        <ele>1028</ele>
        <time>2014-11-13T12:56:36Z</time>
      </trkpt>
      <trkpt lat="44.80092" lon="4.41328">
        <ele>1028</ele>
        <time>2014-11-13T12:56:41Z</time>
      </trkpt>
      <trkpt lat="44.8009" lon="4.41327">
        <ele>1028</ele>
        <time>2014-11-13T12:56:46Z</time>
      </trkpt>
      <trkpt lat="44.80089" lon="4.41328">
        <ele>1028</ele>
        <time>2014-11-13T12:56:51Z</time>
      </trkpt>
      <trkpt lat="44.80085" lon="4.4133">
        <ele>1028</ele>
        <time>2014-11-13T12:56:56Z</time>
      </trkpt>
      <trkpt lat="44.80081" lon="4.41329">
        <ele>1028</ele>
        <time>2014-11-13T12:57:01Z</time>
      </trkpt>
      <trkpt lat="44.80078" lon="4.41326">
        <ele>1028</ele>
        <time>2014-11-13T12:57:06Z</time>
      </trkpt>
      <trkpt lat="44.80076" lon="4.41324">
        <ele>1028</ele>
        <time>2014-11-13T12:57:11Z</time>
      </trkpt>
      <trkpt lat="44.80073" lon="4.41322">
        <ele>1028</ele>
        <time>2014-11-13T12:57:16Z</time>
      </trkpt>
      <trkpt lat="44.80069" lon="4.4132">
        <ele>1039</ele>
        <time>2014-11-13T12:57:21Z</time>
      </trkpt>
      <trkpt lat="44.80065" lon="4.41317">
        <ele>1039</ele>
        <time>2014-11-13T12:57:26Z</time>
      </trkpt>
      <trkpt lat="44.80062" lon="4.41313">
        <ele>1039</ele>
        <time>2014-11-13T12:57:31Z</time>
      </trkpt>
      <trkpt lat="44.8006" lon="4.4131">
        <ele>1039</ele>
        <time>2014-11-13T12:57:36Z</time>
      </trkpt>
      <trkpt lat="44.80058" lon="4.41307">
        <ele>1039</ele>
        <time>2014-11-13T12:57:41Z</time>
      </trkpt>
      <trkpt lat="44.80054" lon="4.41305">
        <ele>1039</ele>
        <time>2014-11-13T12:57:46Z</time>
      </trkpt>
      <trkpt lat="44.8005" lon="4.41302">
        <ele>1039</ele>
        <time>2014-11-13T12:57:51Z</time>
      </trkpt>
      <trkpt lat="44.80046" lon="4.41298">
        <ele>1039</ele>
        <time>2014-11-13T12:57:56Z</time>
      </trkpt>
      <trkpt lat="44.80042" lon="4.41294">
        <ele>1039</ele>
        <time>2014-11-13T12:58:01Z</time>
      </trkpt>
      <trkpt lat="44.8004" lon="4.41291">
        <ele>1041</ele>
        <time>2014-11-13T12:58:06Z</time>
      </trkpt>
      <trkpt lat="44.80037" lon="4.41289">
        <ele>1041</ele>
        <time>2014-11-13T12:58:11Z</time>
      </trkpt>
      <trkpt lat="44.80032" lon="4.4129">
        <ele>1041</ele>
        <time>2014-11-13T12:58:16Z</time>
      </trkpt>
      <trkpt lat="44.80029" lon="4.4129">
        <ele>1041</ele>
        <time>2014-11-13T12:58:21Z</time>
      </trkpt>
      <trkpt lat="44.80025" lon="4.41289">
        <ele>1041</ele>
        <time>2014-11-13T12:58:26Z</time>
      </trkpt>
      <trkpt lat="44.80022" lon="4.41287">
        <ele>1041</ele>
        <time>2014-11-13T12:58:31Z</time>
      </trkpt>
      <trkpt lat="44.80024" lon="4.41287">
        <ele>1041</ele>
        <time>2014-11-13T12:58:41Z</time>
      </trkpt>
      <trkpt lat="44.80024" lon="4.41286">
        <ele>1041</ele>
        <time>2014-11-13T12:58:46Z</time>
      </trkpt>
      <trkpt lat="44.80023" lon="4.41287">
        <ele>1041</ele>
        <time>2014-11-13T12:58:51Z</time>
      </trkpt>
      <trkpt lat="44.80022" lon="4.41288">
        <ele>1041</ele>
        <time>2014-11-13T12:58:56Z</time>
      </trkpt>
      <trkpt lat="44.80022" lon="4.41287">
        <ele>1041</ele>
        <time>2014-11-13T12:59:01Z</time>
      </trkpt>
      <trkpt lat="44.80023" lon="4.41286">
        <ele>1041</ele>
        <time>2014-11-13T12:59:06Z</time>
      </trkpt>
      <trkpt lat="44.80024" lon="4.41285">
        <ele>1041</ele>
        <time>2014-11-13T12:59:11Z</time>
      </trkpt>
      <trkpt lat="44.80025" lon="4.41285">
        <ele>1041</ele>
        <time>2014-11-13T12:59:16Z</time>
      </trkpt>
      <trkpt lat="44.80023" lon="4.4128">
        <ele>1041</ele>
        <time>2014-11-13T12:59:21Z</time>
      </trkpt>
      <trkpt lat="44.80021" lon="4.41275">
        <ele>1041</ele>
        <time>2014-11-13T12:59:26Z</time>
      </trkpt>
      <trkpt lat="44.80018" lon="4.41269">
        <ele>1041</ele>
        <time>2014-11-13T12:59:31Z</time>
      </trkpt>
      <trkpt lat="44.80016" lon="4.41264">
        <ele>1041</ele>
        <time>2014-11-13T12:59:36Z</time>
      </trkpt>
      <trkpt lat="44.80013" lon="4.41256">
        <ele>1041</ele>
        <time>2014-11-13T12:59:41Z</time>
      </trkpt>
      <trkpt lat="44.80011" lon="4.41249">
        <ele>1041</ele>
        <time>2014-11-13T12:59:46Z</time>
      </trkpt>
      <trkpt lat="44.8001" lon="4.41243">
        <ele>1041</ele>
        <time>2014-11-13T12:59:51Z</time>
      </trkpt>
      <trkpt lat="44.80009" lon="4.41236">
        <ele>1042</ele>
        <time>2014-11-13T12:59:56Z</time>
      </trkpt>
      <trkpt lat="44.80004" lon="4.41229">
        <ele>1042</ele>
        <time>2014-11-13T13:00:01Z</time>
      </trkpt>
      <trkpt lat="44.80001" lon="4.41226">
        <ele>1042</ele>
        <time>2014-11-13T13:00:06Z</time>
      </trkpt>
      <trkpt lat="44.79996" lon="4.41225">
        <ele>1042</ele>
        <time>2014-11-13T13:00:11Z</time>
      </trkpt>
      <trkpt lat="44.79992" lon="4.41224">
        <ele>1042</ele>
        <time>2014-11-13T13:00:16Z</time>
      </trkpt>
      <trkpt lat="44.79987" lon="4.41224">
        <ele>1042</ele>
        <time>2014-11-13T13:00:21Z</time>
      </trkpt>
      <trkpt lat="44.79983" lon="4.41218">
        <ele>1042</ele>
        <time>2014-11-13T13:00:26Z</time>
      </trkpt>
      <trkpt lat="44.79978" lon="4.41213">
        <ele>1042</ele>
        <time>2014-11-13T13:00:31Z</time>
      </trkpt>
      <trkpt lat="44.79975" lon="4.41206">
        <ele>1044</ele>
        <time>2014-11-13T13:00:36Z</time>
      </trkpt>
      <trkpt lat="44.79973" lon="4.41199">
        <ele>1044</ele>
        <time>2014-11-13T13:00:41Z</time>
      </trkpt>
      <trkpt lat="44.7997" lon="4.41191">
        <ele>1044</ele>
        <time>2014-11-13T13:00:46Z</time>
      </trkpt>
      <trkpt lat="44.79969" lon="4.41185">
        <ele>1044</ele>
        <time>2014-11-13T13:00:51Z</time>
      </trkpt>
      <trkpt lat="44.79968" lon="4.41178">
        <ele>1043</ele>
        <time>2014-11-13T13:00:56Z</time>
      </trkpt>
      <trkpt lat="44.79965" lon="4.41173">
        <ele>1043</ele>
        <time>2014-11-13T13:01:01Z</time>
      </trkpt>
      <trkpt lat="44.79963" lon="4.41167">
        <ele>1043</ele>
        <time>2014-11-13T13:01:06Z</time>
      </trkpt>
      <trkpt lat="44.79962" lon="4.4116">
        <ele>1043</ele>
        <time>2014-11-13T13:01:11Z</time>
      </trkpt>
      <trkpt lat="44.79959" lon="4.41151">
        <ele>1041</ele>
        <time>2014-11-13T13:01:16Z</time>
      </trkpt>
      <trkpt lat="44.79956" lon="4.41145">
        <ele>1047</ele>
        <time>2014-11-13T13:01:21Z</time>
      </trkpt>
      <trkpt lat="44.79954" lon="4.41138">
        <ele>1047</ele>
        <time>2014-11-13T13:01:26Z</time>
      </trkpt>
      <trkpt lat="44.79954" lon="4.41132">
        <ele>1047</ele>
        <time>2014-11-13T13:01:31Z</time>
      </trkpt>
      <trkpt lat="44.79953" lon="4.41127">
        <ele>1047</ele>
        <time>2014-11-13T13:01:36Z</time>
      </trkpt>
      <trkpt lat="44.79952" lon="4.41125">
        <ele>1045</ele>
        <time>2014-11-13T13:01:41Z</time>
      </trkpt>
      <trkpt lat="44.79951" lon="4.41125">
        <ele>1045</ele>
        <time>2014-11-13T13:01:46Z</time>
      </trkpt>
      <trkpt lat="44.79951" lon="4.41118">
        <ele>1045</ele>
        <time>2014-11-13T13:01:51Z</time>
      </trkpt>
      <trkpt lat="44.79951" lon="4.4111">
        <ele>1045</ele>
        <time>2014-11-13T13:01:56Z</time>
      </trkpt>
      <trkpt lat="44.79951" lon="4.41101">
        <ele>1045</ele>
        <time>2014-11-13T13:02:01Z</time>
      </trkpt>
      <trkpt lat="44.7995" lon="4.41095">
        <ele>1044</ele>
        <time>2014-11-13T13:02:06Z</time>
      </trkpt>
      <trkpt lat="44.79946" lon="4.41091">
        <ele>1044</ele>
        <time>2014-11-13T13:02:11Z</time>
      </trkpt>
      <trkpt lat="44.79943" lon="4.41086">
        <ele>1044</ele>
        <time>2014-11-13T13:02:16Z</time>
      </trkpt>
      <trkpt lat="44.79939" lon="4.41082">
        <ele>1044</ele>
        <time>2014-11-13T13:02:21Z</time>
      </trkpt>
      <trkpt lat="44.79937" lon="4.4108">
        <ele>1044</ele>
        <time>2014-11-13T13:02:26Z</time>
      </trkpt>
      <trkpt lat="44.79933" lon="4.41076">
        <ele>1044</ele>
        <time>2014-11-13T13:02:31Z</time>
      </trkpt>
      <trkpt lat="44.79929" lon="4.41071">
        <ele>1050</ele>
        <time>2014-11-13T13:02:36Z</time>
      </trkpt>
      <trkpt lat="44.79925" lon="4.41068">
        <ele>1048</ele>
        <time>2014-11-13T13:02:41Z</time>
      </trkpt>
      <trkpt lat="44.79922" lon="4.41066">
        <ele>1048</ele>
        <time>2014-11-13T13:02:46Z</time>
      </trkpt>
      <trkpt lat="44.79918" lon="4.41061">
        <ele>1048</ele>
        <time>2014-11-13T13:02:51Z</time>
      </trkpt>
      <trkpt lat="44.79913" lon="4.41058">
        <ele>1048</ele>
        <time>2014-11-13T13:02:56Z</time>
      </trkpt>
      <trkpt lat="44.7991" lon="4.41055">
        <ele>1048</ele>
        <time>2014-11-13T13:03:01Z</time>
      </trkpt>
      <trkpt lat="44.79905" lon="4.41048">
        <ele>1048</ele>
        <time>2014-11-13T13:03:06Z</time>
      </trkpt>
      <trkpt lat="44.79903" lon="4.41043">
        <ele>1048</ele>
        <time>2014-11-13T13:03:11Z</time>
      </trkpt>
      <trkpt lat="44.79901" lon="4.41035">
        <ele>1052</ele>
        <time>2014-11-13T13:03:16Z</time>
      </trkpt>
      <trkpt lat="44.79899" lon="4.41028">
        <ele>1052</ele>
        <time>2014-11-13T13:03:21Z</time>
      </trkpt>
      <trkpt lat="44.79897" lon="4.41023">
        <ele>1052</ele>
        <time>2014-11-13T13:03:26Z</time>
      </trkpt>
      <trkpt lat="44.79896" lon="4.41018">
        <ele>1052</ele>
        <time>2014-11-13T13:03:31Z</time>
      </trkpt>
      <trkpt lat="44.79894" lon="4.41011">
        <ele>1051</ele>
        <time>2014-11-13T13:03:36Z</time>
      </trkpt>
      <trkpt lat="44.79891" lon="4.41005">
        <ele>1051</ele>
        <time>2014-11-13T13:03:41Z</time>
      </trkpt>
      <trkpt lat="44.79888" lon="4.40996">
        <ele>1051</ele>
        <time>2014-11-13T13:03:46Z</time>
      </trkpt>
      <trkpt lat="44.79887" lon="4.40991">
        <ele>1051</ele>
        <time>2014-11-13T13:03:51Z</time>
      </trkpt>
      <trkpt lat="44.79883" lon="4.40986">
        <ele>1052</ele>
        <time>2014-11-13T13:03:56Z</time>
      </trkpt>
      <trkpt lat="44.7988" lon="4.40983">
        <ele>1052</ele>
        <time>2014-11-13T13:04:01Z</time>
      </trkpt>
      <trkpt lat="44.79877" lon="4.4098">
        <ele>1052</ele>
        <time>2014-11-13T13:04:06Z</time>
      </trkpt>
      <trkpt lat="44.79872" lon="4.40978">
        <ele>1057</ele>
        <time>2014-11-13T13:04:11Z</time>
      </trkpt>
      <trkpt lat="44.79869" lon="4.40975">
        <ele>1057</ele>
        <time>2014-11-13T13:04:16Z</time>
      </trkpt>
      <trkpt lat="44.79868" lon="4.40975">
        <ele>1057</ele>
        <time>2014-11-13T13:04:21Z</time>
      </trkpt>
      <trkpt lat="44.79866" lon="4.40975">
        <ele>1057</ele>
        <time>2014-11-13T13:04:26Z</time>
      </trkpt>
      <trkpt lat="44.79862" lon="4.40973">
        <ele>1057</ele>
        <time>2014-11-13T13:04:31Z</time>
      </trkpt>
      <trkpt lat="44.79857" lon="4.40971">
        <ele>1057</ele>
        <time>2014-11-13T13:04:36Z</time>
      </trkpt>
      <trkpt lat="44.79851" lon="4.40971">
        <ele>1057</ele>
        <time>2014-11-13T13:04:41Z</time>
      </trkpt>
      <trkpt lat="44.79843" lon="4.40969">
        <ele>1062</ele>
        <time>2014-11-13T13:04:46Z</time>
      </trkpt>
      <trkpt lat="44.79838" lon="4.40968">
        <ele>1062</ele>
        <time>2014-11-13T13:04:51Z</time>
      </trkpt>
      <trkpt lat="44.79835" lon="4.40969">
        <ele>1062</ele>
        <time>2014-11-13T13:04:56Z</time>
      </trkpt>
      <trkpt lat="44.79828" lon="4.40971">
        <ele>1062</ele>
        <time>2014-11-13T13:05:01Z</time>
      </trkpt>
      <trkpt lat="44.79824" lon="4.40969">
        <ele>1062</ele>
        <time>2014-11-13T13:05:06Z</time>
      </trkpt>
      <trkpt lat="44.79822" lon="4.4097">
        <ele>1062</ele>
        <time>2014-11-13T13:05:11Z</time>
      </trkpt>
      <trkpt lat="44.79819" lon="4.40971">
        <ele>1062</ele>
        <time>2014-11-13T13:05:16Z</time>
      </trkpt>
      <trkpt lat="44.79813" lon="4.4097">
        <ele>1062</ele>
        <time>2014-11-13T13:05:21Z</time>
      </trkpt>
      <trkpt lat="44.79808" lon="4.40972">
        <ele>1062</ele>
        <time>2014-11-13T13:05:26Z</time>
      </trkpt>
      <trkpt lat="44.79803" lon="4.40975">
        <ele>1062</ele>
        <time>2014-11-13T13:05:31Z</time>
      </trkpt>
      <trkpt lat="44.79796" lon="4.40977">
        <ele>1062</ele>
        <time>2014-11-13T13:05:36Z</time>
      </trkpt>
      <trkpt lat="44.7979" lon="4.40976">
        <ele>1063</ele>
        <time>2014-11-13T13:05:41Z</time>
      </trkpt>
      <trkpt lat="44.79786" lon="4.40977">
        <ele>1063</ele>
        <time>2014-11-13T13:05:46Z</time>
      </trkpt>
      <trkpt lat="44.79782" lon="4.40979">
        <ele>1063</ele>
        <time>2014-11-13T13:05:51Z</time>
      </trkpt>
      <trkpt lat="44.79777" lon="4.40982">
        <ele>1063</ele>
        <time>2014-11-13T13:05:56Z</time>
      </trkpt>
      <trkpt lat="44.79772" lon="4.40987">
        <ele>1065</ele>
        <time>2014-11-13T13:06:01Z</time>
      </trkpt>
      <trkpt lat="44.79765" lon="4.40988">
        <ele>1065</ele>
        <time>2014-11-13T13:06:06Z</time>
      </trkpt>
      <trkpt lat="44.7976" lon="4.40987">
        <ele>1067</ele>
        <time>2014-11-13T13:06:11Z</time>
      </trkpt>
      <trkpt lat="44.79756" lon="4.40985">
        <ele>1064</ele>
        <time>2014-11-13T13:06:16Z</time>
      </trkpt>
      <trkpt lat="44.79751" lon="4.40986">
        <ele>1064</ele>
        <time>2014-11-13T13:06:21Z</time>
      </trkpt>
      <trkpt lat="44.79744" lon="4.40985">
        <ele>1064</ele>
        <time>2014-11-13T13:06:26Z</time>
      </trkpt>
      <trkpt lat="44.79739" lon="4.40986">
        <ele>1064</ele>
        <time>2014-11-13T13:06:31Z</time>
      </trkpt>
      <trkpt lat="44.79734" lon="4.40986">
        <ele>1067</ele>
        <time>2014-11-13T13:06:36Z</time>
      </trkpt>
      <trkpt lat="44.79726" lon="4.40985">
        <ele>1066</ele>
        <time>2014-11-13T13:06:41Z</time>
      </trkpt>
      <trkpt lat="44.79721" lon="4.40985">
        <ele>1066</ele>
        <time>2014-11-13T13:06:46Z</time>
      </trkpt>
      <trkpt lat="44.79716" lon="4.40985">
        <ele>1066</ele>
        <time>2014-11-13T13:06:51Z</time>
      </trkpt>
      <trkpt lat="44.79712" lon="4.40987">
        <ele>1067</ele>
        <time>2014-11-13T13:06:56Z</time>
      </trkpt>
      <trkpt lat="44.79706" lon="4.40991">
        <ele>1066</ele>
        <time>2014-11-13T13:07:01Z</time>
      </trkpt>
      <trkpt lat="44.797" lon="4.40993">
        <ele>1066</ele>
        <time>2014-11-13T13:07:06Z</time>
      </trkpt>
      <trkpt lat="44.79693" lon="4.40992">
        <ele>1066</ele>
        <time>2014-11-13T13:07:11Z</time>
      </trkpt>
      <trkpt lat="44.79689" lon="4.40991">
        <ele>1066</ele>
        <time>2014-11-13T13:07:16Z</time>
      </trkpt>
      <trkpt lat="44.79683" lon="4.40989">
        <ele>1066</ele>
        <time>2014-11-13T13:07:21Z</time>
      </trkpt>
      <trkpt lat="44.79678" lon="4.40991">
        <ele>1066</ele>
        <time>2014-11-13T13:07:26Z</time>
      </trkpt>
      <trkpt lat="44.79672" lon="4.40989">
        <ele>1066</ele>
        <time>2014-11-13T13:07:31Z</time>
      </trkpt>
      <trkpt lat="44.79667" lon="4.40987">
        <ele>1066</ele>
        <time>2014-11-13T13:07:36Z</time>
      </trkpt>
      <trkpt lat="44.79662" lon="4.40984">
        <ele>1065</ele>
        <time>2014-11-13T13:07:41Z</time>
      </trkpt>
      <trkpt lat="44.79658" lon="4.40981">
        <ele>1065</ele>
        <time>2014-11-13T13:07:46Z</time>
      </trkpt>
      <trkpt lat="44.79654" lon="4.40979">
        <ele>1065</ele>
        <time>2014-11-13T13:07:51Z</time>
      </trkpt>
      <trkpt lat="44.79648" lon="4.40977">
        <ele>1066</ele>
        <time>2014-11-13T13:07:56Z</time>
      </trkpt>
      <trkpt lat="44.79642" lon="4.40975">
        <ele>1066</ele>
        <time>2014-11-13T13:08:01Z</time>
      </trkpt>
      <trkpt lat="44.79637" lon="4.40974">
        <ele>1066</ele>
        <time>2014-11-13T13:08:06Z</time>
      </trkpt>
      <trkpt lat="44.79632" lon="4.40973">
        <ele>1066</ele>
        <time>2014-11-13T13:08:11Z</time>
      </trkpt>
      <trkpt lat="44.79628" lon="4.4097">
        <ele>1066</ele>
        <time>2014-11-13T13:08:16Z</time>
      </trkpt>
      <trkpt lat="44.79624" lon="4.40968">
        <ele>1069</ele>
        <time>2014-11-13T13:08:21Z</time>
      </trkpt>
      <trkpt lat="44.79621" lon="4.40965">
        <ele>1069</ele>
        <time>2014-11-13T13:08:26Z</time>
      </trkpt>
      <trkpt lat="44.79617" lon="4.40963">
        <ele>1069</ele>
        <time>2014-11-13T13:08:31Z</time>
      </trkpt>
      <trkpt lat="44.79612" lon="4.40963">
        <ele>1069</ele>
        <time>2014-11-13T13:08:36Z</time>
      </trkpt>
      <trkpt lat="44.79606" lon="4.4096">
        <ele>1069</ele>
        <time>2014-11-13T13:08:41Z</time>
      </trkpt>
      <trkpt lat="44.79602" lon="4.40958">
        <ele>1069</ele>
        <time>2014-11-13T13:08:46Z</time>
      </trkpt>
      <trkpt lat="44.79598" lon="4.40957">
        <ele>1069</ele>
        <time>2014-11-13T13:08:51Z</time>
      </trkpt>
      <trkpt lat="44.79594" lon="4.40956">
        <ele>1077</ele>
        <time>2014-11-13T13:08:56Z</time>
      </trkpt>
      <trkpt lat="44.79589" lon="4.40956">
        <ele>1077</ele>
        <time>2014-11-13T13:09:01Z</time>
      </trkpt>
      <trkpt lat="44.79585" lon="4.40956">
        <ele>1077</ele>
        <time>2014-11-13T13:09:06Z</time>
      </trkpt>
      <trkpt lat="44.79581" lon="4.40956">
        <ele>1077</ele>
        <time>2014-11-13T13:09:11Z</time>
      </trkpt>
      <trkpt lat="44.79579" lon="4.40956">
        <ele>1077</ele>
        <time>2014-11-13T13:09:16Z</time>
      </trkpt>
      <trkpt lat="44.79576" lon="4.40954">
        <ele>1077</ele>
        <time>2014-11-13T13:09:21Z</time>
      </trkpt>
      <trkpt lat="44.79573" lon="4.40952">
        <ele>1077</ele>
        <time>2014-11-13T13:09:26Z</time>
      </trkpt>
      <trkpt lat="44.79573" lon="4.40953">
        <ele>1077</ele>
        <time>2014-11-13T13:09:31Z</time>
      </trkpt>
      <trkpt lat="44.79572" lon="4.40953">
        <ele>1077</ele>
        <time>2014-11-13T13:09:36Z</time>
      </trkpt>
      <trkpt lat="44.79572" lon="4.4095">
        <ele>1077</ele>
        <time>2014-11-13T13:09:41Z</time>
      </trkpt>
      <trkpt lat="44.79571" lon="4.40948">
        <ele>1077</ele>
        <time>2014-11-13T13:09:46Z</time>
      </trkpt>
      <trkpt lat="44.79572" lon="4.40948">
        <ele>1077</ele>
        <time>2014-11-13T13:09:51Z</time>
      </trkpt>
      <trkpt lat="44.79573" lon="4.40948">
        <ele>1077</ele>
        <time>2014-11-13T13:09:56Z</time>
      </trkpt>
      <trkpt lat="44.79572" lon="4.40948">
        <ele>1077</ele>
        <time>2014-11-13T13:10:01Z</time>
      </trkpt>
      <trkpt lat="44.79571" lon="4.40948">
        <ele>1077</ele>
        <time>2014-11-13T13:10:06Z</time>
      </trkpt>
      <trkpt lat="44.79573" lon="4.40948">
        <ele>1077</ele>
        <time>2014-11-13T13:10:21Z</time>
      </trkpt>
      <trkpt lat="44.79572" lon="4.40948">
        <ele>1077</ele>
        <time>2014-11-13T13:10:26Z</time>
      </trkpt>
      <trkpt lat="44.79567" lon="4.40945">
        <ele>1083</ele>
        <time>2014-11-13T13:10:31Z</time>
      </trkpt>
      <trkpt lat="44.79563" lon="4.40944">
        <ele>1083</ele>
        <time>2014-11-13T13:10:36Z</time>
      </trkpt>
      <trkpt lat="44.79559" lon="4.40944">
        <ele>1083</ele>
        <time>2014-11-13T13:10:41Z</time>
      </trkpt>
      <trkpt lat="44.79556" lon="4.40944">
        <ele>1083</ele>
        <time>2014-11-13T13:10:46Z</time>
      </trkpt>
      <trkpt lat="44.79553" lon="4.40943">
        <ele>1083</ele>
        <time>2014-11-13T13:10:51Z</time>
      </trkpt>
      <trkpt lat="44.79553" lon="4.40942">
        <ele>1083</ele>
        <time>2014-11-13T13:10:56Z</time>
      </trkpt>
      <trkpt lat="44.79551" lon="4.4094">
        <ele>1083</ele>
        <time>2014-11-13T13:11:01Z</time>
      </trkpt>
      <trkpt lat="44.79548" lon="4.40942">
        <ele>1083</ele>
        <time>2014-11-13T13:11:06Z</time>
      </trkpt>
      <trkpt lat="44.79546" lon="4.40942">
        <ele>1083</ele>
        <time>2014-11-13T13:11:11Z</time>
      </trkpt>
      <trkpt lat="44.79545" lon="4.40943">
        <ele>1083</ele>
        <time>2014-11-13T13:11:16Z</time>
      </trkpt>
      <trkpt lat="44.79542" lon="4.40943">
        <ele>1083</ele>
        <time>2014-11-13T13:11:21Z</time>
      </trkpt>
      <trkpt lat="44.79538" lon="4.40941">
        <ele>1089</ele>
        <time>2014-11-13T13:11:26Z</time>
      </trkpt>
      <trkpt lat="44.79534" lon="4.40939">
        <ele>1089</ele>
        <time>2014-11-13T13:11:31Z</time>
      </trkpt>
      <trkpt lat="44.79531" lon="4.40937">
        <ele>1089</ele>
        <time>2014-11-13T13:11:36Z</time>
      </trkpt>
      <trkpt lat="44.79528" lon="4.40933">
        <ele>1089</ele>
        <time>2014-11-13T13:11:41Z</time>
      </trkpt>
      <trkpt lat="44.79525" lon="4.40931">
        <ele>1089</ele>
        <time>2014-11-13T13:11:46Z</time>
      </trkpt>
      <trkpt lat="44.79522" lon="4.40927">
        <ele>1088</ele>
        <time>2014-11-13T13:11:51Z</time>
      </trkpt>
      <trkpt lat="44.7952" lon="4.40922">
        <ele>1088</ele>
        <time>2014-11-13T13:11:56Z</time>
      </trkpt>
      <trkpt lat="44.79518" lon="4.40919">
        <ele>1088</ele>
        <time>2014-11-13T13:12:01Z</time>
      </trkpt>
      <trkpt lat="44.79517" lon="4.40918">
        <ele>1088</ele>
        <time>2014-11-13T13:12:06Z</time>
      </trkpt>
      <trkpt lat="44.79515" lon="4.40916">
        <ele>1088</ele>
        <time>2014-11-13T13:12:11Z</time>
      </trkpt>
      <trkpt lat="44.79512" lon="4.40913">
        <ele>1093</ele>
        <time>2014-11-13T13:12:16Z</time>
      </trkpt>
      <trkpt lat="44.79508" lon="4.40911">
        <ele>1093</ele>
        <time>2014-11-13T13:12:21Z</time>
      </trkpt>
      <trkpt lat="44.79504" lon="4.40906">
        <ele>1093</ele>
        <time>2014-11-13T13:12:26Z</time>
      </trkpt>
      <trkpt lat="44.795" lon="4.40903">
        <ele>1093</ele>
        <time>2014-11-13T13:12:31Z</time>
      </trkpt>
      <trkpt lat="44.79497" lon="4.40898">
        <ele>1094</ele>
        <time>2014-11-13T13:12:36Z</time>
      </trkpt>
      <trkpt lat="44.79495" lon="4.40893">
        <ele>1094</ele>
        <time>2014-11-13T13:12:41Z</time>
      </trkpt>
      <trkpt lat="44.79494" lon="4.40887">
        <ele>1094</ele>
        <time>2014-11-13T13:12:46Z</time>
      </trkpt>
      <trkpt lat="44.79493" lon="4.40882">
        <ele>1094</ele>
        <time>2014-11-13T13:12:51Z</time>
      </trkpt>
      <trkpt lat="44.79492" lon="4.40876">
        <ele>1094</ele>
        <time>2014-11-13T13:12:56Z</time>
      </trkpt>
      <trkpt lat="44.7949" lon="4.40871">
        <ele>1094</ele>
        <time>2014-11-13T13:13:01Z</time>
      </trkpt>
      <trkpt lat="44.79487" lon="4.40868">
        <ele>1094</ele>
        <time>2014-11-13T13:13:06Z</time>
      </trkpt>
      <trkpt lat="44.79486" lon="4.40867">
        <ele>1094</ele>
        <time>2014-11-13T13:13:11Z</time>
      </trkpt>
      <trkpt lat="44.79486" lon="4.40866">
        <ele>1098</ele>
        <time>2014-11-13T13:13:16Z</time>
      </trkpt>
      <trkpt lat="44.79485" lon="4.40864">
        <ele>1098</ele>
        <time>2014-11-13T13:13:21Z</time>
      </trkpt>
      <trkpt lat="44.79482" lon="4.40861">
        <ele>1098</ele>
        <time>2014-11-13T13:13:26Z</time>
      </trkpt>
      <trkpt lat="44.79479" lon="4.40858">
        <ele>1098</ele>
        <time>2014-11-13T13:13:31Z</time>
      </trkpt>
      <trkpt lat="44.79476" lon="4.40855">
        <ele>1098</ele>
        <time>2014-11-13T13:13:36Z</time>
      </trkpt>
      <trkpt lat="44.79475" lon="4.40852">
        <ele>1098</ele>
        <time>2014-11-13T13:13:41Z</time>
      </trkpt>
      <trkpt lat="44.79473" lon="4.40849">
        <ele>1098</ele>
        <time>2014-11-13T13:13:46Z</time>
      </trkpt>
      <trkpt lat="44.7947" lon="4.40843">
        <ele>1097</ele>
        <time>2014-11-13T13:13:51Z</time>
      </trkpt>
      <trkpt lat="44.79468" lon="4.40836">
        <ele>1097</ele>
        <time>2014-11-13T13:13:56Z</time>
      </trkpt>
      <trkpt lat="44.79467" lon="4.40831">
        <ele>1097</ele>
        <time>2014-11-13T13:14:01Z</time>
      </trkpt>
      <trkpt lat="44.79466" lon="4.40823">
        <ele>1097</ele>
        <time>2014-11-13T13:14:06Z</time>
      </trkpt>
      <trkpt lat="44.79466" lon="4.40815">
        <ele>1099</ele>
        <time>2014-11-13T13:14:11Z</time>
      </trkpt>
      <trkpt lat="44.79465" lon="4.40808">
        <ele>1099</ele>
        <time>2014-11-13T13:14:16Z</time>
      </trkpt>
      <trkpt lat="44.79464" lon="4.40802">
        <ele>1099</ele>
        <time>2014-11-13T13:14:21Z</time>
      </trkpt>
      <trkpt lat="44.79463" lon="4.40798">
        <ele>1099</ele>
        <time>2014-11-13T13:14:26Z</time>
      </trkpt>
      <trkpt lat="44.79461" lon="4.40792">
        <ele>1099</ele>
        <time>2014-11-13T13:14:31Z</time>
      </trkpt>
      <trkpt lat="44.79458" lon="4.40783">
        <ele>1103</ele>
        <time>2014-11-13T13:14:36Z</time>
      </trkpt>
      <trkpt lat="44.79457" lon="4.40778">
        <ele>1103</ele>
        <time>2014-11-13T13:14:41Z</time>
      </trkpt>
      <trkpt lat="44.79456" lon="4.40772">
        <ele>1103</ele>
        <time>2014-11-13T13:14:46Z</time>
      </trkpt>
      <trkpt lat="44.79454" lon="4.40765">
        <ele>1103</ele>
        <time>2014-11-13T13:14:51Z</time>
      </trkpt>
      <trkpt lat="44.79453" lon="4.40756">
        <ele>1104</ele>
        <time>2014-11-13T13:14:56Z</time>
      </trkpt>
      <trkpt lat="44.79452" lon="4.40748">
        <ele>1104</ele>
        <time>2014-11-13T13:15:01Z</time>
      </trkpt>
      <trkpt lat="44.79451" lon="4.40742">
        <ele>1104</ele>
        <time>2014-11-13T13:15:06Z</time>
      </trkpt>
      <trkpt lat="44.79453" lon="4.40736">
        <ele>1106</ele>
        <time>2014-11-13T13:15:11Z</time>
      </trkpt>
      <trkpt lat="44.79454" lon="4.40731">
        <ele>1106</ele>
        <time>2014-11-13T13:15:16Z</time>
      </trkpt>
      <trkpt lat="44.79453" lon="4.40724">
        <ele>1106</ele>
        <time>2014-11-13T13:15:21Z</time>
      </trkpt>
      <trkpt lat="44.79451" lon="4.40717">
        <ele>1106</ele>
        <time>2014-11-13T13:15:26Z</time>
      </trkpt>
      <trkpt lat="44.79449" lon="4.4071">
        <ele>1106</ele>
        <time>2014-11-13T13:15:31Z</time>
      </trkpt>
      <trkpt lat="44.79448" lon="4.40701">
        <ele>1108</ele>
        <time>2014-11-13T13:15:36Z</time>
      </trkpt>
      <trkpt lat="44.79447" lon="4.40696">
        <ele>1108</ele>
        <time>2014-11-13T13:15:41Z</time>
      </trkpt>
      <trkpt lat="44.79446" lon="4.4069">
        <ele>1108</ele>
        <time>2014-11-13T13:15:46Z</time>
      </trkpt>
      <trkpt lat="44.79444" lon="4.40687">
        <ele>1108</ele>
        <time>2014-11-13T13:15:51Z</time>
      </trkpt>
      <trkpt lat="44.79441" lon="4.40683">
        <ele>1108</ele>
        <time>2014-11-13T13:15:56Z</time>
      </trkpt>
      <trkpt lat="44.79439" lon="4.40679">
        <ele>1112</ele>
        <time>2014-11-13T13:16:01Z</time>
      </trkpt>
      <trkpt lat="44.79436" lon="4.40674">
        <ele>1112</ele>
        <time>2014-11-13T13:16:06Z</time>
      </trkpt>
      <trkpt lat="44.79434" lon="4.4067">
        <ele>1112</ele>
        <time>2014-11-13T13:16:11Z</time>
      </trkpt>
      <trkpt lat="44.79431" lon="4.40668">
        <ele>1110</ele>
        <time>2014-11-13T13:16:16Z</time>
      </trkpt>
      <trkpt lat="44.79428" lon="4.40663">
        <ele>1110</ele>
        <time>2014-11-13T13:16:21Z</time>
      </trkpt>
      <trkpt lat="44.79425" lon="4.40658">
        <ele>1110</ele>
        <time>2014-11-13T13:16:26Z</time>
      </trkpt>
      <trkpt lat="44.79423" lon="4.40655">
        <ele>1110</ele>
        <time>2014-11-13T13:16:31Z</time>
      </trkpt>
      <trkpt lat="44.79421" lon="4.40649">
        <ele>1115</ele>
        <time>2014-11-13T13:16:36Z</time>
      </trkpt>
      <trkpt lat="44.7942" lon="4.40643">
        <ele>1115</ele>
        <time>2014-11-13T13:16:41Z</time>
      </trkpt>
      <trkpt lat="44.79418" lon="4.40636">
        <ele>1115</ele>
        <time>2014-11-13T13:16:46Z</time>
      </trkpt>
      <trkpt lat="44.79417" lon="4.40627">
        <ele>1115</ele>
        <time>2014-11-13T13:16:51Z</time>
      </trkpt>
      <trkpt lat="44.79414" lon="4.40617">
        <ele>1117</ele>
        <time>2014-11-13T13:16:56Z</time>
      </trkpt>
      <trkpt lat="44.79413" lon="4.40612">
        <ele>1117</ele>
        <time>2014-11-13T13:17:01Z</time>
      </trkpt>
      <trkpt lat="44.79412" lon="4.40609">
        <ele>1117</ele>
        <time>2014-11-13T13:17:06Z</time>
      </trkpt>
      <trkpt lat="44.79411" lon="4.40609">
        <ele>1117</ele>
        <time>2014-11-13T13:17:16Z</time>
      </trkpt>
      <trkpt lat="44.79411" lon="4.40607">
        <ele>1117</ele>
        <time>2014-11-13T13:17:21Z</time>
      </trkpt>
      <trkpt lat="44.79412" lon="4.40607">
        <ele>1117</ele>
        <time>2014-11-13T13:17:26Z</time>
      </trkpt>
      <trkpt lat="44.79413" lon="4.40606">
        <ele>1117</ele>
        <time>2014-11-13T13:17:31Z</time>
      </trkpt>
      <trkpt lat="44.79414" lon="4.40607">
        <ele>1117</ele>
        <time>2014-11-13T13:17:36Z</time>
      </trkpt>
      <trkpt lat="44.79419" lon="4.40597">
        <ele>1115.8</ele>
        <extensions>
          <visugpx:TrkExtension xmlns:visugpx="https://www.visugpx.com/editgpx/">
            <visugpx:node>9</visugpx:node>
            </visugpx:TrkExtension>
        </extensions>
      </trkpt>
      <trkpt lat="44.79418" lon="4.40597">
        <ele>1115.7</ele>
      </trkpt>
      <trkpt lat="44.79414" lon="4.40595">
        <ele>1114.9</ele>
      </trkpt>
      <trkpt lat="44.79411" lon="4.40589">
        <ele>1114.2</ele>
      </trkpt>
      <trkpt lat="44.79408" lon="4.40582">
        <ele>1113.5</ele>
      </trkpt>
      <trkpt lat="44.79406" lon="4.40574">
        <ele>1112.9</ele>
      </trkpt>
      <trkpt lat="44.79404" lon="4.40566">
        <ele>1112.4</ele>
      </trkpt>
      <trkpt lat="44.79404" lon="4.40557">
        <ele>1112.4</ele>
      </trkpt>
      <trkpt lat="44.79403" lon="4.40545">
        <ele>1111.9</ele>
      </trkpt>
      <trkpt lat="44.794" lon="4.40534">
        <ele>1110.7</ele>
      </trkpt>
      <trkpt lat="44.79399" lon="4.40519">
        <ele>1110.9</ele>
      </trkpt>
      <trkpt lat="44.79395" lon="4.40505">
        <ele>1110.6</ele>
      </trkpt>
      <trkpt lat="44.79393" lon="4.40494">
        <ele>1110.6</ele>
      </trkpt>
      <trkpt lat="44.7939" lon="4.40481">
        <ele>1110.1</ele>
      </trkpt>
      <trkpt lat="44.79387" lon="4.40468">
        <ele>1109.5</ele>
      </trkpt>
      <trkpt lat="44.79385" lon="4.40457">
        <ele>1109.6</ele>
      </trkpt>
      <trkpt lat="44.79379" lon="4.40447">
        <ele>1108.2</ele>
      </trkpt>
      <trkpt lat="44.79366" lon="4.40421">
        <ele>1105.6</ele>
      </trkpt>
      <trkpt lat="44.79363" lon="4.40412">
        <ele>1105</ele>
      </trkpt>
      <trkpt lat="44.7936" lon="4.40398">
        <ele>1104.2</ele>
      </trkpt>
      <trkpt lat="44.79357" lon="4.4039">
        <ele>1103.6</ele>
      </trkpt>
      <trkpt lat="44.79348" lon="4.40377">
        <ele>1104.3</ele>
      </trkpt>
      <trkpt lat="44.79344" lon="4.40374">
        <ele>1104.3</ele>
      </trkpt>
      <trkpt lat="44.79335" lon="4.40372">
        <ele>1103</ele>
      </trkpt>
      <trkpt lat="44.79327" lon="4.40371">
        <ele>1102.2</ele>
      </trkpt>
      <trkpt lat="44.79319" lon="4.40369">
        <ele>1101.8</ele>
      </trkpt>
      <trkpt lat="44.7931" lon="4.40366">
        <ele>1101.7</ele>
      </trkpt>
      <trkpt lat="44.793" lon="4.40358">
        <ele>1102.9</ele>
      </trkpt>
      <trkpt lat="44.79294" lon="4.40355">
        <ele>1102.8</ele>
      </trkpt>
      <trkpt lat="44.79288" lon="4.40354">
        <ele>1101.9</ele>
      </trkpt>
      <trkpt lat="44.7928" lon="4.40354">
        <ele>1100.3</ele>
      </trkpt>
      <trkpt lat="44.79272" lon="4.40355">
        <ele>1099.2</ele>
      </trkpt>
      <trkpt lat="44.79261" lon="4.40355">
        <ele>1098.7</ele>
      </trkpt>
      <trkpt lat="44.79254" lon="4.40356">
        <ele>1098</ele>
      </trkpt>
      <trkpt lat="44.79244" lon="4.40359">
        <ele>1096.4</ele>
      </trkpt>
      <trkpt lat="44.79229" lon="4.40363">
        <ele>1093.9</ele>
      </trkpt>
      <trkpt lat="44.79214" lon="4.40368">
        <ele>1091.3</ele>
      </trkpt>
      <trkpt lat="44.79209" lon="4.40367">
        <ele>1091.4</ele>
      </trkpt>
      <trkpt lat="44.79204" lon="4.4036">
        <ele>1093.5</ele>
      </trkpt>
      <trkpt lat="44.79203" lon="4.40357">
        <ele>1093.8</ele>
      </trkpt>
      <trkpt lat="44.79201" lon="4.40353">
        <ele>1093.8</ele>
      </trkpt>
      <trkpt lat="44.792" lon="4.40346">
        <ele>1094.1</ele>
      </trkpt>
      <trkpt lat="44.792" lon="4.40339">
        <ele>1094.5</ele>
      </trkpt>
      <trkpt lat="44.792" lon="4.40326">
        <ele>1095.6</ele>
      </trkpt>
      <trkpt lat="44.79199" lon="4.40317">
        <ele>1096.2</ele>
      </trkpt>
      <trkpt lat="44.79197" lon="4.40307">
        <ele>1096.2</ele>
      </trkpt>
      <trkpt lat="44.79195" lon="4.40295">
        <ele>1097.2</ele>
      </trkpt>
      <trkpt lat="44.79192" lon="4.40272">
        <ele>1099.2</ele>
      </trkpt>
      <trkpt lat="44.79191" lon="4.40243">
        <ele>1101.6</ele>
      </trkpt>
      <trkpt lat="44.79189" lon="4.40226">
        <ele>1101.8</ele>
      </trkpt>
      <trkpt lat="44.79187" lon="4.40213">
        <ele>1102</ele>
      </trkpt>
      <trkpt lat="44.79186" lon="4.40198">
        <ele>1103.1</ele>
      </trkpt>
      <trkpt lat="44.79183" lon="4.40182">
        <ele>1103.8</ele>
      </trkpt>
      <trkpt lat="44.79181" lon="4.40168">
        <ele>1105</ele>
      </trkpt>
      <trkpt lat="44.79179" lon="4.40157">
        <ele>1105.4</ele>
      </trkpt>
      <trkpt lat="44.79177" lon="4.40146">
        <ele>1105.5</ele>
      </trkpt>
      <trkpt lat="44.79176" lon="4.40134">
        <ele>1106.1</ele>
      </trkpt>
      <trkpt lat="44.7917" lon="4.40066">
        <ele>1108.5</ele>
      </trkpt>
      <trkpt lat="44.79163" lon="4.39986">
        <ele>1111.4</ele>
      </trkpt>
      <trkpt lat="44.79158" lon="4.39945">
        <ele>1114.2</ele>
      </trkpt>
      <trkpt lat="44.79153" lon="4.39931">
        <ele>1116</ele>
      </trkpt>
      <trkpt lat="44.79144" lon="4.39917">
        <ele>1117.4</ele>
      </trkpt>
      <trkpt lat="44.79129" lon="4.39902">
        <ele>1116.8</ele>
      </trkpt>
      <trkpt lat="44.79121" lon="4.39889">
        <ele>1117.2</ele>
      </trkpt>
      <trkpt lat="44.79115" lon="4.39872">
        <ele>1117.8</ele>
      </trkpt>
      <trkpt lat="44.79109" lon="4.39842">
        <ele>1119.7</ele>
      </trkpt>
      <trkpt lat="44.79103" lon="4.39801">
        <ele>1121.6</ele>
      </trkpt>
      <trkpt lat="44.79099" lon="4.39756">
        <ele>1124.1</ele>
      </trkpt>
      <trkpt lat="44.79094" lon="4.39731">
        <ele>1125.5</ele>
      </trkpt>
      <trkpt lat="44.79084" lon="4.39705">
        <ele>1126.9</ele>
      </trkpt>
      <trkpt lat="44.79074" lon="4.39683">
        <ele>1128.2</ele>
      </trkpt>
      <trkpt lat="44.79064" lon="4.39657">
        <ele>1129.8</ele>
      </trkpt>
      <trkpt lat="44.79055" lon="4.3963">
        <ele>1131.1</ele>
      </trkpt>
      <trkpt lat="44.79044" lon="4.39595">
        <ele>1133.1</ele>
      </trkpt>
      <trkpt lat="44.79033" lon="4.39567">
        <ele>1134.5</ele>
      </trkpt>
      <trkpt lat="44.79021" lon="4.39541">
        <ele>1136.1</ele>
      </trkpt>
      <trkpt lat="44.79008" lon="4.39517">
        <ele>1137.4</ele>
      </trkpt>
      <trkpt lat="44.78992" lon="4.39482">
        <ele>1139.6</ele>
      </trkpt>
      <trkpt lat="44.78974" lon="4.3945">
        <ele>1140.5</ele>
      </trkpt>
      <trkpt lat="44.78956" lon="4.39419">
        <ele>1143.4</ele>
      </trkpt>
      <trkpt lat="44.78939" lon="4.39394">
        <ele>1145.1</ele>
      </trkpt>
      <trkpt lat="44.78923" lon="4.39375">
        <ele>1146.4</ele>
      </trkpt>
      <trkpt lat="44.78906" lon="4.39353">
        <ele>1148.2</ele>
      </trkpt>
      <trkpt lat="44.78897" lon="4.39344">
        <ele>1148.5</ele>
      </trkpt>
      <trkpt lat="44.78889" lon="4.39339">
        <ele>1148.6</ele>
      </trkpt>
      <trkpt lat="44.7888" lon="4.39334">
        <ele>1149.6</ele>
      </trkpt>
      <trkpt lat="44.78875" lon="4.39333">
        <ele>1150</ele>
        <extensions>
          <visugpx:TrkExtension xmlns:visugpx="https://www.visugpx.com/editgpx/">
            <visugpx:node>8</visugpx:node>
            </visugpx:TrkExtension>
        </extensions>
      </trkpt>
      <trkpt lat="44.78872" lon="4.39332">
        <ele>1150.2</ele>
      </trkpt>
      <trkpt lat="44.78867" lon="4.39332">
        <ele>1150.5</ele>
      </trkpt>
      <trkpt lat="44.78873" lon="4.39302">
        <ele>1149.2</ele>
      </trkpt>
      <trkpt lat="44.78875" lon="4.39281">
        <ele>1147.3</ele>
      </trkpt>
      <trkpt lat="44.78875" lon="4.39271">
        <ele>1146.4</ele>
      </trkpt>
      <trkpt lat="44.78879" lon="4.39258">
        <ele>1145.3</ele>
      </trkpt>
      <trkpt lat="44.78883" lon="4.39246">
        <ele>1144.3</ele>
      </trkpt>
      <trkpt lat="44.78886" lon="4.39236">
        <ele>1143.3</ele>
      </trkpt>
      <trkpt lat="44.78894" lon="4.39211">
        <ele>1141.4</ele>
      </trkpt>
      <trkpt lat="44.78902" lon="4.39192">
        <ele>1140.4</ele>
      </trkpt>
      <trkpt lat="44.78911" lon="4.39165">
        <ele>1137.5</ele>
      </trkpt>
      <trkpt lat="44.7892" lon="4.39135">
        <ele>1135.4</ele>
      </trkpt>
      <trkpt lat="44.7893" lon="4.39103">
        <ele>1132.7</ele>
      </trkpt>
      <trkpt lat="44.78944" lon="4.3906">
        <ele>1128.7</ele>
      </trkpt>
      <trkpt lat="44.78951" lon="4.39037">
        <ele>1127.3</ele>
      </trkpt>
      <trkpt lat="44.78953" lon="4.39021">
        <ele>1125.1</ele>
      </trkpt>
      <trkpt lat="44.78956" lon="4.39006">
        <ele>1123.3</ele>
      </trkpt>
      <trkpt lat="44.78963" lon="4.38987">
        <ele>1121.4</ele>
      </trkpt>
      <trkpt lat="44.7897" lon="4.38974">
        <ele>1120.6</ele>
      </trkpt>
      <trkpt lat="44.78977" lon="4.3896">
        <ele>1121</ele>
      </trkpt>
      <trkpt lat="44.78981" lon="4.3895">
        <ele>1120.8</ele>
      </trkpt>
      <trkpt lat="44.78983" lon="4.38944">
        <ele>1120.4</ele>
      </trkpt>
      <trkpt lat="44.78981" lon="4.38938">
        <ele>1118.6</ele>
      </trkpt>
      <trkpt lat="44.78977" lon="4.38938">
        <ele>1117.2</ele>
      </trkpt>
      <trkpt lat="44.7897" lon="4.38952">
        <ele>1117.2</ele>
      </trkpt>
      <trkpt lat="44.78962" lon="4.38966">
        <ele>1116.3</ele>
      </trkpt>
      <trkpt lat="44.78948" lon="4.38988">
        <ele>1116.3</ele>
      </trkpt>
      <trkpt lat="44.78963" lon="4.38946">
        <ele>1113.3</ele>
      </trkpt>
      <trkpt lat="44.78974" lon="4.38905">
        <ele>1110.1</ele>
      </trkpt>
      <trkpt lat="44.78984" lon="4.3886">
        <ele>1109.4</ele>
      </trkpt>
      <trkpt lat="44.78988" lon="4.38793">
        <ele>1105</ele>
      </trkpt>
      <trkpt lat="44.78989" lon="4.38738">
        <ele>1098.3</ele>
      </trkpt>
      <trkpt lat="44.78999" lon="4.38684">
        <ele>1091.9</ele>
      </trkpt>
      <trkpt lat="44.79016" lon="4.38631">
        <ele>1082.8</ele>
      </trkpt>
      <trkpt lat="44.79051" lon="4.38562">
        <ele>1071.7</ele>
      </trkpt>
      <trkpt lat="44.79083" lon="4.38512">
        <ele>1061.2</ele>
      </trkpt>
      <trkpt lat="44.79148" lon="4.38457">
        <ele>1049.6</ele>
      </trkpt>
      <trkpt lat="44.79176" lon="4.38446">
        <ele>1045</ele>
      </trkpt>
      <trkpt lat="44.79188" lon="4.38453">
        <ele>1042.4</ele>
      </trkpt>
      <trkpt lat="44.792" lon="4.38455">
        <ele>1039.7</ele>
      </trkpt>
      <trkpt lat="44.79218" lon="4.38457">
        <ele>1035.5</ele>
      </trkpt>
      <trkpt lat="44.79242" lon="4.38464">
        <ele>1027.5</ele>
      </trkpt>
      <trkpt lat="44.79258" lon="4.38476">
        <ele>1021.1</ele>
      </trkpt>
      <trkpt lat="44.79268" lon="4.38478">
        <ele>1016.7</ele>
      </trkpt>
      <trkpt lat="44.79279" lon="4.38476">
        <ele>1012.2</ele>
        <extensions>
          <visugpx:TrkExtension xmlns:visugpx="https://www.visugpx.com/editgpx/">
            <visugpx:node>7</visugpx:node>
            </visugpx:TrkExtension>
        </extensions>
      </trkpt>
      <trkpt lat="44.79294" lon="4.38473">
        <ele>1006.5</ele>
      </trkpt>
      <trkpt lat="44.79359" lon="4.38451">
        <ele>982.6</ele>
      </trkpt>
      <trkpt lat="44.79381" lon="4.38451">
        <ele>972</ele>
      </trkpt>
      <trkpt lat="44.79391" lon="4.38459">
        <ele>966</ele>
      </trkpt>
      <trkpt lat="44.79406" lon="4.38465">
        <ele>959.1</ele>
      </trkpt>
      <trkpt lat="44.7942" lon="4.3847">
        <ele>953.2</ele>
      </trkpt>
      <trkpt lat="44.79463" lon="4.3845">
        <ele>939.1</ele>
      </trkpt>
      <trkpt lat="44.79477" lon="4.38436">
        <ele>935</ele>
      </trkpt>
      <trkpt lat="44.7949" lon="4.38432">
        <ele>930</ele>
      </trkpt>
      <trkpt lat="44.79502" lon="4.38434">
        <ele>925.1</ele>
      </trkpt>
      <trkpt lat="44.79519" lon="4.38445">
        <ele>918.8</ele>
      </trkpt>
      <trkpt lat="44.79524" lon="4.38458">
        <ele>916.1</ele>
      </trkpt>
      <trkpt lat="44.79532" lon="4.38458">
        <ele>914.1</ele>
      </trkpt>
      <trkpt lat="44.79542" lon="4.38452">
        <ele>911.7</ele>
      </trkpt>
      <trkpt lat="44.79562" lon="4.38441">
        <ele>905.8</ele>
      </trkpt>
      <trkpt lat="44.79585" lon="4.38426">
        <ele>900.3</ele>
      </trkpt>
      <trkpt lat="44.79596" lon="4.38438">
        <ele>899.4</ele>
      </trkpt>
      <trkpt lat="44.79607" lon="4.38451">
        <ele>899.2</ele>
      </trkpt>
      <trkpt lat="44.79627" lon="4.38478">
        <ele>896.8</ele>
      </trkpt>
      <trkpt lat="44.79644" lon="4.385">
        <ele>894.3</ele>
      </trkpt>
      <trkpt lat="44.79657" lon="4.3852">
        <ele>892.2</ele>
      </trkpt>
      <trkpt lat="44.79668" lon="4.38538">
        <ele>890.9</ele>
      </trkpt>
      <trkpt lat="44.79684" lon="4.38557">
        <ele>890.7</ele>
      </trkpt>
      <trkpt lat="44.79698" lon="4.38574">
        <ele>890.4</ele>
      </trkpt>
      <trkpt lat="44.79703" lon="4.38582">
        <ele>890.1</ele>
      </trkpt>
      <trkpt lat="44.79707" lon="4.38596">
        <ele>890.6</ele>
      </trkpt>
      <trkpt lat="44.7971" lon="4.38602">
        <ele>890.7</ele>
      </trkpt>
      <trkpt lat="44.79714" lon="4.38607">
        <ele>890.7</ele>
      </trkpt>
      <trkpt lat="44.79726" lon="4.38615">
        <ele>890.3</ele>
      </trkpt>
      <trkpt lat="44.79744" lon="4.38625">
        <ele>889.9</ele>
      </trkpt>
      <trkpt lat="44.79764" lon="4.38637">
        <ele>888.5</ele>
      </trkpt>
      <trkpt lat="44.79778" lon="4.38646">
        <ele>887.5</ele>
      </trkpt>
      <trkpt lat="44.79794" lon="4.38664">
        <ele>886.8</ele>
      </trkpt>
      <trkpt lat="44.79802" lon="4.38673">
        <ele>886</ele>
      </trkpt>
      <trkpt lat="44.79807" lon="4.38682">
        <ele>885.8</ele>
      </trkpt>
      <trkpt lat="44.79814" lon="4.38689">
        <ele>885</ele>
      </trkpt>
      <trkpt lat="44.79822" lon="4.38696">
        <ele>884.1</ele>
      </trkpt>
      <trkpt lat="44.79833" lon="4.38704">
        <ele>882.8</ele>
      </trkpt>
      <trkpt lat="44.79843" lon="4.38719">
        <ele>882</ele>
      </trkpt>
      <trkpt lat="44.79848" lon="4.3873">
        <ele>880.9</ele>
      </trkpt>
      <trkpt lat="44.7985" lon="4.38741">
        <ele>880.3</ele>
      </trkpt>
      <trkpt lat="44.79852" lon="4.38753">
        <ele>879.6</ele>
      </trkpt>
      <trkpt lat="44.79854" lon="4.38767">
        <ele>879.1</ele>
      </trkpt>
      <trkpt lat="44.79856" lon="4.38773">
        <ele>878.5</ele>
      </trkpt>
      <trkpt lat="44.79859" lon="4.38777">
        <ele>877.7</ele>
      </trkpt>
      <trkpt lat="44.79861" lon="4.38778">
        <ele>877.1</ele>
      </trkpt>
      <trkpt lat="44.79863" lon="4.38779">
        <ele>876.7</ele>
      </trkpt>
      <trkpt lat="44.79864" lon="4.38778">
        <ele>876.3</ele>
      </trkpt>
      <trkpt lat="44.79865" lon="4.38778">
        <ele>876.1</ele>
      </trkpt>
      <trkpt lat="44.79866" lon="4.38776">
        <ele>875.7</ele>
      </trkpt>
      <trkpt lat="44.79866" lon="4.38772">
        <ele>875.5</ele>
      </trkpt>
      <trkpt lat="44.79866" lon="4.38765">
        <ele>875.1</ele>
      </trkpt>
      <trkpt lat="44.79867" lon="4.38749">
        <ele>874.1</ele>
      </trkpt>
      <trkpt lat="44.79868" lon="4.38735">
        <ele>873.6</ele>
      </trkpt>
      <trkpt lat="44.7987" lon="4.38718">
        <ele>872.3</ele>
      </trkpt>
      <trkpt lat="44.79869" lon="4.38703">
        <ele>871</ele>
      </trkpt>
      <trkpt lat="44.79867" lon="4.38692">
        <ele>870.1</ele>
      </trkpt>
      <trkpt lat="44.79864" lon="4.3868">
        <ele>868.7</ele>
      </trkpt>
      <trkpt lat="44.79859" lon="4.3866">
        <ele>866.9</ele>
      </trkpt>
      <trkpt lat="44.79855" lon="4.38649">
        <ele>866.7</ele>
      </trkpt>
      <trkpt lat="44.79852" lon="4.38635">
        <ele>865.8</ele>
      </trkpt>
      <trkpt lat="44.79846" lon="4.3861">
        <ele>864.3</ele>
      </trkpt>
      <trkpt lat="44.79843" lon="4.38588">
        <ele>864.1</ele>
      </trkpt>
      <trkpt lat="44.79836" lon="4.38563">
        <ele>863.2</ele>
      </trkpt>
      <trkpt lat="44.79829" lon="4.38551">
        <ele>863.2</ele>
      </trkpt>
      <trkpt lat="44.79834" lon="4.38551">
        <ele>861.9</ele>
      </trkpt>
      <trkpt lat="44.79838" lon="4.38551">
        <ele>860.9</ele>
      </trkpt>
      <trkpt lat="44.79843" lon="4.38549">
        <ele>859.4</ele>
      </trkpt>
      <trkpt lat="44.79848" lon="4.38549">
        <ele>858.3</ele>
      </trkpt>
      <trkpt lat="44.79852" lon="4.38554">
        <ele>858.1</ele>
      </trkpt>
      <trkpt lat="44.79856" lon="4.38559">
        <ele>857.8</ele>
      </trkpt>
      <trkpt lat="44.79862" lon="4.38568">
        <ele>857.6</ele>
      </trkpt>
      <trkpt lat="44.79865" lon="4.38573">
        <ele>857.7</ele>
      </trkpt>
      <trkpt lat="44.79871" lon="4.38584">
        <ele>857.9</ele>
      </trkpt>
      <trkpt lat="44.79874" lon="4.38588">
        <ele>857.4</ele>
      </trkpt>
      <trkpt lat="44.79877" lon="4.38589">
        <ele>856.8</ele>
      </trkpt>
      <trkpt lat="44.79881" lon="4.3859">
        <ele>856</ele>
      </trkpt>
      <trkpt lat="44.79886" lon="4.38591">
        <ele>855.1</ele>
      </trkpt>
      <trkpt lat="44.79889" lon="4.38593">
        <ele>854.7</ele>
      </trkpt>
      <trkpt lat="44.79892" lon="4.38595">
        <ele>854.2</ele>
      </trkpt>
      <trkpt lat="44.79896" lon="4.38596">
        <ele>853.5</ele>
      </trkpt>
      <trkpt lat="44.79901" lon="4.38598">
        <ele>852.7</ele>
      </trkpt>
      <trkpt lat="44.79904" lon="4.38598">
        <ele>852.1</ele>
      </trkpt>
      <trkpt lat="44.79912" lon="4.386">
        <ele>850.7</ele>
      </trkpt>
      <trkpt lat="44.79924" lon="4.38604">
        <ele>848.9</ele>
      </trkpt>
      <trkpt lat="44.79933" lon="4.38607">
        <ele>847</ele>
      </trkpt>
      <trkpt lat="44.79939" lon="4.38612">
        <ele>845.4</ele>
      </trkpt>
      <trkpt lat="44.7994" lon="4.3863">
        <ele>845.1</ele>
      </trkpt>
      <trkpt lat="44.79942" lon="4.3864">
        <ele>844.5</ele>
      </trkpt>
      <trkpt lat="44.79944" lon="4.38647">
        <ele>843.5</ele>
      </trkpt>
      <trkpt lat="44.79948" lon="4.38649">
        <ele>843.5</ele>
      </trkpt>
      <trkpt lat="44.79957" lon="4.38651">
        <ele>844</ele>
      </trkpt>
      <trkpt lat="44.79958" lon="4.38651">
        <ele>844.1</ele>
      </trkpt>
      <trkpt lat="44.79963" lon="4.38652">
        <ele>844.4</ele>
      </trkpt>
      <trkpt lat="44.79964" lon="4.38652">
        <ele>844.5</ele>
      </trkpt>
      <trkpt lat="44.79965" lon="4.38653">
        <ele>844.5</ele>
      </trkpt>
      <trkpt lat="44.79969" lon="4.38656">
        <ele>844.5</ele>
      </trkpt>
      <trkpt lat="44.79972" lon="4.38661">
        <ele>844.4</ele>
      </trkpt>
      <trkpt lat="44.79977" lon="4.38668">
        <ele>843.8</ele>
      </trkpt>
      <trkpt lat="44.79982" lon="4.38675">
        <ele>843.2</ele>
      </trkpt>
      <trkpt lat="44.7999" lon="4.38683">
        <ele>842.4</ele>
      </trkpt>
      <trkpt lat="44.79994" lon="4.38689">
        <ele>841.8</ele>
      </trkpt>
      <trkpt lat="44.79996" lon="4.38688">
        <ele>841.7</ele>
      </trkpt>
      <trkpt lat="44.79997" lon="4.38688">
        <ele>841.7</ele>
      </trkpt>
      <trkpt lat="44.80001" lon="4.38689">
        <ele>841.4</ele>
      </trkpt>
      <trkpt lat="44.80013" lon="4.38696">
        <ele>840.5</ele>
      </trkpt>
      <trkpt lat="44.80022" lon="4.38698">
        <ele>840.1</ele>
      </trkpt>
      <trkpt lat="44.8003" lon="4.38702">
        <ele>839.8</ele>
      </trkpt>
      <trkpt lat="44.80036" lon="4.38706">
        <ele>839.8</ele>
      </trkpt>
      <trkpt lat="44.80042" lon="4.38711">
        <ele>839.5</ele>
      </trkpt>
      <trkpt lat="44.80051" lon="4.38718">
        <ele>838.7</ele>
      </trkpt>
      <trkpt lat="44.80057" lon="4.38724">
        <ele>837.9</ele>
      </trkpt>
      <trkpt lat="44.80062" lon="4.38724">
        <ele>838</ele>
      </trkpt>
      <trkpt lat="44.8007" lon="4.38724">
        <ele>838.3</ele>
      </trkpt>
      <trkpt lat="44.80074" lon="4.38725">
        <ele>838.3</ele>
      </trkpt>
      <trkpt lat="44.80078" lon="4.38727">
        <ele>838.2</ele>
      </trkpt>
      <trkpt lat="44.80091" lon="4.38748">
        <ele>837.2</ele>
      </trkpt>
      <trkpt lat="44.80093" lon="4.38751">
        <ele>837.2</ele>
        <extensions>
          <visugpx:TrkExtension xmlns:visugpx="https://www.visugpx.com/editgpx/">
            <visugpx:node>6</visugpx:node>
            </visugpx:TrkExtension>
        </extensions>
      </trkpt>
      <trkpt lat="44.80102" lon="4.38771">
        <ele>834.4</ele>
      </trkpt>
      <trkpt lat="44.80112" lon="4.38798">
        <ele>829.3</ele>
      </trkpt>
      <trkpt lat="44.80124" lon="4.38824">
        <ele>827.3</ele>
      </trkpt>
      <trkpt lat="44.80138" lon="4.38851">
        <ele>823.9</ele>
      </trkpt>
      <trkpt lat="44.8015" lon="4.38871">
        <ele>823.3</ele>
      </trkpt>
      <trkpt lat="44.8016" lon="4.38882">
        <ele>823.3</ele>
      </trkpt>
      <trkpt lat="44.80176" lon="4.38899">
        <ele>822.6</ele>
      </trkpt>
      <trkpt lat="44.8019" lon="4.38915">
        <ele>821.8</ele>
      </trkpt>
      <trkpt lat="44.80201" lon="4.38929">
        <ele>820.3</ele>
      </trkpt>
      <trkpt lat="44.80219" lon="4.3895">
        <ele>817.9</ele>
      </trkpt>
      <trkpt lat="44.80233" lon="4.38953">
        <ele>818.2</ele>
      </trkpt>
      <trkpt lat="44.80275" lon="4.38973">
        <ele>815.9</ele>
      </trkpt>
      <trkpt lat="44.8031" lon="4.38988">
        <ele>812</ele>
      </trkpt>
      <trkpt lat="44.80328" lon="4.38988">
        <ele>809.4</ele>
      </trkpt>
      <trkpt lat="44.80354" lon="4.38995">
        <ele>805.2</ele>
      </trkpt>
      <trkpt lat="44.80368" lon="4.38999">
        <ele>804.6</ele>
      </trkpt>
      <trkpt lat="44.80387" lon="4.39008">
        <ele>805</ele>
      </trkpt>
      <trkpt lat="44.804" lon="4.39017">
        <ele>803.3</ele>
      </trkpt>
      <trkpt lat="44.80411" lon="4.3902">
        <ele>803.8</ele>
      </trkpt>
      <trkpt lat="44.80419" lon="4.39021">
        <ele>804.2</ele>
      </trkpt>
      <trkpt lat="44.80432" lon="4.39026">
        <ele>802.6</ele>
      </trkpt>
      <trkpt lat="44.80457" lon="4.39036">
        <ele>801.3</ele>
      </trkpt>
      <trkpt lat="44.80475" lon="4.39048">
        <ele>798.9</ele>
      </trkpt>
      <trkpt lat="44.80498" lon="4.39065">
        <ele>793.7</ele>
      </trkpt>
      <trkpt lat="44.80514" lon="4.39078">
        <ele>790.1</ele>
      </trkpt>
      <trkpt lat="44.80526" lon="4.39094">
        <ele>787.3</ele>
      </trkpt>
      <trkpt lat="44.80537" lon="4.39109">
        <ele>789.8</ele>
      </trkpt>
      <trkpt lat="44.80551" lon="4.39125">
        <ele>790.3</ele>
      </trkpt>
      <trkpt lat="44.80554" lon="4.39128">
        <ele>789.5</ele>
      </trkpt>
      <trkpt lat="44.80561" lon="4.39133">
        <ele>788.4</ele>
      </trkpt>
      <trkpt lat="44.8057" lon="4.39138">
        <ele>787.4</ele>
      </trkpt>
      <trkpt lat="44.80578" lon="4.39148">
        <ele>786.2</ele>
      </trkpt>
      <trkpt lat="44.80591" lon="4.39154">
        <ele>785.3</ele>
      </trkpt>
      <trkpt lat="44.80606" lon="4.39154">
        <ele>784.4</ele>
      </trkpt>
      <trkpt lat="44.80618" lon="4.39152">
        <ele>785.9</ele>
      </trkpt>
      <trkpt lat="44.80631" lon="4.39152">
        <ele>788.1</ele>
      </trkpt>
      <trkpt lat="44.80647" lon="4.39151">
        <ele>787.7</ele>
      </trkpt>
      <trkpt lat="44.80658" lon="4.3915">
        <ele>785.2</ele>
      </trkpt>
      <trkpt lat="44.80672" lon="4.39143">
        <ele>783.8</ele>
      </trkpt>
      <trkpt lat="44.80683" lon="4.39137">
        <ele>781.2</ele>
      </trkpt>
      <trkpt lat="44.80698" lon="4.39134">
        <ele>776.6</ele>
      </trkpt>
      <trkpt lat="44.80714" lon="4.39127">
        <ele>775.3</ele>
      </trkpt>
      <trkpt lat="44.80755" lon="4.39124">
        <ele>771.9</ele>
      </trkpt>
      <trkpt lat="44.80762" lon="4.39126">
        <ele>771.9</ele>
      </trkpt>
      <trkpt lat="44.80776" lon="4.39126">
        <ele>773.4</ele>
      </trkpt>
      <trkpt lat="44.80785" lon="4.39129">
        <ele>772.3</ele>
      </trkpt>
      <trkpt lat="44.80794" lon="4.39129">
        <ele>772.4</ele>
      </trkpt>
      <trkpt lat="44.80804" lon="4.39131">
        <ele>771.8</ele>
      </trkpt>
      <trkpt lat="44.80814" lon="4.39134">
        <ele>771.3</ele>
      </trkpt>
      <trkpt lat="44.80833" lon="4.39149">
        <ele>768.2</ele>
      </trkpt>
      <trkpt lat="44.80843" lon="4.39159">
        <ele>767.5</ele>
      </trkpt>
      <trkpt lat="44.80855" lon="4.3918">
        <ele>762.6</ele>
      </trkpt>
      <trkpt lat="44.80861" lon="4.39185">
        <ele>762</ele>
      </trkpt>
      <trkpt lat="44.80871" lon="4.39192">
        <ele>761</ele>
      </trkpt>
      <trkpt lat="44.80881" lon="4.39199">
        <ele>759.9</ele>
      </trkpt>
      <trkpt lat="44.80893" lon="4.39207">
        <ele>758.7</ele>
      </trkpt>
      <trkpt lat="44.80905" lon="4.3921">
        <ele>758.2</ele>
      </trkpt>
      <trkpt lat="44.80913" lon="4.39214">
        <ele>757.5</ele>
      </trkpt>
      <trkpt lat="44.80918" lon="4.39212">
        <ele>757.9</ele>
      </trkpt>
      <trkpt lat="44.80921" lon="4.39203">
        <ele>759.3</ele>
      </trkpt>
      <trkpt lat="44.80927" lon="4.392">
        <ele>759.6</ele>
      </trkpt>
      <trkpt lat="44.80936" lon="4.39201">
        <ele>759.1</ele>
      </trkpt>
      <trkpt lat="44.80942" lon="4.39201">
        <ele>758.9</ele>
      </trkpt>
      <trkpt lat="44.80947" lon="4.39201">
        <ele>759.7</ele>
      </trkpt>
      <trkpt lat="44.80951" lon="4.39204">
        <ele>760.9</ele>
      </trkpt>
      <trkpt lat="44.8096" lon="4.39216">
        <ele>761.9</ele>
      </trkpt>
      <trkpt lat="44.80972" lon="4.39226">
        <ele>762.1</ele>
      </trkpt>
      <trkpt lat="44.80977" lon="4.39231">
        <ele>763.3</ele>
        <extensions>
          <visugpx:TrkExtension xmlns:visugpx="https://www.visugpx.com/editgpx/">
            <visugpx:node>5</visugpx:node>
            </visugpx:TrkExtension>
        </extensions>
      </trkpt>
      <trkpt lat="44.80983" lon="4.39236">
        <ele>764.7</ele>
      </trkpt>
      <trkpt lat="44.80995" lon="4.39243">
        <ele>767.5</ele>
      </trkpt>
      <trkpt lat="44.81005" lon="4.39256">
        <ele>768.1</ele>
      </trkpt>
      <trkpt lat="44.8102" lon="4.39269">
        <ele>770.3</ele>
      </trkpt>
      <trkpt lat="44.81036" lon="4.39284">
        <ele>768</ele>
      </trkpt>
      <trkpt lat="44.81051" lon="4.39299">
        <ele>763.6</ele>
      </trkpt>
      <trkpt lat="44.81062" lon="4.39309">
        <ele>761.3</ele>
      </trkpt>
      <trkpt lat="44.81071" lon="4.39317">
        <ele>760.1</ele>
      </trkpt>
      <trkpt lat="44.81079" lon="4.39321">
        <ele>759.9</ele>
      </trkpt>
      <trkpt lat="44.81087" lon="4.39323">
        <ele>759.7</ele>
      </trkpt>
      <trkpt lat="44.81104" lon="4.39325">
        <ele>758.2</ele>
      </trkpt>
      <trkpt lat="44.81131" lon="4.39329">
        <ele>756.6</ele>
      </trkpt>
      <trkpt lat="44.8115" lon="4.39332">
        <ele>754.7</ele>
      </trkpt>
      <trkpt lat="44.81163" lon="4.39332">
        <ele>753.7</ele>
      </trkpt>
      <trkpt lat="44.81176" lon="4.39328">
        <ele>753</ele>
      </trkpt>
      <trkpt lat="44.81185" lon="4.39323">
        <ele>752.2</ele>
      </trkpt>
      <trkpt lat="44.81192" lon="4.39316">
        <ele>751.6</ele>
      </trkpt>
      <trkpt lat="44.81197" lon="4.39305">
        <ele>751</ele>
      </trkpt>
      <trkpt lat="44.812" lon="4.39291">
        <ele>750.8</ele>
      </trkpt>
      <trkpt lat="44.81203" lon="4.39274">
        <ele>751</ele>
      </trkpt>
      <trkpt lat="44.81206" lon="4.39251">
        <ele>752.2</ele>
      </trkpt>
      <trkpt lat="44.81213" lon="4.39231">
        <ele>752.7</ele>
      </trkpt>
      <trkpt lat="44.81221" lon="4.39218">
        <ele>752.6</ele>
      </trkpt>
      <trkpt lat="44.81232" lon="4.39209">
        <ele>751.8</ele>
      </trkpt>
      <trkpt lat="44.81241" lon="4.39204">
        <ele>750.4</ele>
      </trkpt>
      <trkpt lat="44.81249" lon="4.39204">
        <ele>747.9</ele>
      </trkpt>
      <trkpt lat="44.81264" lon="4.39215">
        <ele>749.4</ele>
      </trkpt>
      <trkpt lat="44.81266" lon="4.39217">
        <ele>750</ele>
      </trkpt>
      <trkpt lat="44.81266" lon="4.39219">
        <ele>750</ele>
      </trkpt>
      <trkpt lat="44.81266" lon="4.39226">
        <ele>750.6</ele>
      </trkpt>
      <trkpt lat="44.81265" lon="4.3924">
        <ele>752.4</ele>
      </trkpt>
      <trkpt lat="44.81264" lon="4.39259">
        <ele>753.7</ele>
      </trkpt>
      <trkpt lat="44.81264" lon="4.39282">
        <ele>754.1</ele>
      </trkpt>
      <trkpt lat="44.81264" lon="4.39298">
        <ele>754.4</ele>
      </trkpt>
      <trkpt lat="44.8126" lon="4.39317">
        <ele>754.1</ele>
      </trkpt>
      <trkpt lat="44.81256" lon="4.39337">
        <ele>753.8</ele>
      </trkpt>
      <trkpt lat="44.81255" lon="4.39351">
        <ele>753.1</ele>
      </trkpt>
      <trkpt lat="44.81256" lon="4.39361">
        <ele>753.4</ele>
      </trkpt>
      <trkpt lat="44.81263" lon="4.39378">
        <ele>753.5</ele>
      </trkpt>
      <trkpt lat="44.81275" lon="4.39402">
        <ele>753.6</ele>
      </trkpt>
      <trkpt lat="44.81288" lon="4.39426">
        <ele>754.8</ele>
      </trkpt>
      <trkpt lat="44.813" lon="4.39446">
        <ele>755.7</ele>
      </trkpt>
      <trkpt lat="44.8131" lon="4.39467">
        <ele>755.7</ele>
      </trkpt>
      <trkpt lat="44.81317" lon="4.39488">
        <ele>756.6</ele>
      </trkpt>
      <trkpt lat="44.81322" lon="4.39507">
        <ele>757.7</ele>
      </trkpt>
      <trkpt lat="44.81324" lon="4.39519">
        <ele>758.1</ele>
      </trkpt>
      <trkpt lat="44.81327" lon="4.39541">
        <ele>758.3</ele>
      </trkpt>
      <trkpt lat="44.81328" lon="4.39561">
        <ele>758.1</ele>
      </trkpt>
      <trkpt lat="44.81326" lon="4.39583">
        <ele>756.8</ele>
      </trkpt>
      <trkpt lat="44.8132" lon="4.39614">
        <ele>755.2</ele>
      </trkpt>
      <trkpt lat="44.81315" lon="4.39641">
        <ele>755.8</ele>
      </trkpt>
      <trkpt lat="44.81313" lon="4.3966">
        <ele>755.7</ele>
      </trkpt>
      <trkpt lat="44.81313" lon="4.39665">
        <ele>755.9</ele>
      </trkpt>
      <trkpt lat="44.81316" lon="4.39671">
        <ele>756.6</ele>
      </trkpt>
      <trkpt lat="44.81316" lon="4.3968">
        <ele>755.3</ele>
      </trkpt>
      <trkpt lat="44.81318" lon="4.39692">
        <ele>754.4</ele>
      </trkpt>
      <trkpt lat="44.81319" lon="4.39706">
        <ele>752.9</ele>
      </trkpt>
      <trkpt lat="44.81323" lon="4.3972">
        <ele>752.1</ele>
      </trkpt>
      <trkpt lat="44.81327" lon="4.39729">
        <ele>752.3</ele>
      </trkpt>
      <trkpt lat="44.81337" lon="4.39734">
        <ele>752.9</ele>
      </trkpt>
      <trkpt lat="44.81347" lon="4.39734">
        <ele>752.2</ele>
      </trkpt>
      <trkpt lat="44.81357" lon="4.39734">
        <ele>751.6</ele>
      </trkpt>
      <trkpt lat="44.8136" lon="4.39734">
        <ele>751.4</ele>
      </trkpt>
      <trkpt lat="44.8138" lon="4.39737">
        <ele>748.8</ele>
      </trkpt>
      <trkpt lat="44.8139" lon="4.3974">
        <ele>747.6</ele>
      </trkpt>
      <trkpt lat="44.81397" lon="4.39745">
        <ele>749.1</ele>
      </trkpt>
      <trkpt lat="44.814" lon="4.39748">
        <ele>749.7</ele>
      </trkpt>
      <trkpt lat="44.81403" lon="4.39756">
        <ele>749.9</ele>
      </trkpt>
      <trkpt lat="44.81408" lon="4.39778">
        <ele>749.2</ele>
      </trkpt>
      <trkpt lat="44.81413" lon="4.39802">
        <ele>748</ele>
      </trkpt>
      <trkpt lat="44.81416" lon="4.39818">
        <ele>745.2</ele>
      </trkpt>
      <trkpt lat="44.81421" lon="4.39827">
        <ele>744</ele>
      </trkpt>
      <trkpt lat="44.81434" lon="4.39844">
        <ele>744</ele>
      </trkpt>
      <trkpt lat="44.81455" lon="4.39868">
        <ele>743.2</ele>
      </trkpt>
      <trkpt lat="44.81469" lon="4.39886">
        <ele>741.4</ele>
      </trkpt>
      <trkpt lat="44.8148" lon="4.39901">
        <ele>739.5</ele>
      </trkpt>
      <trkpt lat="44.81492" lon="4.39912">
        <ele>738.4</ele>
      </trkpt>
      <trkpt lat="44.81501" lon="4.39918">
        <ele>737.7</ele>
      </trkpt>
      <trkpt lat="44.81506" lon="4.39924">
        <ele>737</ele>
      </trkpt>
      <trkpt lat="44.8151" lon="4.3993">
        <ele>736.9</ele>
      </trkpt>
      <trkpt lat="44.81512" lon="4.39939">
        <ele>736.6</ele>
      </trkpt>
      <trkpt lat="44.81513" lon="4.39955">
        <ele>736.4</ele>
      </trkpt>
      <trkpt lat="44.81515" lon="4.3998">
        <ele>735.8</ele>
      </trkpt>
      <trkpt lat="44.81518" lon="4.40001">
        <ele>734</ele>
      </trkpt>
      <trkpt lat="44.8152" lon="4.40019">
        <ele>731.4</ele>
      </trkpt>
      <trkpt lat="44.81526" lon="4.40047">
        <ele>729.4</ele>
      </trkpt>
      <trkpt lat="44.81527" lon="4.40056">
        <ele>728.7</ele>
      </trkpt>
      <trkpt lat="44.81529" lon="4.40065">
        <ele>727.9</ele>
      </trkpt>
      <trkpt lat="44.81531" lon="4.40078">
        <ele>726.5</ele>
      </trkpt>
      <trkpt lat="44.81533" lon="4.40083">
        <ele>726.7</ele>
      </trkpt>
      <trkpt lat="44.81536" lon="4.4011">
        <ele>726.8</ele>
      </trkpt>
      <trkpt lat="44.81537" lon="4.40118">
        <ele>727.1</ele>
      </trkpt>
      <trkpt lat="44.81538" lon="4.40128">
        <ele>727.4</ele>
      </trkpt>
      <trkpt lat="44.81538" lon="4.4013">
        <ele>727.4</ele>
      </trkpt>
      <trkpt lat="44.81538" lon="4.4014">
        <ele>727.1</ele>
      </trkpt>
      <trkpt lat="44.81537" lon="4.40151">
        <ele>725.9</ele>
      </trkpt>
      <trkpt lat="44.81537" lon="4.40154">
        <ele>725.7</ele>
      </trkpt>
      <trkpt lat="44.81543" lon="4.40165">
        <ele>727.7</ele>
      </trkpt>
      <trkpt lat="44.81547" lon="4.40178">
        <ele>729.1</ele>
      </trkpt>
      <trkpt lat="44.81548" lon="4.40184">
        <ele>729.3</ele>
      </trkpt>
      <trkpt lat="44.81548" lon="4.40188">
        <ele>729.2</ele>
      </trkpt>
      <trkpt lat="44.81546" lon="4.40191">
        <ele>728.6</ele>
      </trkpt>
      <trkpt lat="44.81545" lon="4.40193">
        <ele>728.3</ele>
      </trkpt>
      <trkpt lat="44.81542" lon="4.40195">
        <ele>727.7</ele>
      </trkpt>
      <trkpt lat="44.8154" lon="4.40199">
        <ele>727.7</ele>
      </trkpt>
      <trkpt lat="44.81538" lon="4.40202">
        <ele>727.5</ele>
      </trkpt>
      <trkpt lat="44.81538" lon="4.40207">
        <ele>728.1</ele>
      </trkpt>
      <trkpt lat="44.81538" lon="4.40215">
        <ele>729.1</ele>
      </trkpt>
      <trkpt lat="44.81538" lon="4.40222">
        <ele>730</ele>
      </trkpt>
      <trkpt lat="44.8154" lon="4.40229">
        <ele>730.2</ele>
      </trkpt>
      <trkpt lat="44.81542" lon="4.40233">
        <ele>730.7</ele>
      </trkpt>
      <trkpt lat="44.81545" lon="4.40237">
        <ele>731.6</ele>
      </trkpt>
      <trkpt lat="44.81545" lon="4.40239">
        <ele>731.4</ele>
      </trkpt>
      <trkpt lat="44.81548" lon="4.40242">
        <ele>732.4</ele>
      </trkpt>
      <trkpt lat="44.8155" lon="4.40246">
        <ele>732.9</ele>
      </trkpt>
      <trkpt lat="44.81554" lon="4.40249">
        <ele>734.4</ele>
      </trkpt>
      <trkpt lat="44.81563" lon="4.40258">
        <ele>736</ele>
      </trkpt>
      <trkpt lat="44.81566" lon="4.40262">
        <ele>736.3</ele>
      </trkpt>
      <trkpt lat="44.81572" lon="4.40271">
        <ele>736.7</ele>
      </trkpt>
      <trkpt lat="44.81579" lon="4.40281">
        <ele>737</ele>
      </trkpt>
      <trkpt lat="44.81583" lon="4.4029">
        <ele>736.3</ele>
      </trkpt>
      <trkpt lat="44.81588" lon="4.40302">
        <ele>735.8</ele>
      </trkpt>
      <trkpt lat="44.81593" lon="4.40313">
        <ele>735.8</ele>
      </trkpt>
      <trkpt lat="44.81601" lon="4.40338">
        <ele>735</ele>
      </trkpt>
      <trkpt lat="44.81607" lon="4.40356">
        <ele>735.1</ele>
      </trkpt>
      <trkpt lat="44.81612" lon="4.40367">
        <ele>735.8</ele>
      </trkpt>
      <trkpt lat="44.81614" lon="4.4037">
        <ele>736.4</ele>
        <extensions>
          <visugpx:TrkExtension xmlns:visugpx="https://www.visugpx.com/editgpx/">
            <visugpx:node>4</visugpx:node>
            </visugpx:TrkExtension>
        </extensions>
      </trkpt>
      <trkpt lat="44.81616" lon="4.40375">
        <ele>736.7</ele>
      </trkpt>
      <trkpt lat="44.81619" lon="4.40393">
        <ele>735.8</ele>
      </trkpt>
      <trkpt lat="44.81625" lon="4.40417">
        <ele>734.4</ele>
      </trkpt>
      <trkpt lat="44.81631" lon="4.40437">
        <ele>733.1</ele>
      </trkpt>
      <trkpt lat="44.81635" lon="4.40451">
        <ele>731.5</ele>
      </trkpt>
      <trkpt lat="44.81639" lon="4.40458">
        <ele>731.1</ele>
      </trkpt>
      <trkpt lat="44.81642" lon="4.40466">
        <ele>730.1</ele>
      </trkpt>
      <trkpt lat="44.8165" lon="4.40479">
        <ele>729.4</ele>
      </trkpt>
      <trkpt lat="44.81655" lon="4.4049">
        <ele>727.5</ele>
      </trkpt>
      <trkpt lat="44.81655" lon="4.40494">
        <ele>726.5</ele>
      </trkpt>
      <trkpt lat="44.81657" lon="4.40503">
        <ele>724.5</ele>
      </trkpt>
      <trkpt lat="44.81663" lon="4.40502">
        <ele>724.7</ele>
      </trkpt>
      <trkpt lat="44.81672" lon="4.405">
        <ele>725.4</ele>
      </trkpt>
      <trkpt lat="44.81676" lon="4.40501">
        <ele>725.6</ele>
      </trkpt>
      <trkpt lat="44.81679" lon="4.40502">
        <ele>725.8</ele>
      </trkpt>
      <trkpt lat="44.8168" lon="4.40506">
        <ele>725.8</ele>
      </trkpt>
      <trkpt lat="44.81681" lon="4.40509">
        <ele>725.9</ele>
      </trkpt>
      <trkpt lat="44.81681" lon="4.40512">
        <ele>725.9</ele>
      </trkpt>
      <trkpt lat="44.8168" lon="4.40518">
        <ele>725.5</ele>
      </trkpt>
      <trkpt lat="44.81679" lon="4.40526">
        <ele>724.9</ele>
      </trkpt>
      <trkpt lat="44.81678" lon="4.40537">
        <ele>725</ele>
      </trkpt>
      <trkpt lat="44.81676" lon="4.40547">
        <ele>724.8</ele>
      </trkpt>
      <trkpt lat="44.81678" lon="4.40557">
        <ele>726.1</ele>
      </trkpt>
      <trkpt lat="44.81682" lon="4.40561">
        <ele>727.5</ele>
      </trkpt>
      <trkpt lat="44.8169" lon="4.40563">
        <ele>730.4</ele>
      </trkpt>
      <trkpt lat="44.81691" lon="4.40592">
        <ele>730.1</ele>
      </trkpt>
      <trkpt lat="44.81694" lon="4.40615">
        <ele>729</ele>
      </trkpt>
      <trkpt lat="44.81698" lon="4.40633">
        <ele>726.8</ele>
      </trkpt>
      <trkpt lat="44.81726" lon="4.40679">
        <ele>729.2</ele>
      </trkpt>
      <trkpt lat="44.81731" lon="4.40689">
        <ele>728.5</ele>
      </trkpt>
      <trkpt lat="44.81734" lon="4.40696">
        <ele>728</ele>
      </trkpt>
      <trkpt lat="44.81735" lon="4.40702">
        <ele>727.3</ele>
      </trkpt>
      <trkpt lat="44.81734" lon="4.4071">
        <ele>725.7</ele>
        <extensions>
          <visugpx:TrkExtension xmlns:visugpx="https://www.visugpx.com/editgpx/">
            <visugpx:node>3</visugpx:node>
            </visugpx:TrkExtension>
        </extensions>
      </trkpt>
      <trkpt lat="44.81734" lon="4.40715">
        <ele>724.9</ele>
      </trkpt>
      <trkpt lat="44.81733" lon="4.4072">
        <ele>723.9</ele>
      </trkpt>
      <trkpt lat="44.81732" lon="4.40724">
        <ele>723.3</ele>
      </trkpt>
      <trkpt lat="44.81727" lon="4.40739">
        <ele>722.2</ele>
      </trkpt>
      <trkpt lat="44.81719" lon="4.40753">
        <ele>720.8</ele>
      </trkpt>
      <trkpt lat="44.81714" lon="4.4076">
        <ele>718.9</ele>
      </trkpt>
      <trkpt lat="44.81703" lon="4.40766">
        <ele>714.8</ele>
      </trkpt>
      <trkpt lat="44.81675" lon="4.40778">
        <ele>708.9</ele>
      </trkpt>
      <trkpt lat="44.81682" lon="4.40793">
        <ele>709.2</ele>
      </trkpt>
      <trkpt lat="44.81688" lon="4.40805">
        <ele>709.8</ele>
      </trkpt>
      <trkpt lat="44.81691" lon="4.40811">
        <ele>709.5</ele>
      </trkpt>
      <trkpt lat="44.81693" lon="4.40813">
        <ele>709.4</ele>
      </trkpt>
      <trkpt lat="44.81695" lon="4.40815">
        <ele>709.4</ele>
      </trkpt>
      <trkpt lat="44.817" lon="4.40818">
        <ele>709.6</ele>
      </trkpt>
      <trkpt lat="44.81703" lon="4.4082">
        <ele>709.6</ele>
      </trkpt>
      <trkpt lat="44.81706" lon="4.40823">
        <ele>709.3</ele>
      </trkpt>
      <trkpt lat="44.81712" lon="4.40828">
        <ele>708.7</ele>
      </trkpt>
      <trkpt lat="44.81723" lon="4.40841">
        <ele>706.6</ele>
      </trkpt>
      <trkpt lat="44.81726" lon="4.40846">
        <ele>705.6</ele>
      </trkpt>
      <trkpt lat="44.81727" lon="4.4085">
        <ele>704.8</ele>
      </trkpt>
      <trkpt lat="44.81727" lon="4.40862">
        <ele>702.5</ele>
      </trkpt>
      <trkpt lat="44.81727" lon="4.40884">
        <ele>702.5</ele>
      </trkpt>
      <trkpt lat="44.81724" lon="4.40895">
        <ele>702.6</ele>
      </trkpt>
      <trkpt lat="44.81725" lon="4.40902">
        <ele>704.1</ele>
      </trkpt>
      <trkpt lat="44.81725" lon="4.40907">
        <ele>704.9</ele>
      </trkpt>
      <trkpt lat="44.81725" lon="4.40908">
        <ele>705.1</ele>
        <extensions>
          <visugpx:TrkExtension xmlns:visugpx="https://www.visugpx.com/editgpx/">
            <visugpx:node>2</visugpx:node>
            </visugpx:TrkExtension>
        </extensions>
      </trkpt>
      <trkpt lat="44.81725" lon="4.40911">
        <ele>705.6</ele>
      </trkpt>
      <trkpt lat="44.81724" lon="4.40913">
        <ele>705.7</ele>
      </trkpt>
      <trkpt lat="44.81723" lon="4.40915">
        <ele>705.8</ele>
      </trkpt>
      <trkpt lat="44.81717" lon="4.4092">
        <ele>705.9</ele>
      </trkpt>
      <trkpt lat="44.81707" lon="4.40927">
        <ele>705.9</ele>
      </trkpt>
      <trkpt lat="44.81699" lon="4.40936">
        <ele>706.7</ele>
      </trkpt>
      <trkpt lat="44.81694" lon="4.40944">
        <ele>707.8</ele>
      </trkpt>
      <trkpt lat="44.81689" lon="4.40952">
        <ele>707</ele>
      </trkpt>
      <trkpt lat="44.81684" lon="4.40958">
        <ele>706</ele>
      </trkpt>
      <trkpt lat="44.81682" lon="4.40965">
        <ele>705.9</ele>
      </trkpt>
      <trkpt lat="44.8168" lon="4.40971">
        <ele>705.8</ele>
      </trkpt>
      <trkpt lat="44.8168" lon="4.40975">
        <ele>706</ele>
      </trkpt>
      <trkpt lat="44.81679" lon="4.40984">
        <ele>706</ele>
      </trkpt>
      <trkpt lat="44.81679" lon="4.40994">
        <ele>706.3</ele>
      </trkpt>
      <trkpt lat="44.8168" lon="4.41027">
        <ele>706.3</ele>
      </trkpt>
      <trkpt lat="44.81685" lon="4.41055">
        <ele>708.6</ele>
      </trkpt>
      <trkpt lat="44.81685" lon="4.41066">
        <ele>709.6</ele>
      </trkpt>
      <trkpt lat="44.81684" lon="4.41075">
        <ele>709.9</ele>
      </trkpt>
      <trkpt lat="44.81681" lon="4.41106">
        <ele>710.4</ele>
      </trkpt>
      <trkpt lat="44.8168" lon="4.41119">
        <ele>711.6</ele>
      </trkpt>
      <trkpt lat="44.81679" lon="4.41126">
        <ele>709</ele>
        <time>2014-11-13T15:17:31Z</time>
      </trkpt>
      <trkpt lat="44.8168" lon="4.41131">
        <ele>709</ele>
        <time>2014-11-13T15:17:36Z</time>
      </trkpt>
      <trkpt lat="44.81679" lon="4.41137">
        <ele>709</ele>
        <time>2014-11-13T15:17:41Z</time>
      </trkpt>
      <trkpt lat="44.81678" lon="4.41146">
        <ele>709</ele>
        <time>2014-11-13T15:17:46Z</time>
      </trkpt>
      <trkpt lat="44.81676" lon="4.41154">
        <ele>713</ele>
        <time>2014-11-13T15:17:51Z</time>
      </trkpt>
      <trkpt lat="44.81673" lon="4.41162">
        <ele>713</ele>
        <time>2014-11-13T15:17:56Z</time>
      </trkpt>
      <trkpt lat="44.81671" lon="4.41169">
        <ele>713</ele>
        <time>2014-11-13T15:18:01Z</time>
      </trkpt>
      <trkpt lat="44.81668" lon="4.41174">
        <ele>713</ele>
        <time>2014-11-13T15:18:06Z</time>
      </trkpt>
      <trkpt lat="44.81664" lon="4.41179">
        <ele>713</ele>
        <time>2014-11-13T15:18:11Z</time>
      </trkpt>
      <trkpt lat="44.81659" lon="4.41184">
        <ele>716</ele>
        <time>2014-11-13T15:18:16Z</time>
      </trkpt>
      <trkpt lat="44.81656" lon="4.41188">
        <ele>716</ele>
        <time>2014-11-13T15:18:21Z</time>
      </trkpt>
      <trkpt lat="44.81654" lon="4.41195">
        <ele>716</ele>
        <time>2014-11-13T15:18:26Z</time>
      </trkpt>
      <trkpt lat="44.81655" lon="4.41201">
        <ele>716</ele>
        <time>2014-11-13T15:18:31Z</time>
      </trkpt>
      <trkpt lat="44.81655" lon="4.41206">
        <ele>716</ele>
        <time>2014-11-13T15:18:36Z</time>
      </trkpt>
      <trkpt lat="44.81655" lon="4.4121">
        <ele>719</ele>
        <time>2014-11-13T15:18:41Z</time>
      </trkpt>
      <trkpt lat="44.81653" lon="4.41215">
        <ele>719</ele>
        <time>2014-11-13T15:18:46Z</time>
      </trkpt>
      <trkpt lat="44.81652" lon="4.41222">
        <ele>705</ele>
        <time>2014-11-13T15:18:51Z</time>
      </trkpt>
      <trkpt lat="44.81649" lon="4.41227">
        <ele>705</ele>
        <time>2014-11-13T15:18:56Z</time>
      </trkpt>
      <trkpt lat="44.81649" lon="4.41231">
        <ele>705</ele>
        <time>2014-11-13T15:19:01Z</time>
      </trkpt>
      <trkpt lat="44.81649" lon="4.41237">
        <ele>711</ele>
        <time>2014-11-13T15:19:06Z</time>
      </trkpt>
      <trkpt lat="44.81648" lon="4.41243">
        <ele>711</ele>
        <time>2014-11-13T15:19:11Z</time>
      </trkpt>
      <trkpt lat="44.81648" lon="4.4125">
        <ele>711</ele>
        <time>2014-11-13T15:19:16Z</time>
      </trkpt>
      <trkpt lat="44.81647" lon="4.41256">
        <ele>711</ele>
        <time>2014-11-13T15:19:21Z</time>
      </trkpt>
      <trkpt lat="44.81646" lon="4.41262">
        <ele>711</ele>
        <time>2014-11-13T15:19:26Z</time>
      </trkpt>
      <trkpt lat="44.81645" lon="4.41267">
        <ele>712</ele>
        <time>2014-11-13T15:19:31Z</time>
      </trkpt>
      <trkpt lat="44.81646" lon="4.41268">
        <ele>712</ele>
        <time>2014-11-13T15:19:36Z</time>
      </trkpt>
      <trkpt lat="44.81645" lon="4.41271">
        <ele>712</ele>
        <time>2014-11-13T15:19:41Z</time>
      </trkpt>
      <trkpt lat="44.81645" lon="4.41274">
        <ele>712</ele>
        <time>2014-11-13T15:19:46Z</time>
      </trkpt>
      <trkpt lat="44.81645" lon="4.41285">
        <ele>712</ele>
        <time>2014-11-13T15:19:51Z</time>
      </trkpt>
      <trkpt lat="44.81646" lon="4.41289">
        <ele>712</ele>
        <time>2014-11-13T15:19:56Z</time>
      </trkpt>
      <trkpt lat="44.81646" lon="4.41295">
        <ele>712</ele>
        <time>2014-11-13T15:20:01Z</time>
      </trkpt>
      <trkpt lat="44.81645" lon="4.41303">
        <ele>712</ele>
        <time>2014-11-13T15:20:06Z</time>
      </trkpt>
      <trkpt lat="44.81646" lon="4.41311">
        <ele>712</ele>
        <time>2014-11-13T15:20:11Z</time>
      </trkpt>
      <trkpt lat="44.81647" lon="4.41318">
        <ele>712</ele>
        <time>2014-11-13T15:20:16Z</time>
      </trkpt>
      <trkpt lat="44.81648" lon="4.41324">
        <ele>710</ele>
        <time>2014-11-13T15:20:21Z</time>
      </trkpt>
      <trkpt lat="44.81649" lon="4.41327">
        <ele>710</ele>
        <time>2014-11-13T15:20:26Z</time>
      </trkpt>
      <trkpt lat="44.81648" lon="4.41331">
        <ele>710</ele>
        <time>2014-11-13T15:20:31Z</time>
      </trkpt>
      <trkpt lat="44.81648" lon="4.4134">
        <ele>710</ele>
        <time>2014-11-13T15:20:36Z</time>
      </trkpt>
      <trkpt lat="44.81648" lon="4.41342">
        <ele>710</ele>
        <time>2014-11-13T15:20:41Z</time>
      </trkpt>
      <trkpt lat="44.81649" lon="4.41341">
        <ele>710</ele>
        <time>2014-11-13T15:20:46Z</time>
      </trkpt>
      <trkpt lat="44.8165" lon="4.4134">
        <ele>710</ele>
        <time>2014-11-13T15:20:51Z</time>
      </trkpt>
      <trkpt lat="44.81652" lon="4.41343">
        <ele>710</ele>
        <time>2014-11-13T15:20:56Z</time>
      </trkpt>
      <trkpt lat="44.81653" lon="4.41349">
        <ele>709</ele>
        <time>2014-11-13T15:21:01Z</time>
      </trkpt>
      <trkpt lat="44.81657" lon="4.41358">
        <ele>717</ele>
        <time>2014-11-13T15:21:06Z</time>
      </trkpt>
      <trkpt lat="44.8166" lon="4.41362">
        <ele>717</ele>
        <time>2014-11-13T15:21:11Z</time>
      </trkpt>
      <trkpt lat="44.81664" lon="4.41368">
        <ele>717</ele>
        <time>2014-11-13T15:21:16Z</time>
      </trkpt>
      <trkpt lat="44.81667" lon="4.4137">
        <ele>717</ele>
        <time>2014-11-13T15:21:21Z</time>
      </trkpt>
      <trkpt lat="44.8167" lon="4.41373">
        <ele>717</ele>
        <time>2014-11-13T15:21:26Z</time>
      </trkpt>
      <trkpt lat="44.81675" lon="4.41377">
        <ele>711</ele>
        <time>2014-11-13T15:21:31Z</time>
      </trkpt>
      <trkpt lat="44.81677" lon="4.4138">
        <ele>711</ele>
        <time>2014-11-13T15:21:36Z</time>
      </trkpt>
      <trkpt lat="44.8168" lon="4.41382">
        <ele>711</ele>
        <time>2014-11-13T15:21:41Z</time>
      </trkpt>
      <trkpt lat="44.81684" lon="4.41384">
        <ele>718</ele>
        <time>2014-11-13T15:21:46Z</time>
      </trkpt>
      <trkpt lat="44.81688" lon="4.41386">
        <ele>718</ele>
        <time>2014-11-13T15:21:51Z</time>
      </trkpt>
      <trkpt lat="44.81693" lon="4.41389">
        <ele>718</ele>
        <time>2014-11-13T15:21:56Z</time>
      </trkpt>
      <trkpt lat="44.81698" lon="4.41391">
        <ele>718</ele>
        <time>2014-11-13T15:22:01Z</time>
      </trkpt>
      <trkpt lat="44.81701" lon="4.41392">
        <ele>718</ele>
        <time>2014-11-13T15:22:06Z</time>
      </trkpt>
      <trkpt lat="44.81707" lon="4.41393">
        <ele>718</ele>
        <time>2014-11-13T15:22:11Z</time>
      </trkpt>
      <trkpt lat="44.81712" lon="4.41397">
        <ele>723</ele>
        <time>2014-11-13T15:22:16Z</time>
      </trkpt>
      <trkpt lat="44.81718" lon="4.41402">
        <ele>723</ele>
        <time>2014-11-13T15:22:21Z</time>
      </trkpt>
      <trkpt lat="44.81724" lon="4.41406">
        <ele>714</ele>
        <time>2014-11-13T15:22:26Z</time>
      </trkpt>
      <trkpt lat="44.8173" lon="4.41411">
        <ele>714</ele>
        <time>2014-11-13T15:22:31Z</time>
      </trkpt>
      <trkpt lat="44.81735" lon="4.41416">
        <ele>714</ele>
        <time>2014-11-13T15:22:36Z</time>
      </trkpt>
      <trkpt lat="44.81739" lon="4.41419">
        <ele>719</ele>
        <time>2014-11-13T15:22:41Z</time>
      </trkpt>
      <trkpt lat="44.81742" lon="4.41425">
        <ele>719</ele>
        <time>2014-11-13T15:22:46Z</time>
      </trkpt>
      <trkpt lat="44.81745" lon="4.41431">
        <ele>706</ele>
        <time>2014-11-13T15:22:51Z</time>
      </trkpt>
      <trkpt lat="44.81749" lon="4.41435">
        <ele>706</ele>
        <time>2014-11-13T15:22:56Z</time>
      </trkpt>
      <trkpt lat="44.81752" lon="4.41437">
        <ele>706</ele>
        <time>2014-11-13T15:23:01Z</time>
      </trkpt>
      <trkpt lat="44.81755" lon="4.41437">
        <ele>706</ele>
        <time>2014-11-13T15:23:06Z</time>
      </trkpt>
      <trkpt lat="44.81756" lon="4.41435">
        <ele>706</ele>
        <time>2014-11-13T15:23:11Z</time>
      </trkpt>
      <trkpt lat="44.81758" lon="4.41434">
        <ele>706</ele>
        <time>2014-11-13T15:23:16Z</time>
      </trkpt>
      <trkpt lat="44.8176" lon="4.41435">
        <ele>706</ele>
        <time>2014-11-13T15:23:21Z</time>
      </trkpt>
      <trkpt lat="44.81763" lon="4.41436">
        <ele>706</ele>
        <time>2014-11-13T15:23:26Z</time>
      </trkpt>
      <trkpt lat="44.81765" lon="4.41437">
        <ele>710</ele>
        <time>2014-11-13T15:23:31Z</time>
      </trkpt>
      <trkpt lat="44.81765" lon="4.41439">
        <ele>710</ele>
        <time>2014-11-13T15:23:41Z</time>
      </trkpt>
      <trkpt lat="44.81767" lon="4.4144">
        <ele>710</ele>
        <time>2014-11-13T15:23:46Z</time>
      </trkpt>
      <trkpt lat="44.81766" lon="4.4144">
        <ele>710</ele>
        <time>2014-11-13T15:23:51Z</time>
      </trkpt>
      <trkpt lat="44.81765" lon="4.41443">
        <ele>710</ele>
        <time>2014-11-13T15:23:56Z</time>
      </trkpt>
      <trkpt lat="44.81766" lon="4.41446">
        <ele>710</ele>
        <time>2014-11-13T15:24:01Z</time>
      </trkpt>
      <trkpt lat="44.81768" lon="4.41447">
        <ele>710</ele>
        <time>2014-11-13T15:24:06Z</time>
      </trkpt>
      <trkpt lat="44.81773" lon="4.41449">
        <ele>710</ele>
        <time>2014-11-13T15:24:11Z</time>
      </trkpt>
      <trkpt lat="44.81777" lon="4.4145">
        <ele>710</ele>
        <time>2014-11-13T15:24:16Z</time>
      </trkpt>
      <trkpt lat="44.8178" lon="4.41452">
        <ele>710</ele>
        <time>2014-11-13T15:24:21Z</time>
      </trkpt>
      <trkpt lat="44.81784" lon="4.41455">
        <ele>710</ele>
        <time>2014-11-13T15:24:26Z</time>
      </trkpt>
      <trkpt lat="44.81788" lon="4.41458">
        <ele>710</ele>
        <time>2014-11-13T15:24:31Z</time>
      </trkpt>
      <trkpt lat="44.81794" lon="4.41462">
        <ele>708</ele>
        <time>2014-11-13T15:24:36Z</time>
      </trkpt>
      <trkpt lat="44.818" lon="4.41467">
        <ele>708</ele>
        <time>2014-11-13T15:24:41Z</time>
      </trkpt>
      <trkpt lat="44.81807" lon="4.41468">
        <ele>708</ele>
        <time>2014-11-13T15:24:46Z</time>
      </trkpt>
      <trkpt lat="44.81814" lon="4.41467">
        <ele>708</ele>
        <time>2014-11-13T15:24:51Z</time>
      </trkpt>
      <trkpt lat="44.81819" lon="4.41465">
        <ele>708</ele>
        <time>2014-11-13T15:24:56Z</time>
      </trkpt>
      <trkpt lat="44.81822" lon="4.41463">
        <ele>716</ele>
        <time>2014-11-13T15:25:01Z</time>
      </trkpt>
      <trkpt lat="44.81827" lon="4.41459">
        <ele>716</ele>
        <time>2014-11-13T15:25:06Z</time>
      </trkpt>
      <trkpt lat="44.81832" lon="4.41455">
        <ele>726</ele>
        <time>2014-11-13T15:25:11Z</time>
      </trkpt>
      <trkpt lat="44.81837" lon="4.41449">
        <ele>726</ele>
        <time>2014-11-13T15:25:16Z</time>
      </trkpt>
      <trkpt lat="44.81847" lon="4.41441">
        <ele>726</ele>
        <time>2014-11-13T15:25:21Z</time>
      </trkpt>
      <trkpt lat="44.81851" lon="4.41437">
        <ele>723</ele>
        <time>2014-11-13T15:25:26Z</time>
      </trkpt>
      <trkpt lat="44.81855" lon="4.41431">
        <ele>723</ele>
        <time>2014-11-13T15:25:31Z</time>
      </trkpt>
      <trkpt lat="44.81858" lon="4.41425">
        <ele>729</ele>
        <time>2014-11-13T15:25:36Z</time>
      </trkpt>
      <trkpt lat="44.8186" lon="4.41423">
        <ele>729</ele>
        <time>2014-11-13T15:25:41Z</time>
      </trkpt>
      <trkpt lat="44.81861" lon="4.41425">
        <ele>729</ele>
        <time>2014-11-13T15:25:46Z</time>
      </trkpt>
      <trkpt lat="44.81863" lon="4.41429">
        <ele>729</ele>
        <time>2014-11-13T15:25:51Z</time>
      </trkpt>
      <trkpt lat="44.81864" lon="4.41432">
        <ele>723</ele>
        <time>2014-11-13T15:25:56Z</time>
      </trkpt>
      <trkpt lat="44.81865" lon="4.41432">
        <ele>723</ele>
        <time>2014-11-13T15:26:06Z</time>
      </trkpt>
      <trkpt lat="44.81865" lon="4.41436">
        <ele>723</ele>
        <time>2014-11-13T15:26:11Z</time>
      </trkpt>
      <trkpt lat="44.81868" lon="4.41443">
        <ele>723</ele>
        <time>2014-11-13T15:27:41Z</time>
      </trkpt>
      <trkpt lat="44.81875" lon="4.41453">
        <ele>723</ele>
        <time>2014-11-13T15:27:46Z</time>
      </trkpt>
      <trkpt lat="44.81878" lon="4.41459">
        <ele>719</ele>
        <time>2014-11-13T15:27:51Z</time>
      </trkpt>
      <trkpt lat="44.8188" lon="4.41465">
        <ele>719</ele>
        <time>2014-11-13T15:27:56Z</time>
      </trkpt>
      <trkpt lat="44.81881" lon="4.41471">
        <ele>719</ele>
        <time>2014-11-13T15:28:01Z</time>
      </trkpt>
      <trkpt lat="44.81883" lon="4.41479">
        <ele>719</ele>
        <time>2014-11-13T15:28:06Z</time>
      </trkpt>
      <trkpt lat="44.81884" lon="4.41486">
        <ele>719</ele>
        <time>2014-11-13T15:28:11Z</time>
      </trkpt>
      <trkpt lat="44.81883" lon="4.41492">
        <ele>717</ele>
        <time>2014-11-13T15:28:16Z</time>
      </trkpt>
      <trkpt lat="44.81884" lon="4.41496">
        <ele>717</ele>
        <time>2014-11-13T15:28:21Z</time>
      </trkpt>
      <trkpt lat="44.81887" lon="4.41502">
        <ele>717</ele>
        <time>2014-11-13T15:28:26Z</time>
      </trkpt>
      <trkpt lat="44.81888" lon="4.41507">
        <ele>717</ele>
        <time>2014-11-13T15:28:31Z</time>
      </trkpt>
      <trkpt lat="44.81891" lon="4.41516">
        <ele>715</ele>
        <time>2014-11-13T15:28:36Z</time>
      </trkpt>
      <trkpt lat="44.81894" lon="4.41528">
        <ele>715</ele>
        <time>2014-11-13T15:28:41Z</time>
      </trkpt>
      <trkpt lat="44.81897" lon="4.41537">
        <ele>715</ele>
        <time>2014-11-13T15:28:46Z</time>
      </trkpt>
      <trkpt lat="44.81899" lon="4.41544">
        <ele>715</ele>
        <time>2014-11-13T15:28:51Z</time>
      </trkpt>
      <trkpt lat="44.819" lon="4.4155">
        <ele>715</ele>
        <time>2014-11-13T15:28:56Z</time>
      </trkpt>
      <trkpt lat="44.81902" lon="4.41555">
        <ele>715</ele>
        <time>2014-11-13T15:29:01Z</time>
      </trkpt>
      <trkpt lat="44.81902" lon="4.41559">
        <ele>715</ele>
        <time>2014-11-13T15:29:06Z</time>
      </trkpt>
      <trkpt lat="44.81902" lon="4.41561">
        <ele>715</ele>
        <time>2014-11-13T15:29:11Z</time>
      </trkpt>
      <trkpt lat="44.81903" lon="4.41564">
        <ele>730</ele>
        <time>2014-11-13T15:29:16Z</time>
      </trkpt>
      <trkpt lat="44.81902" lon="4.41567">
        <ele>715</ele>
        <time>2014-11-13T15:29:21Z</time>
      </trkpt>
      <trkpt lat="44.81897" lon="4.41578">
        <ele>716</ele>
        <time>2014-11-13T15:29:26Z</time>
      </trkpt>
      <trkpt lat="44.81898" lon="4.4158">
        <ele>716</ele>
        <time>2014-11-13T15:29:31Z</time>
      </trkpt>
      <trkpt lat="44.81897" lon="4.41583">
        <ele>716</ele>
        <time>2014-11-13T15:29:36Z</time>
      </trkpt>
      <trkpt lat="44.81895" lon="4.41582">
        <ele>716</ele>
        <time>2014-11-13T15:29:41Z</time>
      </trkpt>
      <trkpt lat="44.81894" lon="4.41584">
        <ele>716</ele>
        <time>2014-11-13T15:29:56Z</time>
      </trkpt>
      <trkpt lat="44.81895" lon="4.4159">
        <ele>716</ele>
        <time>2014-11-13T15:30:01Z</time>
      </trkpt>
      <trkpt lat="44.81897" lon="4.41592">
        <ele>716</ele>
        <time>2014-11-13T15:30:06Z</time>
      </trkpt>
      <trkpt lat="44.819" lon="4.416">
        <ele>717</ele>
        <time>2014-11-13T15:30:11Z</time>
      </trkpt>
      <trkpt lat="44.81904" lon="4.41607">
        <ele>730</ele>
        <time>2014-11-13T15:30:16Z</time>
      </trkpt>
      <trkpt lat="44.81904" lon="4.41611">
        <ele>730</ele>
        <time>2014-11-13T15:30:21Z</time>
      </trkpt>
      <trkpt lat="44.81904" lon="4.41619">
        <ele>730</ele>
        <time>2014-11-13T15:30:26Z</time>
      </trkpt>
      <trkpt lat="44.81902" lon="4.41629">
        <ele>715</ele>
        <time>2014-11-13T15:30:31Z</time>
      </trkpt>
      <trkpt lat="44.81904" lon="4.41641">
        <ele>726</ele>
        <time>2014-11-13T15:30:36Z</time>
      </trkpt>
      <trkpt lat="44.81906" lon="4.41651">
        <ele>726</ele>
        <time>2014-11-13T15:30:41Z</time>
      </trkpt>
      <trkpt lat="44.81906" lon="4.41657">
        <ele>725</ele>
        <time>2014-11-13T15:30:46Z</time>
      </trkpt>
      <trkpt lat="44.81905" lon="4.41664">
        <ele>725</ele>
        <time>2014-11-13T15:30:51Z</time>
      </trkpt>
      <trkpt lat="44.81903" lon="4.4167">
        <ele>725</ele>
        <time>2014-11-13T15:30:56Z</time>
      </trkpt>
      <trkpt lat="44.81902" lon="4.41677">
        <ele>713</ele>
        <time>2014-11-13T15:31:01Z</time>
      </trkpt>
      <trkpt lat="44.81901" lon="4.41685">
        <ele>714</ele>
        <time>2014-11-13T15:31:06Z</time>
      </trkpt>
      <trkpt lat="44.819" lon="4.41693">
        <ele>714</ele>
        <time>2014-11-13T15:31:11Z</time>
      </trkpt>
      <trkpt lat="44.819" lon="4.41699">
        <ele>714</ele>
        <time>2014-11-13T15:31:16Z</time>
      </trkpt>
      <trkpt lat="44.81898" lon="4.41706">
        <ele>714</ele>
        <time>2014-11-13T15:31:21Z</time>
      </trkpt>
      <trkpt lat="44.81898" lon="4.41712">
        <ele>716</ele>
        <time>2014-11-13T15:31:26Z</time>
      </trkpt>
      <trkpt lat="44.81898" lon="4.41719">
        <ele>716</ele>
        <time>2014-11-13T15:31:31Z</time>
      </trkpt>
      <trkpt lat="44.81898" lon="4.41727">
        <ele>716</ele>
        <time>2014-11-13T15:31:36Z</time>
      </trkpt>
      <trkpt lat="44.81899" lon="4.41734">
        <ele>716</ele>
        <time>2014-11-13T15:31:41Z</time>
      </trkpt>
      <trkpt lat="44.81894" lon="4.41748">
        <ele>720</ele>
        <time>2014-11-13T15:31:46Z</time>
      </trkpt>
      <trkpt lat="44.81893" lon="4.41757">
        <ele>720</ele>
        <time>2014-11-13T15:31:51Z</time>
      </trkpt>
      <trkpt lat="44.81891" lon="4.41764">
        <ele>726</ele>
        <time>2014-11-13T15:31:56Z</time>
      </trkpt>
      <trkpt lat="44.81889" lon="4.4177">
        <ele>726</ele>
        <time>2014-11-13T15:32:01Z</time>
      </trkpt>
      <trkpt lat="44.81885" lon="4.41776">
        <ele>726</ele>
        <time>2014-11-13T15:32:06Z</time>
      </trkpt>
      <trkpt lat="44.81884" lon="4.41783">
        <ele>726</ele>
        <time>2014-11-13T15:32:11Z</time>
      </trkpt>
      <trkpt lat="44.8188" lon="4.41791">
        <ele>726</ele>
        <time>2014-11-13T15:32:16Z</time>
      </trkpt>
      <trkpt lat="44.81879" lon="4.41799">
        <ele>731</ele>
        <time>2014-11-13T15:32:21Z</time>
      </trkpt>
      <trkpt lat="44.81877" lon="4.41807">
        <ele>731</ele>
        <time>2014-11-13T15:32:26Z</time>
      </trkpt>
      <trkpt lat="44.81874" lon="4.41813">
        <ele>719</ele>
        <time>2014-11-13T15:32:31Z</time>
      </trkpt>
      <trkpt lat="44.81872" lon="4.41821">
        <ele>724</ele>
        <time>2014-11-13T15:32:36Z</time>
      </trkpt>
      <trkpt lat="44.81871" lon="4.41828">
        <ele>724</ele>
        <time>2014-11-13T15:32:41Z</time>
      </trkpt>
      <trkpt lat="44.8187" lon="4.41836">
        <ele>724</ele>
        <time>2014-11-13T15:32:46Z</time>
      </trkpt>
      <trkpt lat="44.81869" lon="4.41845">
        <ele>724</ele>
        <time>2014-11-13T15:32:51Z</time>
      </trkpt>
      <trkpt lat="44.81867" lon="4.41853">
        <ele>725</ele>
        <time>2014-11-13T15:32:56Z</time>
      </trkpt>
      <trkpt lat="44.81865" lon="4.41861">
        <ele>725</ele>
        <time>2014-11-13T15:33:01Z</time>
      </trkpt>
      <trkpt lat="44.81866" lon="4.41876">
        <ele>721</ele>
        <time>2014-11-13T15:33:06Z</time>
      </trkpt>
      <trkpt lat="44.81863" lon="4.41883">
        <ele>721</ele>
        <time>2014-11-13T15:33:11Z</time>
      </trkpt>
      <trkpt lat="44.8186" lon="4.41885">
        <ele>721</ele>
        <time>2014-11-13T15:33:16Z</time>
      </trkpt>
      <trkpt lat="44.81859" lon="4.41883">
        <ele>721</ele>
        <time>2014-11-13T15:33:21Z</time>
      </trkpt>
      <trkpt lat="44.8186" lon="4.41886">
        <ele>721</ele>
        <time>2014-11-13T15:33:31Z</time>
      </trkpt>
      <trkpt lat="44.81865" lon="4.41892">
        <ele>721</ele>
        <time>2014-11-13T15:33:36Z</time>
      </trkpt>
      <trkpt lat="44.81866" lon="4.41898">
        <ele>721</ele>
        <time>2014-11-13T15:33:41Z</time>
      </trkpt>
      <trkpt lat="44.81868" lon="4.41905">
        <ele>717</ele>
        <time>2014-11-13T15:33:46Z</time>
      </trkpt>
      <trkpt lat="44.81868" lon="4.41917">
        <ele>717</ele>
        <time>2014-11-13T15:33:51Z</time>
      </trkpt>
      <trkpt lat="44.8187" lon="4.41928">
        <ele>717</ele>
        <time>2014-11-13T15:33:56Z</time>
      </trkpt>
      <trkpt lat="44.81872" lon="4.41933">
        <ele>712</ele>
        <time>2014-11-13T15:34:01Z</time>
      </trkpt>
      <trkpt lat="44.81874" lon="4.41936">
        <ele>712</ele>
        <time>2014-11-13T15:34:06Z</time>
      </trkpt>
      <trkpt lat="44.81878" lon="4.41943">
        <ele>731</ele>
        <time>2014-11-13T15:34:11Z</time>
      </trkpt>
      <trkpt lat="44.81882" lon="4.41953">
        <ele>731</ele>
        <time>2014-11-13T15:34:16Z</time>
      </trkpt>
      <trkpt lat="44.81885" lon="4.4196">
        <ele>724</ele>
        <time>2014-11-13T15:34:21Z</time>
      </trkpt>
      <trkpt lat="44.81889" lon="4.41967">
        <ele>724</ele>
        <time>2014-11-13T15:34:26Z</time>
      </trkpt>
      <trkpt lat="44.81893" lon="4.41974">
        <ele>724</ele>
        <time>2014-11-13T15:34:31Z</time>
      </trkpt>
      <trkpt lat="44.81896" lon="4.41986">
        <ele>724</ele>
        <time>2014-11-13T15:34:36Z</time>
      </trkpt>
      <trkpt lat="44.81897" lon="4.41994">
        <ele>719</ele>
        <time>2014-11-13T15:34:41Z</time>
      </trkpt>
      <trkpt lat="44.81899" lon="4.42005">
        <ele>719</ele>
        <time>2014-11-13T15:34:46Z</time>
      </trkpt>
      <trkpt lat="44.81902" lon="4.42017">
        <ele>715</ele>
        <time>2014-11-13T15:34:51Z</time>
      </trkpt>
      <trkpt lat="44.81904" lon="4.42023">
        <ele>729</ele>
        <time>2014-11-13T15:34:56Z</time>
      </trkpt>
      <trkpt lat="44.81906" lon="4.42034">
        <ele>729</ele>
        <time>2014-11-13T15:35:01Z</time>
      </trkpt>
      <trkpt lat="44.81905" lon="4.42039">
        <ele>729</ele>
        <time>2014-11-13T15:35:06Z</time>
      </trkpt>
      <trkpt lat="44.81908" lon="4.42046">
        <ele>727</ele>
        <time>2014-11-13T15:35:11Z</time>
      </trkpt>
      <trkpt lat="44.81912" lon="4.42056">
        <ele>727</ele>
        <time>2014-11-13T15:35:16Z</time>
      </trkpt>
      <trkpt lat="44.81915" lon="4.42062">
        <ele>727</ele>
        <time>2014-11-13T15:35:21Z</time>
      </trkpt>
      <trkpt lat="44.81917" lon="4.42066">
        <ele>727</ele>
        <time>2014-11-13T15:35:26Z</time>
      </trkpt>
      <trkpt lat="44.81919" lon="4.4207">
        <ele>722</ele>
        <time>2014-11-13T15:35:31Z</time>
      </trkpt>
      <trkpt lat="44.81919" lon="4.42073">
        <ele>722</ele>
        <time>2014-11-13T15:35:36Z</time>
      </trkpt>
      <trkpt lat="44.81922" lon="4.42079">
        <ele>722</ele>
        <time>2014-11-13T15:35:41Z</time>
      </trkpt>
      <trkpt lat="44.81923" lon="4.42092">
        <ele>722</ele>
        <time>2014-11-13T15:35:46Z</time>
      </trkpt>
      <trkpt lat="44.81922" lon="4.42101">
        <ele>717</ele>
        <time>2014-11-13T15:35:51Z</time>
      </trkpt>
      <trkpt lat="44.81924" lon="4.42108">
        <ele>717</ele>
        <time>2014-11-13T15:35:56Z</time>
      </trkpt>
      <trkpt lat="44.81926" lon="4.42116">
        <ele>717</ele>
        <time>2014-11-13T15:36:01Z</time>
      </trkpt>
      <trkpt lat="44.81928" lon="4.4212">
        <ele>717</ele>
        <time>2014-11-13T15:36:06Z</time>
      </trkpt>
      <trkpt lat="44.81931" lon="4.42126">
        <ele>733</ele>
        <time>2014-11-13T15:36:11Z</time>
      </trkpt>
      <trkpt lat="44.81934" lon="4.42134">
        <ele>733</ele>
        <time>2014-11-13T15:36:16Z</time>
      </trkpt>
      <trkpt lat="44.81936" lon="4.42142">
        <ele>733</ele>
        <time>2014-11-13T15:36:21Z</time>
      </trkpt>
      <trkpt lat="44.81935" lon="4.42157">
        <ele>728</ele>
        <time>2014-11-13T15:36:26Z</time>
      </trkpt>
      <trkpt lat="44.81935" lon="4.42167">
        <ele>728</ele>
        <time>2014-11-13T15:36:31Z</time>
      </trkpt>
      <trkpt lat="44.81934" lon="4.42179">
        <ele>728</ele>
        <time>2014-11-13T15:36:36Z</time>
      </trkpt>
      <trkpt lat="44.81933" lon="4.42186">
        <ele>724</ele>
        <time>2014-11-13T15:36:41Z</time>
      </trkpt>
      <trkpt lat="44.81932" lon="4.42194">
        <ele>724</ele>
        <time>2014-11-13T15:36:46Z</time>
      </trkpt>
      <trkpt lat="44.81931" lon="4.42203">
        <ele>724</ele>
        <time>2014-11-13T15:36:51Z</time>
      </trkpt>
      <trkpt lat="44.81931" lon="4.42213">
        <ele>720</ele>
        <time>2014-11-13T15:36:56Z</time>
      </trkpt>
      <trkpt lat="44.81931" lon="4.42219">
        <ele>720</ele>
        <time>2014-11-13T15:37:01Z</time>
      </trkpt>
      <trkpt lat="44.81932" lon="4.4223">
        <ele>720</ele>
        <time>2014-11-13T15:37:06Z</time>
      </trkpt>
      <trkpt lat="44.81934" lon="4.4224">
        <ele>716</ele>
        <time>2014-11-13T15:37:11Z</time>
      </trkpt>
      <trkpt lat="44.81934" lon="4.42247">
        <ele>716</ele>
        <time>2014-11-13T15:37:16Z</time>
      </trkpt>
      <trkpt lat="44.81936" lon="4.42257">
        <ele>716</ele>
        <time>2014-11-13T15:37:21Z</time>
      </trkpt>
      <trkpt lat="44.81937" lon="4.42266">
        <ele>716</ele>
        <time>2014-11-13T15:37:26Z</time>
      </trkpt>
      <trkpt lat="44.81935" lon="4.42274">
        <ele>716</ele>
        <time>2014-11-13T15:37:31Z</time>
      </trkpt>
      <trkpt lat="44.81933" lon="4.42282">
        <ele>716</ele>
        <time>2014-11-13T15:37:36Z</time>
      </trkpt>
      <trkpt lat="44.81937" lon="4.42294">
        <ele>713</ele>
        <time>2014-11-13T15:37:41Z</time>
      </trkpt>
      <trkpt lat="44.81938" lon="4.42301">
        <ele>713</ele>
        <time>2014-11-13T15:37:46Z</time>
      </trkpt>
      <trkpt lat="44.81939" lon="4.42307">
        <ele>713</ele>
        <time>2014-11-13T15:37:51Z</time>
      </trkpt>
      <trkpt lat="44.81939" lon="4.42312">
        <ele>713</ele>
        <time>2014-11-13T15:37:56Z</time>
      </trkpt>
      <trkpt lat="44.81941" lon="4.42319">
        <ele>713</ele>
        <time>2014-11-13T15:38:01Z</time>
      </trkpt>
      <trkpt lat="44.81943" lon="4.42325">
        <ele>706</ele>
        <time>2014-11-13T15:38:06Z</time>
      </trkpt>
      <trkpt lat="44.81948" lon="4.4233">
        <ele>706</ele>
        <time>2014-11-13T15:38:11Z</time>
      </trkpt>
      <trkpt lat="44.81952" lon="4.42334">
        <ele>706</ele>
        <time>2014-11-13T15:38:16Z</time>
      </trkpt>
      <trkpt lat="44.81957" lon="4.42335">
        <ele>706</ele>
        <time>2014-11-13T15:38:21Z</time>
      </trkpt>
      <trkpt lat="44.81962" lon="4.42335">
        <ele>711</ele>
        <time>2014-11-13T15:38:26Z</time>
      </trkpt>
      <trkpt lat="44.81965" lon="4.42336">
        <ele>711</ele>
        <time>2014-11-13T15:38:31Z</time>
      </trkpt>
      <trkpt lat="44.81968" lon="4.42337">
        <ele>711</ele>
        <time>2014-11-13T15:38:36Z</time>
      </trkpt>
      <trkpt lat="44.81971" lon="4.42338">
        <ele>711</ele>
        <time>2014-11-13T15:38:41Z</time>
      </trkpt>
      <trkpt lat="44.81975" lon="4.42343">
        <ele>711</ele>
        <time>2014-11-13T15:38:46Z</time>
      </trkpt>
      <trkpt lat="44.81981" lon="4.42349">
        <ele>699</ele>
        <time>2014-11-13T15:38:51Z</time>
      </trkpt>
      <trkpt lat="44.81984" lon="4.42352">
        <ele>699</ele>
        <time>2014-11-13T15:38:56Z</time>
      </trkpt>
      <trkpt lat="44.81989" lon="4.42355">
        <ele>701</ele>
        <time>2014-11-13T15:39:01Z</time>
      </trkpt>
      <trkpt lat="44.81992" lon="4.42356">
        <ele>701</ele>
        <time>2014-11-13T15:39:06Z</time>
      </trkpt>
      <trkpt lat="44.81996" lon="4.42358">
        <ele>701</ele>
        <time>2014-11-13T15:39:11Z</time>
      </trkpt>
      <trkpt lat="44.82" lon="4.42358">
        <ele>701</ele>
        <time>2014-11-13T15:39:16Z</time>
      </trkpt>
      <trkpt lat="44.82005" lon="4.42357">
        <ele>701</ele>
        <time>2014-11-13T15:39:21Z</time>
      </trkpt>
      <trkpt lat="44.82011" lon="4.42352">
        <ele>701</ele>
        <time>2014-11-13T15:39:26Z</time>
      </trkpt>
      <trkpt lat="44.82016" lon="4.42349">
        <ele>702</ele>
        <time>2014-11-13T15:39:31Z</time>
      </trkpt>
      <trkpt lat="44.82024" lon="4.42344">
        <ele>712</ele>
        <time>2014-11-13T15:39:36Z</time>
      </trkpt>
      <trkpt lat="44.82026" lon="4.4234">
        <ele>712</ele>
        <time>2014-11-13T15:39:41Z</time>
      </trkpt>
      <trkpt lat="44.82027" lon="4.42337">
        <ele>712</ele>
        <time>2014-11-13T15:39:46Z</time>
      </trkpt>
      <trkpt lat="44.82028" lon="4.4233">
        <ele>712</ele>
        <time>2014-11-13T15:39:51Z</time>
      </trkpt>
      <trkpt lat="44.82031" lon="4.42325">
        <ele>712</ele>
        <time>2014-11-13T15:39:56Z</time>
      </trkpt>
      <trkpt lat="44.82032" lon="4.42322">
        <ele>712</ele>
        <time>2014-11-13T15:40:01Z</time>
      </trkpt>
      <trkpt lat="44.82034" lon="4.42322">
        <ele>712</ele>
        <time>2014-11-13T15:40:06Z</time>
      </trkpt>
      <trkpt lat="44.82036" lon="4.42324">
        <ele>712</ele>
        <time>2014-11-13T15:40:11Z</time>
      </trkpt>
      <trkpt lat="44.82041" lon="4.42323">
        <ele>712</ele>
        <time>2014-11-13T15:40:26Z</time>
      </trkpt>
      <trkpt lat="44.82046" lon="4.42322">
        <ele>709</ele>
        <time>2014-11-13T15:40:31Z</time>
      </trkpt>
      <trkpt lat="44.82047" lon="4.42322">
        <ele>709</ele>
        <time>2014-11-13T15:40:36Z</time>
      </trkpt>
      <trkpt lat="44.82046" lon="4.42327">
        <ele>709</ele>
        <time>2014-11-13T15:41:01Z</time>
      </trkpt>
      <trkpt lat="44.82049" lon="4.42338">
        <ele>709</ele>
        <time>2014-11-13T15:41:06Z</time>
      </trkpt>
      <trkpt lat="44.82051" lon="4.42341">
        <ele>709</ele>
        <time>2014-11-13T15:41:11Z</time>
      </trkpt>
      <trkpt lat="44.82052" lon="4.42346">
        <ele>709</ele>
        <time>2014-11-13T15:41:16Z</time>
      </trkpt>
      <trkpt lat="44.8206" lon="4.42354">
        <ele>701</ele>
        <time>2014-11-13T15:41:21Z</time>
      </trkpt>
      <trkpt lat="44.82067" lon="4.42364">
        <ele>701</ele>
        <time>2014-11-13T15:41:26Z</time>
      </trkpt>
      <trkpt lat="44.8207" lon="4.42371">
        <ele>707</ele>
        <time>2014-11-13T15:41:31Z</time>
      </trkpt>
      <trkpt lat="44.82073" lon="4.42374">
        <ele>707</ele>
        <time>2014-11-13T15:41:36Z</time>
      </trkpt>
      <trkpt lat="44.82075" lon="4.42377">
        <ele>697</ele>
        <time>2014-11-13T15:41:41Z</time>
      </trkpt>
      <trkpt lat="44.82078" lon="4.42379">
        <ele>697</ele>
        <time>2014-11-13T15:41:46Z</time>
      </trkpt>
      <trkpt lat="44.82079" lon="4.42378">
        <ele>697</ele>
        <time>2014-11-13T15:41:51Z</time>
      </trkpt>
      <trkpt lat="44.82077" lon="4.42379">
        <ele>697</ele>
        <time>2014-11-13T15:41:56Z</time>
      </trkpt>
      <trkpt lat="44.82076" lon="4.4238">
        <ele>697</ele>
        <time>2014-11-13T15:42:01Z</time>
      </trkpt>
      <trkpt lat="44.82078" lon="4.42381">
        <ele>697</ele>
        <time>2014-11-13T15:42:06Z</time>
      </trkpt>
      <trkpt lat="44.82082" lon="4.4239">
        <ele>697</ele>
        <time>2014-11-13T15:42:11Z</time>
      </trkpt>
      <trkpt lat="44.82086" lon="4.42396">
        <ele>697</ele>
        <time>2014-11-13T15:42:16Z</time>
      </trkpt>
      <trkpt lat="44.82088" lon="4.42402">
        <ele>697</ele>
        <time>2014-11-13T15:42:21Z</time>
      </trkpt>
      <trkpt lat="44.8209" lon="4.42408">
        <ele>687</ele>
        <time>2014-11-13T15:42:26Z</time>
      </trkpt>
      <trkpt lat="44.82088" lon="4.42414">
        <ele>687</ele>
        <time>2014-11-13T15:42:31Z</time>
      </trkpt>
      <trkpt lat="44.82083" lon="4.42419">
        <ele>687</ele>
        <time>2014-11-13T15:42:36Z</time>
      </trkpt>
      <trkpt lat="44.82082" lon="4.4242">
        <ele>687</ele>
        <time>2014-11-13T15:42:41Z</time>
      </trkpt>
      <trkpt lat="44.82082" lon="4.42421">
        <ele>687</ele>
        <time>2014-11-13T15:42:46Z</time>
      </trkpt>
      <trkpt lat="44.82082" lon="4.42422">
        <ele>687</ele>
        <time>2014-11-13T15:43:46Z</time>
      </trkpt>
      <trkpt lat="44.82085" lon="4.42427">
        <ele>687</ele>
        <time>2014-11-13T15:43:51Z</time>
      </trkpt>
      <trkpt lat="44.82086" lon="4.4243">
        <ele>687</ele>
        <time>2014-11-13T15:44:16Z</time>
      </trkpt>
      <trkpt lat="44.82089" lon="4.42434">
        <ele>683</ele>
        <time>2014-11-13T15:44:21Z</time>
      </trkpt>
      <trkpt lat="44.82091" lon="4.42436">
        <ele>683</ele>
        <time>2014-11-13T15:44:31Z</time>
      </trkpt>
      <trkpt lat="44.82098" lon="4.42442">
        <ele>689</ele>
        <time>2014-11-13T15:44:36Z</time>
      </trkpt>
      <trkpt lat="44.82105" lon="4.42449">
        <ele>689</ele>
        <time>2014-11-13T15:44:41Z</time>
      </trkpt>
      <trkpt lat="44.82109" lon="4.42455">
        <ele>689</ele>
        <time>2014-11-13T15:44:46Z</time>
      </trkpt>
      <trkpt lat="44.82114" lon="4.42462">
        <ele>685</ele>
        <time>2014-11-13T15:44:51Z</time>
      </trkpt>
      <trkpt lat="44.82117" lon="4.42467">
        <ele>685</ele>
        <time>2014-11-13T15:44:56Z</time>
      </trkpt>
      <trkpt lat="44.8212" lon="4.42473">
        <ele>685</ele>
        <time>2014-11-13T15:45:01Z</time>
      </trkpt>
      <trkpt lat="44.82122" lon="4.42479">
        <ele>685</ele>
        <time>2014-11-13T15:45:06Z</time>
      </trkpt>
      <trkpt lat="44.82124" lon="4.42485">
        <ele>685</ele>
        <time>2014-11-13T15:45:11Z</time>
      </trkpt>
      <trkpt lat="44.82127" lon="4.42492">
        <ele>690</ele>
        <time>2014-11-13T15:45:16Z</time>
      </trkpt>
      <trkpt lat="44.82131" lon="4.42498">
        <ele>690</ele>
        <time>2014-11-13T15:45:21Z</time>
      </trkpt>
      <trkpt lat="44.82138" lon="4.42501">
        <ele>690</ele>
        <time>2014-11-13T15:45:26Z</time>
      </trkpt>
      <trkpt lat="44.82137" lon="4.42506">
        <ele>690</ele>
        <time>2014-11-13T15:46:11Z</time>
      </trkpt>
      <trkpt lat="44.82135" lon="4.42512">
        <ele>690</ele>
        <time>2014-11-13T15:46:16Z</time>
      </trkpt>
      <trkpt lat="44.82135" lon="4.42519">
        <ele>685</ele>
        <time>2014-11-13T15:46:21Z</time>
      </trkpt>
      <trkpt lat="44.82137" lon="4.42525">
        <ele>685</ele>
        <time>2014-11-13T15:46:26Z</time>
      </trkpt>
      <trkpt lat="44.82138" lon="4.42528">
        <ele>685</ele>
        <time>2014-11-13T15:46:31Z</time>
      </trkpt>
      <trkpt lat="44.82139" lon="4.42528">
        <ele>685</ele>
        <time>2014-11-13T15:46:36Z</time>
      </trkpt>
      <trkpt lat="44.82138" lon="4.42527">
        <ele>685</ele>
        <time>2014-11-13T15:46:41Z</time>
      </trkpt>
      <trkpt lat="44.82139" lon="4.42532">
        <ele>685</ele>
        <time>2014-11-13T15:46:46Z</time>
      </trkpt>
      <trkpt lat="44.82141" lon="4.42539">
        <ele>685</ele>
        <time>2014-11-13T15:46:51Z</time>
      </trkpt>
      <trkpt lat="44.8214" lon="4.42541">
        <ele>685</ele>
        <time>2014-11-13T15:46:56Z</time>
      </trkpt>
      <trkpt lat="44.82142" lon="4.42548">
        <ele>681</ele>
        <time>2014-11-13T15:47:06Z</time>
      </trkpt>
      <trkpt lat="44.82146" lon="4.42551">
        <ele>681</ele>
        <time>2014-11-13T15:47:11Z</time>
      </trkpt>
      <trkpt lat="44.82146" lon="4.42552">
        <ele>681</ele>
        <time>2014-11-13T15:47:16Z</time>
      </trkpt>
      <trkpt lat="44.82148" lon="4.42557">
        <ele>681</ele>
        <time>2014-11-13T15:47:21Z</time>
      </trkpt>
      <trkpt lat="44.82146" lon="4.42567">
        <ele>681</ele>
        <time>2014-11-13T15:47:26Z</time>
        <extensions>
          <visugpx:TrkExtension xmlns:visugpx="https://www.visugpx.com/editgpx/">
            <visugpx:node>12</visugpx:node>
            </visugpx:TrkExtension>
        </extensions>
      </trkpt>
      <trkpt lat="44.82139" lon="4.42564">
        <ele>672.8</ele>
      </trkpt>
      <trkpt lat="44.82138" lon="4.42568">
        <ele>671.9</ele>
      </trkpt>
      <trkpt lat="44.82138" lon="4.4257">
        <ele>671.6</ele>
      </trkpt>
      <trkpt lat="44.82135" lon="4.42572">
        <ele>670.2</ele>
      </trkpt>
      <trkpt lat="44.82133" lon="4.42572">
        <ele>669.5</ele>
      </trkpt>
      <trkpt lat="44.82131" lon="4.42572">
        <ele>668.7</ele>
      </trkpt>
      <trkpt lat="44.8213" lon="4.4257">
        <ele>668.7</ele>
      </trkpt>
      <trkpt lat="44.82128" lon="4.42566">
        <ele>668.7</ele>
      </trkpt>
      <trkpt lat="44.82125" lon="4.4256">
        <ele>668.7</ele>
      </trkpt>
      <trkpt lat="44.82122" lon="4.42554">
        <ele>668.9</ele>
      </trkpt>
      <trkpt lat="44.82119" lon="4.42549">
        <ele>669</ele>
      </trkpt>
      <trkpt lat="44.82118" lon="4.42548">
        <ele>668.9</ele>
      </trkpt>
      <trkpt lat="44.82115" lon="4.42546">
        <ele>668.4</ele>
      </trkpt>
      <trkpt lat="44.82109" lon="4.42542">
        <ele>667.3</ele>
      </trkpt>
      <trkpt lat="44.82099" lon="4.42536">
        <ele>665.6</ele>
      </trkpt>
      <trkpt lat="44.82095" lon="4.42534">
        <ele>664.9</ele>
      </trkpt>
      <trkpt lat="44.82107" lon="4.42551">
        <ele>664.7</ele>
      </trkpt>
      <trkpt lat="44.82109" lon="4.42561">
        <ele>663.1</ele>
      </trkpt>
      <trkpt lat="44.82113" lon="4.42573">
        <ele>661.9</ele>
      </trkpt>
      <trkpt lat="44.82117" lon="4.42586">
        <ele>660.7</ele>
      </trkpt>
      <trkpt lat="44.82124" lon="4.42602">
        <ele>660.6</ele>
      </trkpt>
      <trkpt lat="44.82124" lon="4.42605">
        <ele>660.1</ele>
      </trkpt>
      <trkpt lat="44.8212" lon="4.42618">
        <ele>656.2</ele>
      </trkpt>
      <trkpt lat="44.82114" lon="4.4263">
        <ele>652.1</ele>
      </trkpt>
      <trkpt lat="44.82113" lon="4.42634">
        <ele>651.3</ele>
      </trkpt>
      <trkpt lat="44.82113" lon="4.42646">
        <ele>650</ele>
      </trkpt>
      <trkpt lat="44.82113" lon="4.42658">
        <ele>648.3</ele>
      </trkpt>
      <trkpt lat="44.82112" lon="4.42666">
        <ele>646.6</ele>
      </trkpt>
      <trkpt lat="44.82111" lon="4.42669">
        <ele>646</ele>
      </trkpt>
      <trkpt lat="44.82107" lon="4.42673">
        <ele>644.8</ele>
      </trkpt>
      <trkpt lat="44.82105" lon="4.42675">
        <ele>644.2</ele>
      </trkpt>
      <trkpt lat="44.82107" lon="4.42684">
        <ele>644.6</ele>
      </trkpt>
      <trkpt lat="44.82108" lon="4.42693">
        <ele>644.8</ele>
      </trkpt>
      <trkpt lat="44.82105" lon="4.42705">
        <ele>642.8</ele>
      </trkpt>
      <trkpt lat="44.82099" lon="4.42719">
        <ele>639.4</ele>
      </trkpt>
      <trkpt lat="44.82095" lon="4.42729">
        <ele>637.3</ele>
      </trkpt>
      <trkpt lat="44.82093" lon="4.42733">
        <ele>636.3</ele>
      </trkpt>
      <trkpt lat="44.82089" lon="4.42736">
        <ele>634.6</ele>
      </trkpt>
      <trkpt lat="44.82087" lon="4.42736">
        <ele>633.9</ele>
      </trkpt>
      <trkpt lat="44.82085" lon="4.42737">
        <ele>633.1</ele>
      </trkpt>
      <trkpt lat="44.82085" lon="4.42739">
        <ele>633</ele>
      </trkpt>
      <trkpt lat="44.82088" lon="4.42755">
        <ele>633</ele>
      </trkpt>
      <trkpt lat="44.82096" lon="4.42782">
        <ele>632.4</ele>
      </trkpt>
      <trkpt lat="44.82099" lon="4.42798">
        <ele>630.8</ele>
      </trkpt>
      <trkpt lat="44.82103" lon="4.4281">
        <ele>630.3</ele>
      </trkpt>
      <trkpt lat="44.82104" lon="4.42812">
        <ele>630.4</ele>
        <extensions>
          <visugpx:TrkExtension xmlns:visugpx="https://www.visugpx.com/editgpx/">
            <visugpx:node>13</visugpx:node>
            </visugpx:TrkExtension>
        </extensions>
      </trkpt>
    </trkseg>
  </trk>
</gpx>